GFSWCAN_850_thetae_000.txt.gz
Theta_e
295 295 295 295 295 295 295 295 295 294 295 296 297 298 299 301 303 305 310 312 312 312 312 312 312 312 311 311 313 312 313 314 315 318 318 319 318 314 317 315 317 318 320 320 319 319 317 313 313 315 311 311 311 310
294 295 295 295 295 295 295 294 295 294 295 295 296 298 299 300 303 306 310 311 312 312 312 312 312 312 312 311 311 312 313 314 315 317 316 318 314 314 319 317 314 319 318 320 316 316 312 312 313 314 313 311 310 311
295 296 296 295 294 295 295 295 295 295 295 295 295 298 298 299 303 305 308 311 311 311 312 312 312 312 312 312 311 311 312 313 315 315 313 312 314 312 317 316 316 315 314 317 316 314 312 312 314 313 313 313 311 311
296 295 294 295 296 295 294 294 294 295 295 295 295 297 297 298 302 304 306 310 311 311 312 312 312 312 312 312 312 312 312 312 313 316 315 311 314 309 312 311 313 313 313 312 312 310 309 311 312 313 312 312 311 310
295 295 295 294 294 295 294 294 294 293 295 294 295 296 296 298 301 304 308 310 311 311 313 313 312 311 311 311 312 312 312 313 314 317 317 317 312 312 309 310 311 307 312 315 315 311 312 310 312 312 312 310 310 310
294 294 294 294 295 295 294 294 294 293 294 292 295 296 297 297 301 304 309 310 311 312 311 314 312 312 311 311 312 313 312 312 313 315 316 317 315 315 312 313 312 312 312 316 312 313 311 311 311 311 311 309 308 308
294 294 294 294 293 293 293 293 293 294 290 294 295 297 297 296 300 303 309 311 311 311 311 310 311 312 312 311 312 312 311 313 314 315 315 314 313 314 312 314 313 313 313 313 313 312 307 308 307 309 310 307 306 305
294 292 293 293 292 294 294 294 293 289 294 295 295 295 296 298 302 306 310 311 311 311 311 308 310 311 312 313 313 313 312 313 314 314 312 312 310 310 313 312 311 310 310 309 310 312 312 309 308 307 307 306 305 303
292 291 292 293 293 291 293 291 291 293 294 295 296 299 301 302 306 308 310 311 310 311 311 308 310 312 311 312 312 314 315 315 313 312 311 311 311 311 311 310 309 309 310 309 309 309 308 308 306 305 305 304 302 299
291 291 290 290 289 289 290 292 293 294 293 295 300 302 304 305 308 310 311 310 310 312 311 311 310 311 311 310 309 310 309 311 311 311 309 310 310 313 314 315 314 311 311 309 306 302 303 304 305 303 303 302 301 299
291 291 290 289 289 289 290 292 292 294 293 296 296 298 301 308 310 309 309 309 309 308 308 310 310 309 309 310 310 307 307 306 312 307 312 310 312 309 314 315 314 311 311 310 311 310 308 308 305 303 301 300 299 298
291 291 290 290 289 288 289 293 293 293 294 295 296 295 298 302 305 304 304 306 309 310 308 310 309 310 309 309 307 306 304 303 312 305 309 312 308 309 310 311 313 311 310 309 309 309 307 306 304 302 300 299 297 296
291 291 291 290 289 289 290 292 293 293 294 295 295 295 297 301 305 307 309 309 308 306 308 307 305 308 307 307 302 302 309 310 300 305 307 306 303 306 307 309 308 308 308 308 307 307 306 304 302 301 299 296 295 295
291 291 291 290 289 289 289 292 293 294 294 295 296 299 301 304 303 304 305 305 306 309 307 307 303 305 304 302 302 301 303 301 303 304 303 300 302 306 307 307 307 305 306 307 306 305 304 302 300 298 296 295 295 294
291 291 291 290 289 289 289 289 293 294 295 295 297 300 303 302 301 301 299 301 305 306 308 306 304 304 303 304 300 302 303 304 302 303 301 300 304 305 305 305 305 305 305 305 304 303 301 299 297 295 295 295 294 294
291 291 291 290 290 289 289 292 295 294 295 296 297 299 301 301 300 301 300 302 305 306 308 306 301 303 305 302 299 297 300 301 303 297 302 303 304 304 304 304 304 304 304 302 301 300 298 296 295 295 294 294 294 293
291 291 290 290 289 289 289 294 294 295 296 298 300 299 299 300 299 301 301 303 306 306 305 298 301 301 293 294 295 294 298 299 296 301 303 303 304 303 303 303 302 301 301 300 299 297 296 295 295 294 294 293 293 292
291 291 290 289 289 289 290 295 295 295 296 297 296 297 297 299 300 301 302 303 306 305 303 301 298 297 298 297 294 295 296 299 301 301 301 302 302 302 302 301 300 300 300 298 297 295 295 295 294 294 293 292 292 291
291 290 290 289 289 290 292 294 294 290 295 296 295 295 296 298 299 301 302 304 306 305 304 301 298 295 296 292 291 295 299 301 299 299 300 301 301 300 299 300 300 299 298 296 295 295 295 294 294 294 293 292 292 290
291 290 289 289 289 292 292 293 293 294 286 294 294 295 295 296 298 300 302 304 305 303 302 297 297 297 298 300 301 302 302 301 300 299 297 298 299 299 299 298 297 296 296 295 295 294 294 293 293 293 292 291 291 290
290 290 289 289 290 292 292 293 293 293 293 292 294 294 295 296 298 299 300 301 303 302 302 299 299 298 298 297 297 299 301 300 299 300 297 295 295 297 297 296 296 296 296 294 294 293 293 293 292 291 291 290 290 289
290 289 289 289 290 291 292 292 291 291 292 293 293 293 293 293 296 295 296 298 295 293 294 294 296 297 297 297 298 298 299 298 299 299 299 298 295 294 294 295 295 295 294 294 294 294 293 293 292 291 290 289 289 289
290 289 288 288 289 288 290 289 291 291 285 286 292 290 292 292 293 294 292 289 289 289 291 292 294 294 295 296 296 296 296 297 298 297 295 294 294 293 294 294 295 295 294 293 294 293 292 291 290 290 289 289 288 286
289 288 287 287 287 280 287 288 288 289 290 286 285 289 291 291 292 291 290 287 288 288 289 290 292 293 294 293 294 294 295 296 297 296 293 294 293 292 294 294 294 294 294 293 292 292 291 290 289 289 289 288 286 285
288 286 286 278 285 280 276 279 276 280 282 282 286 287 290 290 292 291 289 284 284 285 287 288 289 290 291 291 291 291 291 294 294 291 290 292 293 292 292 293 293 293 292 292 291 291 290 290 288 288 286 285 284 284
281 285 282 276 277 280 279 282 278 279 281 283 286 289 290 291 290 288 283 279 280 281 283 285 286 287 288 289 289 289 289 290 292 292 290 293 294 294 294 292 291 290 290 291 291 291 290 288 287 286 284 283 283 282
280 278 286 286 286 286 282 284 284 279 279 282 284 285 288 290 289 282 279 279 279 281 282 284 286 287 287 287 288 289 288 289 292 292 293 294 296 295 292 292 291 291 290 290 290 290 289 287 285 284 284 282 281 280
286 285 280 284 284 284 277 276 276 277 278 284 283 283 284 284 283 278 278 279 279 280 281 283 286 287 287 287 287 288 290 291 292 291 290 290 290 291 291 292 292 289 288 288 287 287 286 285 284 283 281 280 280 280
286 286 286 275 279 280 277 277 277 282 281 281 277 281 279 277 277 277 278 279 279 280 281 282 283 285 286 287 288 289 289 291 291 291 290 288 288 287 288 288 287 286 286 285 283 283 284 282 281 280 280 280 280 279
285 285 281 273 275 277 281 282 282 280 280 280 279 278 278 278 278 278 278 279 279 281 282 283 284 285 286 287 286 286 288 289 291 294 292 289 288 287 286 286 285 284 284 284 283 282 280 280 280 279 279 279 279 279
285 284 281 278 274 280 280 281 281 281 281 280 279 279 279 279 279 279 279 279 280 281 282 284 285 286 287 287 288 288 288 288 289 290 289 288 286 285 284 284 284 284 283 282 281 280 280 279 279 279 279 279 278 278
284 284 276 276 275 279 280 280 281 281 281 281 281 280 280 279 279 280 280 280 281 282 283 285 285 285 287 287 286 286 286 286 286 286 286 286 285 284 283 282 282 281 280 280 279 279 279 279 279 279 278 277 277 277
283 282 279 277 276 277 279 280 278 277 278 278 278 279 279 279 280 281 281 281 282 282 283 284 285 285 285 285 286 286 285 285 284 284 284 283 283 283 282 281 280 279 279 279 279 279 279 278 278 278 277 277 277 277

GFSWCAN_850_thetae_003.txt.gz
Theta_e
296 297 297 297 296 296 295 295 295 295 295 295 296 297 298 299 301 303 308 311 312 312 312 312 312 312 311 310 312 312 312 313 314 316 318 316 315 313 315 313 316 316 318 315 314 318 315 312 312 314 311 309 310 310
297 297 297 296 296 296 296 295 295 295 295 295 295 296 298 298 301 302 305 310 311 311 312 312 312 311 312 312 311 311 312 313 314 316 315 316 316 312 314 315 312 317 315 315 314 314 311 311 312 312 311 310 308 310
296 297 296 295 295 295 294 295 295 295 295 294 295 296 297 297 299 301 304 309 311 311 310 312 312 312 312 312 311 311 311 311 314 314 314 314 313 312 316 314 314 314 312 315 316 313 312 311 312 312 312 311 309 310
296 295 295 295 295 295 294 295 295 294 294 294 295 295 296 297 298 300 303 307 309 311 311 311 312 311 312 312 312 311 312 312 312 314 315 310 313 309 311 311 313 312 313 312 312 310 309 311 312 312 311 311 310 309
295 295 294 294 294 294 294 294 294 294 294 294 291 293 296 297 298 300 305 309 310 311 313 313 312 312 312 311 312 312 311 311 313 316 317 316 310 311 307 308 309 307 313 314 315 311 312 311 312 311 311 310 309 309
294 295 291 291 291 293 294 294 294 294 294 290 290 294 296 297 297 302 308 309 310 312 312 314 313 312 311 311 311 312 312 311 312 314 316 316 315 315 310 311 311 312 313 315 313 312 310 311 311 310 310 309 308 309
293 293 291 290 290 291 291 293 292 290 290 293 293 293 294 295 296 298 306 309 311 311 312 310 311 312 312 311 312 312 312 313 313 315 315 315 315 315 313 312 311 313 313 312 313 312 307 309 309 309 310 308 307 306
292 291 290 290 289 289 289 292 293 293 293 292 291 292 294 296 297 301 308 308 309 311 311 309 309 311 312 313 313 313 312 313 314 314 313 313 311 311 314 310 312 311 310 310 310 311 311 309 308 308 308 307 304 302
292 291 291 290 289 289 289 292 292 292 293 293 295 299 299 299 300 304 307 310 310 311 310 308 310 311 311 313 313 314 314 315 313 313 312 311 311 312 312 310 310 310 310 308 308 309 308 308 307 306 306 304 303 302
292 291 291 291 290 290 289 292 292 293 292 293 297 299 302 302 304 308 309 309 310 311 311 311 309 311 311 311 309 311 309 312 311 312 309 311 312 313 314 314 314 312 310 309 307 302 303 304 305 305 304 303 303 301
294 291 291 291 291 290 289 290 292 293 292 293 294 295 296 300 305 309 306 309 309 308 310 309 309 309 310 310 311 308 307 305 309 307 312 310 312 308 313 315 314 312 310 310 310 310 308 309 307 305 303 303 301 299
292 290 290 291 291 290 289 290 292 292 293 294 294 294 295 299 302 303 304 305 309 310 308 310 308 310 310 309 308 306 307 306 312 304 309 311 308 309 309 311 314 311 310 309 309 309 308 307 306 305 302 300 299 298
290 290 290 291 290 290 289 289 292 292 293 294 295 295 295 298 303 306 307 308 307 306 307 307 304 308 307 307 302 304 309 310 300 305 307 306 302 306 307 309 310 309 308 308 308 307 307 306 304 303 300 299 298 296
290 290 290 290 290 290 289 288 288 293 294 293 295 296 297 303 303 303 303 298 304 308 308 308 304 305 305 302 301 302 304 302 304 305 304 297 303 305 307 307 308 306 307 308 307 306 305 304 301 300 300 298 296 295
290 290 290 290 290 290 289 288 291 294 294 294 296 298 301 300 300 301 301 300 303 307 308 306 304 305 303 303 299 302 304 305 303 305 298 302 303 305 306 305 305 305 306 306 306 304 303 302 300 298 297 295 294 294
290 290 290 290 290 289 288 288 294 294 293 294 295 297 299 300 301 300 301 300 304 306 309 307 303 303 305 304 298 298 301 303 305 297 301 303 304 304 305 304 304 305 305 304 303 302 301 299 298 296 294 294 294 294
291 290 290 290 289 289 288 292 293 294 294 295 298 298 297 298 299 300 301 302 305 306 306 302 306 305 295 296 296 295 300 302 299 301 303 303 304 304 304 303 303 303 303 302 301 300 299 297 295 294 294 293 293 293
292 291 290 289 289 289 289 293 293 294 294 296 294 296 295 296 297 299 301 302 304 305 302 303 298 296 297 298 296 296 297 299 301 301 301 302 303 302 302 303 302 301 300 299 299 298 296 295 294 294 293 293 292 291
291 291 290 289 289 288 290 292 293 292 291 294 294 295 295 295 296 298 300 301 303 305 303 300 297 296 297 293 293 296 298 301 301 300 301 301 301 301 300 300 300 300 300 299 297 296 295 295 294 294 293 292 292 291
291 290 290 289 289 289 290 292 292 291 291 293 292 293 294 293 295 297 299 300 301 304 301 301 298 297 298 300 301 302 302 302 302 299 298 298 298 299 299 299 298 297 297 296 295 295 294 294 293 293 293 292 292 291
290 290 290 289 289 291 291 292 292 291 291 291 291 293 293 294 296 298 299 299 300 300 301 299 298 298 298 298 299 300 301 302 301 302 301 298 296 297 297 297 298 297 296 295 295 294 294 294 293 292 292 291 290 290
290 290 289 289 289 290 290 291 291 290 290 290 291 292 290 289 293 294 294 296 295 291 292 294 296 298 299 299 298 299 300 300 299 300 300 300 298 295 295 295 295 294 294 294 294 294 293 293 293 292 291 290 289 289
290 290 289 288 288 288 288 288 290 290 287 284 289 282 281 286 293 293 292 289 289 288 289 290 293 295 296 297 298 299 298 298 298 298 297 297 297 296 295 294 294 295 294 294 294 294 294 292 292 291 290 290 289 288
290 289 287 287 287 280 286 287 287 287 289 283 278 282 281 284 291 290 292 288 286 287 288 288 289 291 293 294 295 296 296 296 297 296 295 295 295 293 293 294 294 294 295 294 293 293 293 292 291 290 290 290 288 287
289 287 286 279 284 279 275 277 273 278 280 277 281 280 283 290 287 286 289 284 283 283 284 286 288 289 290 291 292 293 294 295 296 294 291 292 295 292 291 292 293 293 294 294 293 293 292 292 291 290 289 288 286 285
282 285 281 276 276 279 278 280 277 278 277 277 279 285 288 287 287 282 281 279 280 281 281 282 283 286 287 288 290 291 292 293 293 294 291 290 291 292 291 291 291 291 293 293 293 292 291 290 289 288 286 284 284 284
281 279 285 285 286 285 282 283 283 278 277 277 276 278 281 286 285 281 281 280 279 279 280 281 283 285 286 287 288 288 289 290 290 291 289 289 291 291 293 294 294 294 292 292 292 292 292 290 288 286 285 283 282 280
286 284 281 284 284 283 277 276 275 276 276 283 281 278 281 285 285 280 280 279 279 279 280 281 282 284 285 286 287 287 287 287 288 289 289 290 292 293 294 295 293 292 291 292 292 291 290 288 286 284 284 283 281 280
286 285 285 274 278 279 278 278 277 283 283 282 276 277 277 280 280 279 279 279 279 279 279 279 280 282 283 285 285 285 286 286 287 287 289 287 288 289 290 291 292 291 291 290 287 286 285 284 283 283 281 281 281 280
285 285 281 274 276 278 281 283 282 280 281 281 281 280 280 280 280 279 279 279 279 279 279 279 280 281 282 283 283 284 285 286 288 291 292 291 291 290 290 290 290 288 286 285 284 283 282 282 281 281 281 281 280 280
285 284 281 279 274 280 280 281 281 280 280 280 279 279 279 280 280 279 279 279 280 280 280 280 281 281 282 283 284 285 286 287 289 292 293 291 290 289 289 288 287 286 285 284 284 283 281 281 281 281 281 280 279 279
284 283 276 275 275 278 279 280 280 281 280 280 280 279 279 279 279 280 279 280 281 280 281 281 282 283 285 286 287 288 289 289 290 290 290 290 289 287 285 284 283 283 282 282 281 281 280 281 281 280 280 279 278 278
281 281 279 277 276 276 278 279 277 278 278 278 279 279 279 279 279 280 280 281 281 281 282 283 284 284 285 286 287 287 287 288 287 287 286 284 284 283 282 282 281 281 281 281 281 281 281 280 279 279 278 278 278 277

GFSWCAN_850_thetae_006.txt.gz
Theta_e
294 295 296 296 296 296 295 295 296 295 295 295 294 295 296 298 300 302 305 307 311 312 312 312 312 311 311 310 311 311 312 312 313 316 317 317 317 312 313 311 313 314 315 315 313 317 314 311 311 315 311 310 309 312
294 295 295 296 296 295 295 295 295 295 295 295 294 295 295 297 299 301 304 309 311 311 311 312 312 312 312 312 311 311 312 313 313 316 313 316 316 310 311 313 311 315 313 314 313 313 309 311 310 312 310 309 309 309
295 296 295 295 295 294 294 294 294 295 294 294 295 295 291 296 298 299 301 305 309 309 311 311 312 312 312 311 312 311 311 311 312 314 313 312 315 310 314 312 313 312 310 314 314 312 312 311 312 310 310 309 309 310
295 295 295 294 294 294 293 294 294 295 295 295 295 291 290 294 297 298 299 304 307 310 311 310 311 311 312 312 312 311 311 312 312 312 315 313 313 309 311 311 312 312 312 312 312 310 309 311 311 310 309 308 308 308
295 295 295 291 290 291 292 293 293 293 292 290 290 292 292 294 296 297 301 307 308 310 312 313 312 312 312 312 312 311 311 311 311 314 315 316 309 309 306 307 309 308 313 315 315 312 311 310 311 309 310 309 308 309
295 294 295 291 290 289 289 291 293 293 293 293 293 293 293 292 294 296 306 306 308 308 311 313 313 312 312 311 311 311 311 311 311 314 316 316 314 312 309 310 310 311 313 314 312 312 310 310 310 309 310 308 308 309
295 293 296 294 291 290 289 290 292 293 293 293 293 293 293 291 293 296 302 306 308 309 311 309 308 312 312 311 311 311 312 311 311 312 315 315 315 315 314 315 312 313 313 311 312 311 308 309 309 309 309 308 308 308
295 295 296 295 295 291 290 291 292 292 292 293 293 293 294 293 294 297 301 303 305 309 311 309 309 310 311 311 312 312 312 313 313 313 313 313 312 312 314 311 312 311 311 310 310 310 310 311 309 308 308 307 306 304
295 294 295 296 293 294 292 292 293 291 292 292 294 298 299 299 298 301 304 308 308 310 309 309 309 309 311 312 312 313 313 314 313 313 313 311 312 313 313 311 311 311 310 309 308 309 308 309 307 306 306 305 304 301
295 293 295 293 292 293 294 293 290 292 292 293 296 298 300 299 300 303 308 308 309 311 311 310 309 310 310 311 310 311 310 311 311 312 309 311 313 313 315 314 314 313 311 309 306 302 304 304 306 305 305 304 303 302
295 291 292 292 291 292 293 291 290 292 291 292 293 295 295 299 301 305 307 308 309 308 309 310 309 309 310 309 311 308 307 305 311 307 312 310 312 309 311 314 314 314 312 310 311 311 309 309 307 305 304 303 302 301
294 290 290 290 290 291 290 289 289 290 292 293 294 294 296 299 300 302 304 305 308 307 307 309 307 309 309 310 308 306 305 306 311 302 309 311 306 308 308 310 312 313 311 310 310 310 309 308 308 306 304 303 302 300
292 290 290 290 290 290 290 289 288 289 294 294 295 295 295 297 302 306 307 307 308 305 308 307 304 308 307 308 303 304 309 309 300 306 309 305 303 306 307 309 311 310 309 309 309 307 307 307 306 305 303 302 299 298
291 290 290 290 290 290 289 288 288 294 295 294 293 293 297 300 302 303 302 302 301 303 306 307 304 301 305 301 302 308 305 303 306 306 304 297 302 303 305 307 309 308 307 308 307 306 306 306 304 303 302 299 298 296
290 290 290 290 290 289 289 288 290 294 294 294 294 295 297 300 299 300 300 300 302 304 305 306 305 305 301 299 299 303 304 306 304 304 298 302 302 303 305 306 306 306 305 305 305 305 304 304 303 300 298 298 296 295
291 290 290 290 290 289 288 289 293 294 293 294 294 293 298 296 295 299 300 300 303 305 306 305 303 305 306 300 300 302 301 303 304 296 303 303 303 304 305 305 304 304 305 305 304 303 302 302 300 299 297 295 294 294
291 291 291 290 289 289 288 292 293 294 293 294 297 296 296 295 298 298 298 301 301 304 305 302 306 308 296 297 297 296 301 301 301 302 302 303 303 304 304 303 303 303 303 303 302 301 301 299 298 297 295 294 294 294
292 291 291 290 289 289 289 292 293 292 293 294 295 295 295 295 295 296 299 300 301 304 303 304 298 294 296 298 297 296 298 299 302 302 302 302 303 302 303 303 302 302 302 301 301 300 298 297 297 295 294 294 293 293
293 292 290 290 289 289 289 291 292 291 291 292 293 293 293 294 295 294 295 297 299 299 301 299 300 296 297 293 292 298 299 300 301 301 301 301 301 301 301 301 301 301 301 300 299 298 297 296 296 294 294 293 293 292
293 291 290 290 289 288 289 291 292 290 291 291 290 291 291 292 294 295 295 297 297 300 300 301 301 298 297 299 299 300 301 300 300 299 299 299 300 300 300 300 299 298 298 297 297 297 296 294 294 294 293 293 292 291
292 290 290 290 289 289 290 291 291 291 290 290 289 288 291 292 293 296 297 297 297 299 301 298 297 297 296 297 299 300 300 301 301 301 301 299 299 299 299 298 298 297 298 296 296 294 294 294 293 292 292 292 291 290
290 290 290 289 288 290 290 290 290 289 288 288 288 289 288 289 290 294 293 293 294 290 290 290 290 293 296 296 297 298 299 300 299 300 300 300 299 297 297 298 296 295 295 295 295 294 294 293 293 292 291 290 289 290
290 290 289 288 288 287 287 288 289 288 286 284 287 282 278 282 292 292 291 290 289 286 286 287 288 290 292 293 296 297 297 298 299 298 298 299 299 298 297 296 296 297 294 293 294 294 293 292 292 291 290 290 290 289
290 289 288 288 287 281 285 286 286 285 286 280 277 281 278 284 291 286 284 286 285 286 286 286 287 288 290 291 292 293 294 296 297 297 297 297 297 294 294 294 294 294 294 294 293 293 292 292 291 290 290 290 290 289
290 287 286 279 284 278 277 275 272 277 280 275 283 279 278 288 282 279 281 281 285 285 284 284 285 285 285 287 289 291 292 293 295 296 296 295 295 293 292 292 292 292 293 294 292 292 292 292 291 291 290 290 289 287
283 285 281 278 276 278 278 278 275 277 275 276 277 281 285 281 283 282 279 284 283 282 280 281 281 282 285 285 285 288 290 290 292 293 294 294 293 294 293 291 290 290 291 292 294 293 292 291 291 290 289 288 286 286
281 280 284 284 285 284 282 282 283 277 276 281 275 276 276 280 278 280 284 283 282 281 281 280 280 281 282 284 285 286 288 290 290 291 292 291 291 292 292 292 290 290 291 292 293 293 293 291 290 290 288 286 284 283
287 285 281 284 284 283 277 276 275 277 277 282 280 277 277 280 281 284 283 282 281 281 281 281 281 281 282 283 284 284 286 287 288 289 288 288 288 289 290 291 292 292 293 292 292 291 291 291 290 288 286 285 283 281
286 285 284 277 278 278 278 279 277 283 284 284 278 278 278 283 284 283 282 281 280 280 280 281 281 281 281 282 282 283 284 285 286 286 287 285 285 286 288 291 292 293 292 290 290 291 291 290 287 285 284 282 281 281
285 285 281 275 277 279 282 283 283 282 283 283 282 282 282 283 283 282 281 280 280 280 279 279 279 279 279 280 281 282 282 283 284 287 288 286 286 287 289 290 291 290 290 291 290 288 286 285 284 282 281 281 281 281
284 284 281 280 275 280 280 281 281 280 281 281 281 280 280 281 281 282 281 280 280 279 279 279 280 280 280 280 281 282 283 283 284 286 289 289 289 288 288 289 290 289 290 290 289 285 284 283 282 281 281 281 281 280
283 283 277 275 275 278 279 279 280 280 280 279 280 279 279 279 280 281 281 280 280 280 280 280 280 281 282 283 283 284 285 285 285 287 288 289 288 289 289 289 289 289 287 284 283 283 282 281 281 281 280 280 280 279
280 280 278 277 275 275 277 278 277 277 277 278 279 278 279 279 278 281 281 281 281 281 282 282 283 283 282 283 285 285 285 286 287 287 287 288 288 288 287 286 285 284 283 282 281 281 280 281 280 280 280 280 279 279

GFSWCAN_850_thetae_009.txt.gz
Theta_e
294 295 298 295 295 293 292 294 295 295 294 295 295 295 296 291 296 300 303 305 304 310 311 311 311 311 311 311 311 310 312 312 312 313 316 315 313 311 312 310 313 313 314 313 315 316 314 310 313 316 312 309 308 312
290 295 298 295 293 289 290 290 295 293 294 294 295 296 295 291 295 298 301 305 308 309 311 312 312 312 312 312 311 311 311 312 312 313 313 315 316 310 309 313 309 314 311 314 312 312 309 311 310 311 310 308 308 310
291 296 296 295 292 289 290 292 292 289 292 293 293 294 292 291 295 296 298 301 307 310 310 311 312 312 312 312 312 312 311 312 312 312 314 313 315 310 312 310 311 310 309 314 314 312 310 312 311 311 309 308 308 309
292 296 296 294 294 289 290 291 290 290 293 292 293 294 294 291 290 294 295 297 301 307 310 310 311 311 312 312 312 311 311 312 311 312 312 314 312 309 310 309 310 310 310 312 311 310 310 312 310 310 308 307 307 307
293 296 296 292 295 290 291 291 293 290 293 293 293 293 293 293 289 291 294 301 304 304 310 311 312 312 312 311 311 311 311 311 311 312 313 315 311 308 304 305 308 308 312 313 315 312 311 310 310 308 309 307 307 308
293 296 295 294 296 293 294 292 294 293 293 293 292 294 294 294 292 293 302 305 305 304 308 311 312 312 311 311 311 311 311 311 310 312 313 314 314 312 309 310 310 311 312 313 312 312 310 310 309 308 309 307 307 308
294 296 295 294 295 295 295 294 294 294 294 293 293 293 294 294 293 293 298 301 304 307 309 309 307 311 311 310 310 310 311 311 311 311 311 314 314 314 314 314 313 315 314 312 313 312 309 308 308 308 308 307 307 307
294 295 295 293 295 295 294 295 294 294 293 290 293 293 295 295 292 292 294 299 304 307 310 309 308 309 311 311 311 311 312 312 312 313 313 313 312 312 316 313 315 314 313 312 310 311 310 310 308 307 306 306 306 305
294 295 295 292 294 294 294 293 293 293 290 290 292 297 297 298 297 298 298 303 305 306 309 308 308 305 311 311 311 312 313 313 312 313 313 311 313 314 314 312 313 313 312 313 309 308 309 309 307 306 305 305 307 304
294 295 294 290 292 291 293 291 291 291 291 291 294 296 298 296 298 299 302 304 308 308 310 310 308 309 309 311 310 311 310 312 311 312 309 310 314 313 315 316 314 313 311 311 307 304 305 305 306 306 306 306 305 301
294 295 293 290 290 291 291 289 291 292 289 292 293 295 296 299 301 300 303 308 308 308 309 309 308 308 309 309 311 308 308 305 312 306 311 311 310 308 309 311 314 314 312 311 310 310 309 310 308 306 304 303 302 300
293 295 291 290 290 290 290 289 290 289 291 294 293 294 296 299 300 300 303 305 307 307 308 308 308 309 309 310 308 306 304 306 311 301 308 311 305 308 307 308 310 313 311 309 309 310 309 308 308 306 304 302 301 300
292 295 290 290 290 290 289 289 288 288 294 294 294 294 296 298 302 304 306 307 308 304 307 306 305 308 308 307 303 301 308 309 300 306 308 303 303 305 306 307 309 310 309 308 308 307 308 307 306 306 304 301 301 300
292 295 290 290 290 290 289 289 288 293 295 293 293 291 298 301 300 302 301 301 301 302 304 306 305 303 305 299 300 309 304 303 306 306 301 296 303 303 303 306 308 307 307 307 307 307 306 306 305 304 302 301 300 298
293 294 290 290 290 290 289 289 292 294 293 294 294 292 297 298 299 299 299 299 302 302 304 305 304 304 297 301 299 303 305 306 306 303 297 301 302 303 304 305 306 306 306 306 306 306 305 305 304 302 301 300 298 297
295 293 291 290 290 290 289 289 293 293 293 294 293 292 297 292 292 297 298 298 301 302 305 306 303 305 305 303 301 304 304 304 303 298 303 302 303 304 305 305 305 304 305 306 306 305 304 304 303 301 298 297 296 295
295 293 291 291 290 289 289 290 293 293 293 293 295 295 295 293 295 295 295 298 300 302 304 302 306 308 296 297 300 297 300 301 302 303 303 302 303 304 305 304 303 303 303 303 303 302 303 302 300 298 297 295 294 294
294 293 291 290 290 289 289 291 292 292 293 294 294 294 293 294 294 294 295 296 298 299 300 302 297 297 296 298 298 297 299 301 302 303 303 302 303 303 303 303 302 302 302 302 301 301 301 299 297 297 296 294 294 293
294 293 292 290 290 289 288 290 291 290 291 291 291 291 291 291 293 294 294 295 296 298 298 299 300 296 295 291 291 297 298 298 300 301 302 302 302 302 303 302 301 301 301 301 299 299 298 297 298 296 295 294 294 293
294 293 292 290 289 289 288 290 291 290 289 290 289 289 289 289 292 293 294 295 296 296 298 300 300 297 295 295 294 294 296 297 297 299 300 301 301 302 302 302 301 300 299 298 297 297 296 296 295 296 294 294 293 292
293 292 290 289 289 289 289 289 289 289 288 288 288 287 288 289 290 292 294 295 295 297 299 294 292 293 293 295 296 295 294 294 297 298 299 300 300 301 300 299 299 299 299 298 298 295 295 295 295 294 293 293 292 292
292 290 290 289 289 289 290 288 289 289 287 287 287 286 286 288 288 292 292 291 293 290 289 288 288 289 292 294 294 295 296 295 296 297 299 299 299 299 298 299 297 297 297 297 297 296 295 294 294 293 293 292 291 290
291 290 289 289 288 287 286 288 287 286 285 281 285 281 280 281 290 291 290 290 289 288 288 288 289 290 290 291 292 293 294 295 295 295 297 298 298 298 298 297 297 297 296 295 296 295 294 293 292 292 291 291 290 289
291 290 289 288 287 282 285 285 285 284 284 280 284 278 278 284 289 286 287 286 288 287 286 286 285 287 288 290 290 290 291 293 293 294 295 296 296 296 295 296 296 295 295 295 293 293 293 292 291 291 290 290 289 290
290 288 286 280 283 279 277 275 272 277 279 273 284 280 276 284 283 276 282 283 287 287 285 284 283 283 283 285 286 287 289 289 291 292 292 293 294 293 293 293 293 293 294 293 292 291 291 292 291 290 290 290 290 289
285 285 282 281 276 278 278 277 275 276 275 277 279 280 282 279 282 284 279 287 287 285 284 283 282 282 283 283 283 285 287 288 288 290 291 292 292 293 294 292 291 289 290 291 292 292 291 292 291 290 289 289 289 288
284 283 284 284 284 283 281 282 282 277 277 278 274 276 274 280 277 280 287 288 286 284 283 282 282 281 281 283 284 284 285 286 286 288 289 290 291 290 291 293 292 291 290 290 292 293 294 291 290 289 289 288 287 286
288 285 281 284 284 283 276 276 275 277 277 281 280 277 278 280 282 287 287 285 284 283 282 282 281 281 281 282 282 282 283 285 285 286 287 288 287 288 289 290 291 292 293 293 292 293 293 292 290 290 288 287 285 283
286 285 285 277 279 279 279 279 278 283 284 284 279 278 279 286 287 286 286 284 282 282 282 281 282 280 280 280 281 282 282 283 283 284 285 286 285 286 286 288 289 290 292 291 291 293 291 290 289 290 289 286 284 282
285 285 282 277 278 279 282 283 283 283 283 284 283 283 284 286 286 285 284 283 282 282 281 280 280 280 280 279 280 280 281 282 282 283 284 285 285 285 285 287 288 289 290 290 289 288 288 289 289 286 284 283 282 282
284 284 282 281 276 280 281 281 281 281 281 282 282 281 282 283 284 284 284 282 282 281 281 281 280 279 279 280 280 280 281 282 282 282 283 284 284 285 285 287 289 289 290 291 290 289 288 287 285 283 282 282 282 281
283 283 277 276 275 278 279 280 280 280 280 280 281 280 280 280 281 283 283 282 282 282 281 281 280 280 281 281 281 281 282 283 283 283 283 283 284 284 286 288 289 290 289 289 289 288 287 284 282 282 282 281 281 279
279 280 278 277 275 275 277 278 277 277 277 277 279 278 278 279 278 282 282 282 282 282 282 280 279 279 280 280 281 282 282 282 282 281 283 284 285 286 287 287 288 288 289 288 286 283 282 282 282 281 281 280 279 279

GFSWCAN_850_thetae_012.txt.gz
Theta_e
293 294 296 297 293 293 290 291 294 292 291 292 295 294 293 291 291 295 297 301 301 303 310 309 309 311 311 312 313 311 312 312 313 313 315 315 316 315 316 315 317 317 318 317 317 316 321 312 314 317 315 312 309 311
293 292 295 297 293 295 290 290 293 289 289 290 293 293 291 292 292 293 297 299 301 301 310 310 311 311 311 311 311 311 313 312 312 313 314 314 315 315 315 318 312 317 317 318 318 319 314 312 314 312 309 309 309 310
292 292 296 297 295 295 293 293 294 293 290 291 293 293 294 293 291 291 292 296 302 304 310 311 311 311 312 312 312 313 311 312 312 312 313 313 315 313 318 317 315 314 312 317 317 317 315 314 312 310 309 307 307 308
292 292 294 296 295 294 297 295 294 294 294 294 293 293 293 294 294 293 291 293 296 301 307 310 311 311 312 312 312 312 312 311 312 312 312 312 314 313 317 314 315 316 313 317 317 316 315 312 310 309 308 306 306 308
292 292 293 296 295 292 295 296 296 295 294 294 294 294 293 294 294 293 291 295 299 301 306 311 311 311 311 311 312 312 311 311 311 312 312 313 314 310 311 311 315 313 318 318 319 315 315 313 309 308 307 306 304 306
292 292 294 296 294 293 296 296 295 295 294 294 294 293 293 293 294 294 300 299 301 301 302 312 311 311 311 312 311 311 311 311 311 311 312 312 313 312 317 318 315 313 313 314 317 313 311 309 308 308 307 306 304 306
292 291 294 295 295 292 294 295 295 294 295 293 293 293 293 294 294 294 298 300 300 303 303 310 309 311 311 310 310 310 310 310 311 311 311 312 313 313 314 317 316 315 314 313 312 313 309 309 308 307 308 306 305 305
292 291 293 295 295 292 293 294 295 294 293 293 293 293 296 296 295 294 291 294 301 302 306 309 310 309 310 311 311 310 311 311 311 311 312 313 312 312 316 316 316 315 313 313 312 310 310 310 308 306 306 306 305 305
292 291 292 295 295 290 291 294 295 292 292 292 293 296 297 296 296 297 297 299 300 302 307 309 310 312 311 311 311 312 312 314 312 313 313 312 314 314 316 316 315 315 313 312 309 308 309 308 307 306 305 305 306 305
292 291 292 296 294 290 290 294 292 292 290 293 296 297 297 296 297 298 300 301 303 305 307 310 308 311 309 311 312 311 310 313 312 312 309 310 313 314 314 314 315 314 313 311 307 305 306 305 305 305 306 306 306 305
292 291 292 295 291 290 290 293 290 289 290 293 294 295 297 299 300 300 300 303 306 308 309 309 308 309 309 311 313 309 311 307 313 311 311 314 315 312 310 309 310 313 314 312 310 310 310 310 307 305 305 304 304 301
292 291 291 295 290 290 290 289 289 288 290 293 294 295 297 299 300 302 303 305 307 309 308 309 308 307 308 309 310 307 309 308 313 304 309 313 312 308 306 306 308 310 313 313 309 308 308 308 308 306 305 304 301 300
291 291 292 295 290 290 290 289 289 290 294 294 294 295 297 299 304 304 304 306 308 302 304 306 307 307 307 307 306 306 309 311 303 308 310 311 307 305 303 304 307 309 311 310 309 308 307 307 307 307 306 302 300 300
291 291 293 294 290 290 290 289 289 294 294 293 294 296 300 301 301 301 301 301 301 301 302 305 305 305 305 306 305 309 307 305 308 309 310 308 304 302 303 304 306 306 307 308 308 308 307 306 305 305 303 301 300 300
291 292 295 292 290 290 290 289 290 294 293 294 294 297 298 297 298 299 298 299 300 301 302 304 304 304 304 305 303 306 307 308 308 310 308 303 302 303 304 305 306 305 305 306 307 306 305 305 305 303 301 300 300 299
291 294 294 290 290 290 290 289 292 293 293 294 294 296 296 295 295 296 296 297 300 301 304 304 304 306 308 306 305 307 307 309 310 306 304 303 303 303 304 305 305 305 305 305 304 304 304 304 304 302 300 300 298 297
294 295 293 291 291 290 289 290 293 293 292 294 296 295 296 294 293 295 295 296 297 300 303 302 306 310 300 304 304 303 306 306 299 300 300 301 302 303 304 305 305 305 304 304 304 302 302 302 301 300 299 297 296 294
294 295 294 292 291 290 289 290 292 292 292 294 294 294 294 293 293 294 295 295 295 297 299 302 298 303 304 305 305 298 296 295 297 297 299 300 300 301 302 304 304 304 302 302 302 302 301 300 299 299 297 296 294 293
296 296 293 292 291 289 288 290 291 290 290 291 292 291 291 291 291 292 293 294 294 295 297 298 302 303 302 297 296 294 293 293 293 296 298 299 299 300 300 302 302 303 302 301 300 300 299 298 298 297 295 294 294 293
295 295 294 292 290 289 288 289 289 289 289 290 289 289 289 288 289 291 292 294 294 295 297 300 300 296 294 292 291 291 292 294 294 296 298 298 298 299 299 299 301 301 300 299 298 299 298 297 296 295 295 294 294 293
295 294 293 291 289 289 288 288 288 288 288 288 288 287 286 287 287 288 293 293 293 295 298 293 292 292 292 293 292 293 293 293 296 295 296 296 296 297 298 297 297 298 299 298 298 296 296 296 295 294 295 294 293 293
294 292 290 289 289 288 289 287 288 287 287 286 286 284 285 287 288 288 289 290 292 292 292 291 291 291 291 291 292 292 293 293 294 297 296 297 296 295 297 297 296 297 298 298 297 297 296 295 295 296 295 293 292 291
292 291 290 289 288 287 286 288 287 285 285 283 283 283 284 285 288 289 288 290 291 291 290 288 287 287 287 288 289 290 290 291 292 294 296 296 298 295 294 295 296 296 296 295 296 295 295 294 295 297 293 292 291 290
290 289 289 288 287 283 284 284 284 283 282 283 285 285 282 283 285 285 290 287 290 289 288 287 287 287 286 286 287 287 288 288 290 292 293 294 299 297 293 293 294 294 294 295 295 294 293 293 294 292 292 291 290 289
290 288 287 281 283 283 281 280 278 281 281 278 285 282 282 283 287 285 287 286 289 289 288 287 286 285 284 285 286 286 286 286 286 288 291 291 292 296 294 291 292 292 293 293 292 292 292 291 291 292 291 290 290 289
289 285 283 284 281 284 282 282 279 281 279 281 280 279 281 283 283 285 284 289 289 290 289 288 285 285 285 284 284 284 284 285 285 286 288 289 289 291 293 291 291 290 290 290 293 291 292 290 291 291 290 289 289 290
288 284 284 283 284 282 282 281 282 280 279 280 280 280 280 281 282 283 289 290 290 288 286 285 284 284 284 284 284 283 283 283 284 285 286 288 287 288 291 291 291 291 291 290 289 290 292 291 290 289 289 288 289 289
289 286 285 284 283 282 280 279 279 280 281 281 281 280 281 282 285 289 289 287 286 286 285 284 283 283 282 282 282 282 282 282 283 284 285 286 287 287 288 289 289 288 289 289 289 290 291 292 292 289 289 289 287 286
286 285 285 278 279 280 280 281 281 284 284 284 282 282 281 286 287 287 287 286 286 285 285 284 284 282 282 281 281 280 280 281 281 281 282 284 286 286 286 288 287 286 288 288 289 291 291 293 290 289 289 287 285 285
285 285 282 278 280 282 283 284 283 283 283 284 284 284 285 286 287 286 286 286 285 284 283 283 282 281 281 280 281 281 280 280 281 281 281 283 285 285 285 285 286 285 286 287 288 288 289 288 289 288 286 288 287 282
285 284 282 281 279 280 281 281 282 282 282 282 283 282 283 284 285 285 285 285 284 284 283 282 282 281 280 280 280 280 281 281 282 282 282 282 283 284 284 284 284 284 285 286 288 288 288 288 287 288 288 285 282 282
283 284 279 278 276 278 279 280 281 281 280 280 281 281 281 281 282 285 284 284 284 283 282 281 281 281 281 281 281 281 281 281 282 282 282 282 282 283 282 282 283 284 285 287 289 289 288 288 288 286 283 282 281 281
278 280 278 277 275 275 277 279 277 277 278 278 279 278 278 280 280 283 284 284 283 283 282 281 280 279 279 279 280 280 280 281 281 281 282 282 282 282 282 282 283 285 287 288 287 287 288 288 285 282 282 281 280 280

GFSWCAN_850_thetae_015.txt.gz
Theta_e
294 295 295 296 297 297 296 295 295 294 290 289 290 289 294 294 292 291 296 300 300 301 307 310 310 311 312 312 314 313 314 313 314 315 315 315 316 316 316 316 317 317 317 316 315 318 320 315 316 319 317 314 313 312
295 294 295 295 296 297 294 297 295 295 294 290 292 294 294 294 294 295 295 293 296 299 305 310 311 311 312 313 314 312 314 313 313 313 314 314 316 315 316 318 315 318 317 319 318 320 318 316 315 315 313 312 312 311
293 294 292 295 296 297 295 297 297 295 295 294 294 294 294 294 294 294 295 294 295 300 306 311 311 311 310 311 311 313 313 313 313 313 313 314 316 315 318 317 317 316 316 317 318 319 318 317 315 312 309 309 309 310
293 293 293 295 296 296 295 295 295 295 295 295 295 295 294 294 293 294 295 295 293 299 303 311 311 311 311 311 311 312 313 312 312 312 312 312 313 313 316 316 317 318 315 318 319 318 318 315 312 310 308 307 307 308
293 292 292 295 295 296 295 293 295 295 294 294 294 294 294 294 293 294 294 295 293 298 303 310 310 311 311 311 311 311 312 313 312 312 312 313 312 313 313 314 315 316 317 319 319 318 317 315 310 308 308 306 305 304
294 293 292 292 295 297 295 294 294 294 294 294 294 294 294 293 293 294 297 298 299 299 300 312 310 311 311 311 311 311 311 312 311 312 312 312 312 313 315 316 315 315 315 316 317 313 312 310 309 308 306 305 304 304
299 295 292 292 295 296 296 294 294 294 293 294 292 293 294 294 294 295 297 298 298 299 301 309 311 310 311 311 311 310 311 311 311 311 311 312 312 313 314 315 315 316 316 315 314 312 312 310 310 308 306 304 304 303
297 299 292 292 295 296 295 293 294 293 293 292 293 293 295 296 295 295 294 295 297 300 301 309 311 311 310 311 311 310 311 311 311 312 311 312 312 313 315 314 314 315 315 315 313 311 311 310 308 306 306 304 304 302
297 299 296 292 294 296 294 294 294 291 289 293 295 296 296 295 297 297 296 296 299 300 303 310 312 313 310 311 312 311 312 314 312 313 313 312 314 315 314 315 316 316 314 315 311 309 309 308 306 306 305 302 303 301
297 298 297 291 293 296 292 292 291 289 289 295 296 297 297 296 297 297 297 300 300 302 304 310 309 312 311 311 312 313 312 313 314 314 310 312 313 313 313 314 314 314 312 312 308 305 306 305 305 305 304 303 302 303
296 297 298 292 292 296 292 293 290 289 292 294 295 296 297 298 299 299 300 300 303 307 308 310 310 311 309 312 313 311 312 309 314 312 312 315 315 314 310 308 307 307 311 312 312 310 310 309 308 306 303 302 303 304
297 297 297 291 293 295 293 291 290 289 291 295 294 296 298 299 299 302 304 302 307 310 309 310 310 309 309 309 312 309 311 310 313 307 310 312 314 309 307 304 306 308 308 308 311 310 309 308 308 306 304 304 304 302
297 297 295 292 295 295 291 290 289 290 294 294 294 295 297 300 304 306 306 306 307 302 302 305 308 308 308 308 309 309 310 311 306 310 311 312 311 306 303 303 305 307 307 306 308 309 308 307 306 306 306 305 304 300
297 297 294 292 295 295 291 290 289 293 294 294 295 300 300 303 301 301 301 302 300 301 301 303 305 307 306 309 309 310 309 307 309 310 312 313 305 302 302 303 305 305 306 305 306 307 307 306 304 304 305 306 302 299
297 297 292 292 296 293 291 290 290 294 294 295 295 300 299 298 298 298 298 299 300 300 301 304 305 305 306 307 307 307 308 309 309 312 312 304 300 300 301 302 304 304 305 306 305 305 305 305 304 303 303 301 300 300
296 296 293 294 292 291 291 290 291 293 293 294 294 297 297 297 299 298 297 298 299 299 302 303 304 308 308 309 306 308 308 311 311 304 300 299 299 300 300 301 302 303 303 304 304 304 303 303 303 302 300 299 299 299
296 294 295 293 292 291 291 289 292 292 293 294 296 296 297 295 296 297 296 297 297 300 303 302 306 309 303 307 307 308 309 305 299 298 297 298 298 299 300 301 302 302 301 302 303 302 302 302 302 301 299 298 298 298
295 295 294 295 293 291 289 290 291 292 293 294 295 296 295 294 294 295 296 296 296 297 298 301 298 304 306 307 308 303 299 296 296 296 297 297 298 299 299 300 301 301 300 300 301 301 301 301 300 299 299 299 298 296
295 294 295 294 293 291 289 289 290 291 292 293 293 293 292 292 292 292 292 293 294 295 296 298 302 304 305 299 297 295 294 293 293 294 296 297 298 298 298 298 299 301 299 299 299 300 299 298 299 299 299 298 296 294
294 295 296 295 293 290 289 289 289 290 291 291 290 290 290 291 289 289 290 293 294 295 297 297 301 295 294 293 293 293 292 292 292 293 295 297 296 297 298 298 297 298 299 297 296 297 298 297 297 298 297 296 295 293
293 295 295 294 292 290 289 288 288 289 289 290 289 288 288 288 288 289 291 292 294 294 296 298 295 294 294 293 292 291 292 292 291 291 293 293 295 296 297 298 298 297 297 296 296 296 296 297 297 295 295 294 294 296
295 294 293 292 289 289 288 287 288 287 287 287 287 286 287 289 290 289 289 290 292 294 294 292 293 292 291 289 289 289 289 290 291 291 292 293 294 295 295 296 297 297 295 295 295 295 296 296 295 294 294 293 294 295
294 293 291 289 288 287 286 287 287 286 289 287 284 287 288 288 288 288 288 290 292 292 292 292 291 288 287 287 287 287 287 288 288 288 289 290 291 293 295 295 295 297 297 294 294 294 294 294 293 292 292 294 295 292
292 290 290 288 288 287 284 285 285 285 285 287 288 288 287 287 285 288 290 291 290 290 291 290 288 288 287 286 286 286 286 286 287 287 288 288 290 291 292 293 294 295 296 296 293 293 293 293 293 292 292 295 292 291
291 289 287 286 283 284 286 285 284 286 288 285 287 287 286 284 289 289 289 290 289 290 290 290 289 288 286 286 286 286 286 285 285 286 286 286 287 289 290 291 292 291 293 295 293 291 290 290 291 291 293 293 291 290
291 288 286 288 285 286 287 286 284 286 286 285 285 282 282 287 287 288 289 289 290 290 291 290 290 287 286 285 285 286 285 284 283 284 286 285 286 286 287 288 289 291 292 292 294 291 290 289 290 291 293 291 290 290
291 288 284 284 285 283 284 283 284 285 285 285 285 283 286 286 287 289 288 289 290 291 289 288 286 285 285 285 285 285 284 283 283 283 283 284 285 285 286 286 287 289 290 290 292 290 290 288 289 292 291 289 289 289
290 287 286 284 284 283 284 284 285 285 286 284 285 284 285 287 288 288 289 289 289 287 286 286 285 285 285 285 284 283 283 282 282 282 282 283 285 286 286 287 287 288 288 288 289 289 287 288 289 291 291 289 288 288
288 286 286 283 282 282 284 286 286 285 285 284 287 287 286 286 287 288 287 287 287 286 286 285 285 284 284 284 283 282 282 281 280 281 280 281 282 284 285 286 287 287 287 286 286 288 287 287 289 292 290 289 288 287
287 285 285 282 283 285 285 284 283 283 283 284 284 285 285 286 287 287 287 286 286 285 285 284 284 283 283 282 283 283 282 281 280 280 280 280 281 283 284 285 285 286 286 285 284 285 284 286 288 289 288 287 286 284
285 285 283 284 284 281 282 282 282 282 282 283 283 283 283 284 286 286 286 286 285 285 285 285 284 283 282 281 281 280 282 282 281 280 280 280 281 282 283 283 284 284 284 283 283 283 284 285 287 287 286 286 284 287
283 284 283 283 281 279 280 280 281 281 280 281 281 281 281 282 282 285 285 285 285 285 284 284 283 282 280 279 279 279 279 280 281 281 281 281 282 282 282 282 282 283 283 283 283 285 285 286 287 287 286 286 287 284
279 280 279 278 277 277 277 279 278 278 278 278 278 278 279 280 281 284 285 285 285 285 284 284 282 281 279 279 278 279 279 280 281 282 282 282 282 282 282 281 282 282 282 283 283 286 286 287 286 285 286 285 283 281

GFSWCAN_850_thetae_018.txt.gz
Theta_e
295 293 296 296 295 297 298 297 297 297 295 295 295 295 295 294 292 293 294 297 297 299 304 308 310 311 311 311 313 313 313 313 313 315 315 316 316 316 315 315 315 315 316 316 315 317 315 315 315 318 315 314 313 312
297 293 296 296 294 296 298 297 296 296 296 296 295 294 295 295 294 294 295 295 294 296 301 306 309 311 312 312 313 313 314 313 314 313 312 314 313 314 314 316 314 316 315 318 314 315 314 317 316 316 314 312 311 311
296 293 293 295 294 296 297 297 295 296 296 295 295 295 295 295 295 293 294 294 295 297 301 305 310 310 311 312 312 313 313 313 313 313 312 313 313 314 317 315 316 314 314 315 316 317 316 317 316 313 311 309 309 310
296 296 294 293 293 296 295 297 296 294 295 295 295 294 295 295 295 294 292 294 296 294 298 308 311 311 310 310 310 311 313 312 312 312 312 312 313 312 315 314 314 315 315 315 315 315 316 313 311 310 309 308 309 308
298 295 294 293 294 295 295 297 296 294 294 294 294 294 294 294 295 293 292 293 294 295 300 304 310 311 311 311 311 311 312 312 312 312 313 312 311 312 312 312 312 312 314 315 316 316 316 311 311 309 308 306 306 306
297 296 299 298 293 294 295 297 296 294 294 294 294 295 293 293 293 293 294 296 298 294 298 305 310 311 311 311 311 311 312 313 312 312 312 312 311 311 313 313 312 314 313 314 314 315 313 312 311 308 307 305 304 304
295 296 299 298 296 292 295 296 296 295 294 295 293 294 294 294 293 293 294 296 297 296 297 303 311 310 311 311 312 311 311 311 311 312 311 312 312 312 313 314 312 313 314 314 315 314 313 312 310 308 307 305 304 302
296 297 297 298 297 292 295 296 295 294 294 291 293 296 296 296 295 294 294 294 296 297 299 304 310 311 310 311 311 310 311 311 311 312 312 311 312 312 314 311 313 313 313 314 314 314 312 311 310 308 306 305 304 302
295 296 297 297 298 293 294 296 293 295 290 290 295 296 296 295 295 295 296 296 297 297 299 307 309 311 310 311 312 310 311 313 312 312 312 312 313 313 313 312 314 315 315 314 313 312 311 309 308 307 305 303 304 302
296 296 297 297 297 294 294 296 294 291 289 295 296 297 297 298 296 297 297 298 298 299 301 307 310 311 310 311 311 312 312 312 311 312 310 311 312 312 312 313 313 313 314 314 311 309 308 306 306 306 304 303 304 304
297 296 297 297 297 293 294 295 291 290 291 296 296 296 296 296 298 299 299 300 300 305 306 309 310 311 310 311 312 310 309 307 313 310 310 312 314 311 308 306 304 305 307 310 311 311 311 310 308 306 304 303 304 305
297 297 297 297 297 293 295 294 291 290 292 295 295 296 298 299 299 300 303 302 304 308 307 310 309 309 309 310 310 309 308 307 311 306 309 311 310 304 301 302 303 304 306 308 310 310 309 309 308 307 304 303 304 305
298 297 296 297 296 293 296 294 290 289 293 295 295 295 297 300 302 304 305 307 306 302 302 305 306 308 308 309 308 307 309 310 305 308 310 304 303 300 300 301 302 303 304 306 307 308 307 308 306 305 304 303 304 303
298 297 297 296 296 293 296 294 290 291 294 294 294 296 299 301 301 301 301 301 300 301 302 304 306 307 306 306 306 308 308 305 308 309 306 304 300 299 299 300 301 302 302 303 305 306 305 307 306 305 304 306 305 302
297 296 296 296 296 294 295 291 290 292 294 294 294 299 299 298 299 298 298 299 299 300 301 304 305 305 304 306 306 306 307 307 308 305 304 300 298 298 298 299 300 302 302 302 303 304 305 304 305 306 304 304 303 300
297 296 296 296 295 293 291 291 289 292 293 293 294 296 297 297 298 297 297 299 299 300 301 303 304 306 307 306 306 307 308 308 305 297 299 297 296 296 296 298 299 300 301 302 301 301 302 302 302 302 301 301 300 298
296 296 296 295 293 293 292 291 291 292 293 293 295 295 297 296 297 297 297 297 297 300 302 301 306 308 302 306 305 304 306 301 296 296 296 296 296 296 297 297 298 300 300 300 301 300 300 300 300 300 300 298 297 297
296 296 296 294 295 294 291 289 291 292 293 293 294 296 295 295 295 295 296 296 296 297 298 300 297 303 306 307 306 298 296 296 296 295 296 297 296 297 297 297 298 299 299 299 300 300 299 299 299 298 298 297 296 296
296 296 295 295 295 293 289 289 290 292 292 293 293 293 293 293 293 294 293 294 295 295 296 298 300 302 302 297 296 295 294 293 293 292 295 297 296 297 298 299 298 297 299 299 298 298 298 297 297 297 297 296 296 296
296 296 295 295 294 291 289 289 289 290 291 291 291 291 291 291 290 290 290 291 294 294 294 295 299 298 297 296 295 294 292 291 290 291 293 294 294 296 297 298 297 297 297 298 298 297 298 297 296 296 295 295 296 296
295 295 294 294 294 292 289 288 288 289 290 290 290 289 289 288 288 289 290 291 293 294 287 295 297 296 297 296 293 292 290 289 289 288 289 291 291 291 294 295 296 296 295 296 297 296 295 295 296 295 294 295 295 294
294 294 294 293 292 290 288 288 289 288 287 288 288 287 288 289 289 288 289 289 291 293 294 295 295 294 293 290 288 287 287 287 287 288 288 288 289 290 291 292 293 295 295 295 295 296 297 295 293 293 293 293 293 293
294 293 292 291 290 289 288 287 287 287 289 287 285 285 285 288 288 286 287 289 291 292 293 293 293 293 290 288 288 287 287 287 287 287 287 287 287 288 289 290 292 293 294 295 294 293 295 295 293 292 292 292 292 292
293 292 291 290 289 289 285 286 286 286 286 286 285 284 283 287 286 286 285 291 291 290 291 292 292 292 290 290 289 287 286 286 286 287 286 285 286 287 287 288 289 291 292 293 293 292 293 293 294 290 290 291 291 292
293 290 290 287 286 285 286 285 286 286 286 285 283 283 281 285 282 282 284 289 290 290 290 291 291 291 291 290 287 286 286 286 286 286 287 285 285 285 286 286 288 289 290 291 291 291 291 291 292 292 289 289 290 293
292 289 287 287 284 286 287 286 284 284 285 282 282 283 284 281 282 282 284 288 289 289 289 290 289 290 289 288 287 286 285 285 284 285 286 285 284 283 283 283 285 287 288 289 289 289 289 289 290 291 289 288 289 294
292 288 286 286 286 285 285 284 286 284 282 282 281 280 279 281 280 283 288 288 289 290 290 290 289 289 287 286 285 285 284 284 284 284 284 284 284 283 283 283 284 286 286 287 288 288 288 288 288 288 289 288 289 293
291 288 285 284 284 284 284 283 282 282 282 286 284 281 281 282 284 288 288 289 289 289 290 289 287 286 286 285 284 284 284 284 283 283 283 283 283 283 283 284 285 286 286 287 287 287 287 287 287 287 287 289 291 291
288 287 286 284 283 283 284 284 283 286 286 285 282 282 283 287 287 288 288 288 287 287 287 286 286 285 285 284 284 284 283 283 281 281 281 282 282 283 282 283 284 285 285 286 286 287 286 286 286 286 287 289 291 291
287 287 285 283 283 284 284 285 284 284 284 284 285 285 285 286 287 287 287 287 287 287 286 285 285 285 285 284 284 284 283 282 281 280 280 281 281 281 281 281 283 284 285 285 285 285 285 284 283 284 286 287 289 287
287 286 285 285 283 282 283 283 283 283 283 283 283 283 284 285 286 288 288 288 287 286 286 285 285 285 284 283 282 281 281 281 280 279 279 280 280 281 281 282 282 283 284 284 284 284 283 282 283 283 285 287 287 285
285 286 284 282 278 280 281 281 281 281 281 281 282 282 282 283 284 287 287 286 286 286 285 286 285 284 283 282 280 279 278 279 279 280 280 280 281 281 281 282 282 282 283 283 283 282 282 282 282 283 285 286 286 283
281 282 281 280 278 277 279 280 279 279 279 279 279 279 280 281 282 286 286 286 285 285 285 285 284 284 283 281 279 279 279 279 279 279 280 281 281 282 282 282 281 282 282 283 282 282 282 282 283 285 286 284 283 285

GFSWCAN_850_thetae_021.txt.gz
Theta_e
297 299 297 297 294 293 296 297 298 296 294 296 296 295 295 295 294 293 292 295 295 298 303 305 306 307 311 311 312 312 311 311 311 312 313 312 313 313 313 313 314 314 315 315 315 316 313 311 313 317 314 313 312 311
298 298 297 294 295 296 296 296 299 297 294 295 296 295 295 295 295 294 293 293 294 295 297 302 305 307 309 312 312 312 313 311 311 310 309 311 312 311 312 314 312 315 312 314 312 312 309 314 315 315 313 312 310 310
298 298 296 296 296 294 295 296 297 297 296 294 295 295 295 294 294 294 294 293 295 294 295 298 304 308 310 311 312 313 313 313 313 312 309 311 313 311 313 312 314 314 313 315 315 313 313 315 313 312 311 309 308 310
298 298 297 297 295 295 294 296 295 297 296 295 295 294 294 295 294 294 295 294 293 295 295 300 307 310 310 310 311 311 312 312 312 312 311 312 312 311 311 311 312 312 312 314 312 313 313 312 312 311 309 308 309 308
298 298 297 296 298 297 295 295 295 298 296 295 295 294 294 294 294 293 293 293 292 294 297 297 303 310 311 310 310 310 311 312 312 311 311 311 311 311 310 310 311 310 310 313 313 314 314 312 312 310 308 307 307 307
298 298 297 297 298 298 297 293 295 297 296 293 294 295 294 295 295 295 293 295 294 293 294 300 306 310 311 310 310 311 312 313 312 312 312 312 312 311 312 313 311 312 312 312 312 313 314 313 312 310 308 306 305 304
297 298 297 297 297 297 298 294 294 297 296 295 295 294 295 296 295 295 293 295 296 296 296 299 306 310 311 311 311 311 312 312 312 312 311 311 312 312 313 313 310 311 312 312 312 312 312 312 311 310 308 305 304 303
298 297 297 297 297 297 297 292 295 296 294 292 293 295 295 296 294 294 293 293 295 295 296 300 308 310 311 311 311 311 311 311 311 312 311 311 311 311 313 310 312 312 314 314 314 315 313 313 311 309 306 305 303 302
298 297 296 296 296 297 297 292 295 295 290 290 295 296 296 295 295 295 295 294 295 296 297 301 308 311 310 311 311 310 311 311 310 311 311 311 312 312 312 311 310 307 307 311 313 313 311 310 309 308 306 303 303 303
298 298 296 296 297 297 296 292 296 293 290 295 295 296 296 295 296 296 297 296 296 297 297 302 309 309 310 311 310 311 311 311 312 312 310 311 312 311 304 302 302 303 303 305 308 311 311 308 307 307 305 304 304 305
298 297 297 296 296 296 296 294 296 292 290 294 295 295 296 296 296 298 298 298 300 302 303 307 309 309 309 310 310 310 308 306 312 310 310 308 313 304 301 301 303 303 304 305 305 307 309 310 309 307 304 303 303 303
298 297 297 296 297 296 295 294 296 291 290 292 294 294 297 297 298 300 301 302 303 306 306 308 307 309 309 310 309 308 307 306 310 306 308 309 306 300 299 299 301 302 303 305 307 309 309 310 309 307 305 303 303 303
298 298 298 296 296 296 296 295 296 291 291 294 294 294 296 299 301 302 304 306 306 301 302 305 305 308 308 309 306 306 308 309 304 308 309 305 300 299 298 297 299 301 302 304 305 307 308 307 307 305 304 303 303 303
299 298 298 297 296 296 296 294 292 290 293 294 294 296 297 300 300 300 301 301 300 300 301 303 305 305 306 304 306 308 307 305 307 308 306 300 298 297 297 297 298 299 301 303 302 304 305 306 307 305 304 304 303 305
299 298 297 296 296 296 296 293 291 290 293 293 294 296 298 298 298 298 298 299 300 300 301 304 304 305 302 304 305 305 306 307 307 306 300 298 297 296 297 297 297 298 299 300 301 302 303 304 305 305 304 303 303 306
299 297 297 296 296 296 293 291 291 291 293 293 293 295 296 296 297 297 297 299 299 301 302 302 303 305 307 305 306 306 306 307 304 295 297 296 296 296 296 297 297 298 299 299 300 300 301 302 302 303 303 302 303 303
298 296 296 296 296 293 293 293 290 292 292 293 293 294 295 296 297 297 296 297 297 300 302 301 305 307 302 305 305 304 305 299 296 296 296 296 296 296 296 298 298 299 299 300 300 300 300 300 300 300 300 300 299 299
297 296 296 296 295 294 293 291 290 292 292 293 294 295 295 296 295 295 296 296 296 298 299 301 298 302 305 307 305 297 296 296 296 296 295 296 296 295 296 297 298 297 298 300 299 299 299 298 298 299 298 298 297 296
298 296 295 296 295 293 290 289 290 291 291 292 293 294 294 294 294 294 295 294 295 295 296 297 299 301 300 298 297 296 296 295 294 293 294 293 295 293 293 295 297 298 297 298 298 298 298 297 296 296 297 297 297 295
297 296 296 295 294 293 290 289 289 290 290 290 291 291 291 291 291 291 292 292 293 292 293 293 297 299 299 298 297 296 294 292 290 290 290 290 290 290 291 292 294 296 297 297 297 297 297 297 296 296 295 295 295 295
295 296 295 294 294 292 291 289 288 289 290 289 290 290 289 289 288 287 288 290 291 293 283 294 296 298 298 297 296 293 291 289 288 287 287 288 288 288 288 288 290 292 294 296 296 295 295 295 295 295 294 293 293 293
296 296 295 294 293 292 291 290 288 289 288 288 288 287 288 287 288 287 289 288 289 292 293 294 295 296 296 295 293 289 288 288 287 287 287 286 287 287 287 287 288 290 292 293 294 295 294 294 293 294 294 293 292 292
295 295 294 293 292 291 289 288 288 287 288 287 286 285 285 287 287 286 285 287 289 291 291 293 294 293 293 291 288 288 287 287 286 286 286 286 287 287 287 287 286 286 288 290 291 294 294 293 292 291 292 292 292 291
295 293 293 292 291 288 286 286 287 287 287 286 286 287 284 286 285 285 286 287 290 290 291 291 292 292 291 291 290 289 287 286 286 286 286 285 286 287 286 287 287 287 286 288 290 292 292 292 291 290 289 290 291 291
293 291 291 286 288 284 282 284 284 286 286 286 286 285 282 284 281 282 284 287 289 290 290 290 290 291 291 291 290 290 288 286 286 286 286 285 285 286 286 286 287 287 286 287 289 290 291 290 289 289 289 288 289 290
292 290 288 284 281 284 285 286 285 286 287 286 285 282 283 280 282 284 283 288 289 289 290 289 289 289 289 289 288 288 288 287 285 285 286 285 285 284 285 285 286 287 286 285 285 288 288 288 288 288 288 287 287 288
290 285 288 288 286 286 286 285 286 286 285 284 283 282 280 283 282 282 288 288 289 289 289 289 289 289 289 289 288 288 287 285 285 284 284 285 285 285 284 284 285 285 284 284 284 285 286 287 287 287 287 287 286 287
290 287 284 285 285 285 285 284 285 285 284 285 283 283 283 282 283 288 288 289 289 289 288 288 288 289 289 288 287 286 285 284 284 285 285 285 285 285 284 284 283 283 283 284 285 285 285 285 286 286 286 286 286 286
288 287 287 283 284 284 284 284 284 285 286 285 283 281 281 286 288 288 288 288 288 288 288 287 287 286 286 286 285 285 285 285 284 284 283 283 284 285 283 282 282 282 282 283 284 284 285 285 286 286 285 285 285 286
287 287 285 284 285 286 285 285 285 285 285 285 285 285 286 287 288 288 287 287 287 288 287 286 286 286 286 285 286 286 285 284 283 281 280 281 282 281 281 281 281 281 281 282 284 285 285 285 284 284 284 284 284 285
287 287 285 285 284 283 284 284 283 283 283 283 284 283 284 285 286 287 289 289 288 288 287 286 285 285 286 286 286 286 285 283 281 280 279 279 279 280 281 281 281 281 281 282 283 284 284 284 283 283 283 283 283 284
286 287 285 283 280 281 281 282 283 282 282 282 283 283 283 283 284 288 288 288 287 287 286 286 285 286 286 285 284 282 281 280 280 279 279 279 279 280 281 281 281 281 282 283 283 283 283 283 283 282 282 282 283 284
282 283 281 280 278 277 279 280 279 279 279 279 279 279 280 282 282 286 286 287 286 286 286 286 286 286 285 284 283 282 281 280 279 279 279 279 279 281 281 281 281 282 282 282 282 283 283 283 282 282 282 282 283 284

GFSWCAN_850_thetae_024.txt.gz
Theta_e
300 299 298 298 298 296 296 296 296 299 297 296 294 296 295 295 295 295 294 294 294 295 296 299 302 306 309 310 310 310 310 310 309 311 310 311 310 310 312 312 313 314 315 316 315 316 314 310 313 317 313 313 313 311
300 299 298 298 296 295 297 296 296 297 299 297 294 295 296 295 295 294 295 294 293 294 293 295 297 302 304 308 310 311 310 310 310 308 307 309 310 309 309 311 309 315 312 312 312 312 310 311 313 314 313 312 310 309
299 299 298 298 297 296 298 296 296 295 298 298 297 295 296 294 295 295 294 295 294 293 293 294 293 301 301 304 309 311 313 312 312 311 307 309 312 310 311 311 312 312 311 314 313 313 310 313 314 312 312 310 309 309
300 299 298 298 297 298 298 298 294 295 297 298 296 294 295 294 294 295 295 294 295 292 294 294 298 302 303 309 309 311 312 312 312 311 309 309 311 310 311 309 311 310 310 313 312 311 313 312 312 312 311 309 309 309
299 299 298 298 298 298 298 298 294 294 297 298 296 294 294 295 294 294 295 294 293 294 293 294 293 297 305 309 310 311 312 312 312 311 309 310 309 309 308 309 310 309 309 310 310 311 313 314 313 313 311 309 308 307
298 298 298 297 298 297 298 297 297 294 295 297 295 294 294 294 295 295 295 294 293 293 293 294 298 301 308 310 310 310 311 311 312 312 312 311 311 311 312 312 310 311 310 310 310 311 312 312 312 313 312 309 307 306
299 298 298 297 297 297 297 297 296 294 296 296 293 293 294 295 295 294 293 294 294 295 294 296 299 304 310 310 311 311 310 312 312 312 311 311 311 311 312 313 309 311 312 312 312 311 311 312 313 311 310 308 306 305
299 298 298 297 297 297 297 297 295 294 296 292 290 294 295 294 293 294 294 294 293 294 295 297 300 310 311 311 310 311 311 312 311 312 311 311 311 311 313 309 310 308 306 309 309 311 312 312 311 310 309 307 305 304
298 298 298 297 297 296 297 297 293 296 294 290 295 295 296 295 295 295 295 294 294 294 296 298 304 309 311 311 310 311 311 311 310 310 310 311 311 313 306 302 302 301 301 302 303 307 309 310 310 309 308 305 304 303
298 298 298 298 297 297 297 297 294 296 292 292 296 296 296 295 294 295 296 295 295 296 295 298 302 310 310 310 310 310 310 312 311 312 311 311 312 305 301 300 300 300 301 302 302 304 308 308 308 309 308 306 304 304
299 298 298 297 297 297 297 296 295 295 290 291 295 295 296 296 296 297 297 297 298 301 298 301 307 309 309 310 311 310 307 306 311 310 311 309 312 302 299 299 299 300 301 302 302 304 305 306 308 309 307 305 303 303
300 299 298 297 297 297 296 296 295 294 290 291 294 294 295 297 297 299 301 301 302 306 305 307 307 308 309 310 308 307 306 305 311 306 308 309 305 299 298 298 299 299 300 302 302 304 307 308 309 308 307 305 304 303
300 299 297 297 297 297 296 296 295 292 290 293 294 294 295 298 298 301 303 305 305 300 301 303 304 307 308 309 306 306 308 309 304 307 308 305 299 297 297 297 298 299 300 303 303 304 305 306 307 306 306 304 302 302
300 299 297 298 297 296 296 295 295 291 291 293 294 296 297 298 300 300 300 300 300 300 301 303 304 304 305 304 305 308 306 305 307 307 307 300 297 296 296 296 297 299 300 301 303 302 303 306 307 307 305 303 302 301
300 299 298 297 297 296 296 295 293 291 291 293 293 294 296 298 298 298 298 299 300 300 301 303 304 305 302 304 305 305 306 307 306 306 301 297 297 297 297 297 296 297 299 301 302 303 302 304 305 306 305 304 302 301
301 300 298 297 296 296 295 294 292 290 292 293 293 293 295 296 297 298 297 298 299 299 301 302 303 305 306 304 306 306 306 306 302 297 297 296 297 297 297 297 297 297 298 299 300 300 301 301 301 302 303 305 305 302
301 299 299 297 296 296 295 294 291 291 292 293 293 294 294 295 296 297 296 297 298 298 301 301 306 304 302 306 305 303 305 300 296 296 296 296 297 296 295 296 298 299 298 298 299 300 300 299 300 300 300 302 302 302
301 301 299 297 296 295 294 293 290 292 292 292 292 294 295 295 296 296 296 295 296 298 298 301 298 302 305 307 303 298 297 297 297 297 295 294 295 295 293 293 294 297 299 299 299 299 299 299 299 298 298 297 298 298
299 300 299 296 296 295 292 289 290 291 291 292 293 293 293 294 294 295 294 294 294 295 296 297 299 300 300 299 296 297 299 299 297 296 294 292 293 292 291 291 292 294 296 297 298 298 298 298 297 297 296 296 296 296
298 299 297 295 295 294 291 289 289 289 289 290 291 291 292 292 291 292 293 293 293 294 292 293 297 299 299 299 300 299 297 296 296 292 290 289 289 289 288 289 289 290 292 294 296 296 296 297 296 296 296 295 295 295
296 296 295 295 294 294 291 289 289 289 290 289 290 290 290 289 289 289 290 290 291 290 284 292 294 296 298 298 297 296 294 293 290 289 288 289 288 288 288 288 288 288 289 290 293 295 295 295 294 294 294 294 294 294
296 296 295 294 294 293 293 290 289 289 288 288 288 288 287 287 287 287 288 289 289 291 291 291 292 292 296 297 296 295 291 289 288 288 287 287 286 286 287 287 288 288 287 287 288 290 293 294 294 294 293 293 292 292
296 294 294 294 293 291 290 289 288 287 285 286 286 284 284 286 287 286 284 287 289 290 291 292 292 293 295 295 294 291 289 289 288 286 286 286 286 286 286 286 286 287 287 288 287 287 289 292 293 293 292 292 291 290
295 294 294 293 293 287 287 286 286 287 287 285 283 284 283 285 285 285 283 286 289 290 290 291 292 293 293 292 292 290 289 288 287 286 286 286 286 286 286 286 286 287 287 287 287 287 288 290 292 293 292 292 291 290
294 292 292 288 288 283 277 280 282 284 284 286 287 287 283 284 282 281 285 288 289 290 290 291 291 291 292 291 290 290 289 290 289 287 287 286 286 286 286 286 287 287 286 286 286 286 287 288 290 291 290 290 290 289
293 291 289 284 279 282 281 282 283 285 287 287 287 284 283 283 282 284 286 288 289 289 290 290 290 289 289 289 288 288 289 288 288 287 287 286 285 284 285 286 287 288 286 285 284 284 285 285 288 289 288 288 288 288
292 287 288 288 288 286 285 286 286 286 287 288 284 282 284 285 284 285 288 289 289 290 289 289 289 289 289 288 288 288 288 288 288 287 286 286 285 285 285 285 286 286 285 284 284 284 284 284 285 287 286 287 287 287
291 287 285 286 285 286 283 283 285 286 286 286 284 283 284 284 287 288 289 289 289 289 289 289 288 288 288 288 289 289 289 287 286 285 286 286 287 286 285 285 284 283 283 283 283 283 284 284 284 285 285 285 286 286
287 286 287 280 283 284 284 285 285 287 287 285 285 285 283 286 288 288 288 288 289 289 288 288 288 288 287 287 286 286 285 285 285 286 287 287 286 285 283 283 282 282 282 282 282 282 281 282 283 284 285 285 285 285
286 287 284 284 285 286 287 286 285 286 285 286 285 285 286 287 288 288 288 288 288 288 288 287 287 287 287 286 286 285 285 286 286 285 284 284 282 282 281 281 280 280 280 280 281 282 282 283 284 285 284 284 284 284
287 287 285 286 285 285 285 285 284 285 284 284 284 283 284 285 287 288 288 289 289 288 289 288 287 287 286 285 286 287 287 285 284 282 281 281 281 280 280 280 280 280 280 280 281 281 283 283 284 285 284 284 284 283
286 286 285 283 280 281 282 283 283 283 282 283 283 283 283 284 285 288 289 289 289 288 288 287 286 286 286 287 287 286 285 284 283 282 281 280 280 279 279 280 280 281 281 281 281 282 283 283 284 284 284 283 283 283
283 283 281 280 278 278 281 282 280 280 280 279 280 280 281 283 283 287 288 288 287 287 286 286 286 287 287 286 285 284 283 282 281 281 280 279 280 281 281 281 281 280 281 281 282 282 283 283 284 284 283 282 282 282

GFSWCAN_850_thetae_027.txt.gz
Theta_e
300 300 300 299 298 298 298 298 297 296 297 300 299 296 295 296 295 295 294 293 293 293 293 296 298 302 304 308 307 309 309 309 307 309 309 309 309 310 310 311 310 314 314 315 313 316 312 311 313 316 312 313 312 311
300 300 300 299 299 298 297 298 297 297 295 297 299 298 297 295 295 295 296 294 294 294 292 292 292 294 298 300 303 308 308 308 309 306 306 307 310 309 308 311 308 315 311 311 310 311 309 311 311 313 312 312 310 308
300 300 300 299 298 297 297 297 298 297 296 296 298 299 297 293 295 295 296 296 294 294 294 293 293 293 293 293 298 302 311 311 310 310 306 306 310 307 309 308 310 310 310 312 311 312 309 312 314 313 313 312 310 309
300 299 299 299 298 298 297 298 298 298 296 295 297 298 297 294 294 295 296 296 295 294 293 293 294 295 298 300 300 302 306 310 311 310 307 306 308 308 309 307 310 309 309 310 310 309 312 313 312 312 312 312 310 309
300 299 299 299 298 298 298 298 298 298 297 295 295 297 296 295 295 294 295 295 295 295 292 293 293 293 293 295 300 307 307 305 311 311 309 310 309 308 306 306 307 307 307 309 309 308 309 311 312 311 312 312 310 309
300 300 299 298 298 297 298 298 298 298 296 294 297 297 294 294 294 294 294 294 293 294 294 292 292 293 296 300 301 308 309 309 311 311 309 311 311 309 310 312 310 310 309 312 309 311 311 312 312 311 311 311 310 309
300 300 299 299 298 298 297 298 297 298 295 295 296 293 293 295 294 295 294 293 294 294 293 294 296 299 300 304 306 309 310 311 311 311 311 311 311 311 311 311 309 310 311 312 308 309 310 312 311 311 311 310 309 308
300 299 299 298 298 297 297 297 297 297 294 296 292 294 295 294 293 293 294 294 293 295 294 295 298 300 305 307 310 311 311 311 310 311 311 310 310 311 312 307 304 303 306 307 306 305 304 308 310 311 310 309 308 307
300 299 298 298 298 298 297 297 297 296 295 294 293 295 296 295 295 295 295 295 295 294 295 297 300 309 309 310 310 310 310 311 309 311 310 310 311 312 304 301 301 301 300 301 303 303 304 306 307 308 308 308 307 305
300 299 298 298 298 297 297 297 297 296 295 290 295 296 296 295 294 295 296 295 295 294 294 296 297 307 310 310 309 310 309 310 308 310 310 309 311 302 300 300 299 299 299 300 299 301 303 305 306 308 308 308 306 305
301 299 299 298 297 297 297 297 296 296 293 290 294 295 295 295 295 297 297 297 297 299 297 297 302 309 309 309 311 309 307 306 310 309 312 310 311 302 300 299 298 299 299 300 300 300 301 302 304 306 308 308 306 304
301 300 299 299 297 297 297 297 296 296 294 291 292 294 294 296 296 297 300 300 301 304 303 304 305 306 309 309 307 307 306 305 309 306 308 309 303 298 298 298 298 299 300 301 301 301 303 304 306 306 307 308 306 304
302 300 299 298 297 297 297 296 296 296 293 293 294 294 294 296 297 299 300 304 305 300 301 302 304 306 308 307 305 304 308 308 303 307 308 305 298 297 297 298 298 298 299 299 301 302 303 304 305 306 306 307 305 304
300 300 299 298 297 297 297 296 295 295 291 293 293 294 296 296 297 294 298 295 300 300 300 301 303 304 304 305 305 308 305 304 307 307 307 298 297 297 298 298 298 298 298 298 299 302 303 304 305 306 307 305 302 301
300 299 300 298 298 297 296 296 295 293 290 292 293 292 291 296 298 298 298 298 299 300 301 302 304 304 302 305 304 304 306 307 306 305 298 297 297 297 297 298 298 298 298 299 299 299 300 301 303 304 305 304 302 300
300 300 300 299 298 296 296 296 295 292 291 292 292 292 294 295 294 297 298 297 298 299 300 301 302 305 307 304 306 307 305 306 300 293 297 297 298 296 296 295 296 297 298 298 299 300 300 300 300 301 302 303 302 301
300 301 300 299 297 296 296 295 293 291 291 292 291 293 293 294 294 296 296 297 297 298 301 300 305 306 301 304 305 304 305 300 297 297 296 297 297 297 296 294 293 295 297 298 298 299 300 300 299 299 300 300 302 303
299 300 299 299 299 296 295 294 292 290 290 292 291 293 294 295 295 296 296 295 296 297 298 301 298 302 305 306 302 295 298 298 299 297 296 295 294 295 294 291 291 292 293 295 297 298 298 298 298 298 298 297 298 300
296 298 299 299 297 295 293 291 291 291 290 291 292 292 293 294 294 295 295 294 294 295 296 296 298 300 301 296 296 299 299 300 299 299 297 295 292 292 290 289 289 289 290 291 293 295 297 296 296 296 296 296 296 296
298 298 297 298 296 295 293 290 289 289 288 290 291 291 292 292 292 292 293 293 293 293 291 293 297 299 299 301 302 302 301 300 299 297 295 291 289 289 288 288 288 288 288 288 289 292 294 295 295 295 295 295 294 294
297 297 296 295 295 295 293 290 289 288 289 289 289 290 290 290 290 290 290 291 292 292 288 293 295 297 299 299 300 300 300 298 297 294 290 289 288 288 287 287 287 287 287 287 287 288 289 291 293 295 294 294 294 293
295 296 296 295 295 294 293 292 289 289 288 288 288 288 288 287 287 288 288 289 290 292 294 294 294 293 293 294 297 298 296 294 291 289 289 288 287 286 286 286 286 286 287 287 287 288 288 287 288 292 294 294 294 293
295 295 295 294 294 293 291 290 289 288 283 286 286 284 285 285 287 286 286 287 289 290 291 292 291 291 292 294 296 296 294 291 289 289 288 287 286 286 286 286 286 286 286 286 287 288 288 288 288 288 292 293 293 293
293 294 294 294 294 289 288 287 287 287 286 283 281 283 283 285 285 284 282 285 289 291 291 291 290 292 293 294 295 294 293 290 289 288 288 286 287 286 286 286 286 286 285 287 287 288 288 288 288 288 289 292 292 291
294 293 292 289 289 284 278 277 278 282 280 282 285 285 283 284 280 279 281 287 289 291 290 290 290 291 293 293 293 292 291 289 289 290 289 288 288 287 287 286 286 286 286 287 287 287 287 286 286 286 287 289 290 290
292 293 289 287 280 283 280 279 279 281 283 284 286 284 283 280 279 282 284 288 289 289 290 290 290 291 291 290 291 290 290 290 290 289 288 288 287 287 286 285 286 289 286 286 286 286 286 286 285 285 286 286 287 287
288 289 290 289 287 286 283 285 286 284 284 286 286 283 283 282 282 284 288 289 289 289 290 290 290 289 289 289 289 288 288 288 288 287 288 288 287 286 285 285 286 286 286 286 285 284 285 285 285 285 285 285 286 286
291 290 285 287 286 285 280 280 281 283 286 288 284 282 284 285 286 288 288 289 289 290 289 289 289 289 289 288 288 288 288 288 288 288 287 286 286 285 285 285 285 285 285 284 284 283 283 283 284 283 284 284 285 286
289 289 288 280 283 284 283 281 283 287 289 288 286 286 285 287 288 289 288 288 289 289 289 289 288 288 288 288 287 287 287 286 285 286 286 286 287 286 284 283 283 283 283 282 282 281 281 281 282 282 282 283 284 285
287 288 286 283 281 281 286 287 288 289 288 288 287 286 286 287 288 288 289 289 289 289 288 288 288 288 287 287 286 286 286 285 285 286 286 286 285 284 284 283 282 281 280 280 281 281 280 280 281 281 282 283 283 284
288 286 285 285 283 287 287 286 285 285 285 285 285 285 285 286 288 289 290 290 289 288 288 288 288 287 287 286 286 286 286 286 286 285 284 284 284 283 282 281 280 280 280 280 280 280 281 281 281 282 282 283 284 284
285 286 283 281 279 282 283 283 284 284 283 284 285 285 284 284 285 289 290 290 289 289 289 288 288 287 287 286 286 287 286 285 285 284 283 283 282 281 280 281 281 280 280 280 281 281 281 281 282 282 283 284 284 284
283 283 282 280 279 279 281 283 282 281 280 280 281 281 282 283 283 288 289 289 288 288 287 287 287 286 286 287 286 286 286 285 284 283 281 281 280 280 281 281 281 281 281 280 280 281 281 282 282 283 283 284 284 283

GFSWCAN_850_thetae_030.txt.gz
Theta_e
299 298 299 300 299 299 298 298 297 298 296 296 297 299 299 297 295 295 295 295 294 293 292 292 295 300 300 304 306 307 308 308 306 308 309 308 307 307 309 310 311 311 311 312 312 312 312 310 312 315 312 311 311 311
299 298 300 300 299 299 298 297 297 297 298 297 296 297 299 298 296 295 296 296 295 294 294 295 295 294 293 293 296 302 307 306 308 305 304 305 309 306 306 310 307 311 308 310 308 309 308 309 312 312 311 312 311 310
298 301 300 300 299 300 298 297 298 298 298 298 295 296 299 298 296 294 296 295 294 294 295 294 294 294 293 294 293 297 306 310 309 309 305 306 308 305 308 307 307 308 309 311 310 311 308 311 312 312 312 311 311 310
299 300 300 300 299 298 298 298 298 298 298 298 297 296 296 297 295 295 295 296 295 294 294 294 294 293 293 295 296 294 299 307 305 309 307 306 307 306 306 306 307 307 309 309 309 308 310 311 311 311 311 311 311 310
300 300 300 300 299 299 298 298 298 298 298 298 297 294 297 297 294 294 294 294 294 295 294 294 294 294 294 293 294 295 294 295 300 310 308 307 307 306 304 305 305 306 306 308 309 307 308 310 311 311 311 311 311 310
300 301 301 300 299 299 298 298 298 298 298 298 294 296 296 294 293 294 294 294 293 293 295 294 293 293 293 293 294 294 297 298 302 310 309 309 309 308 307 310 308 308 308 309 310 311 310 311 312 311 311 311 311 309
301 301 301 300 299 299 298 298 297 297 298 296 296 297 293 294 294 294 294 293 293 293 293 291 293 296 298 294 297 293 298 304 305 309 310 310 311 310 309 310 307 309 309 307 305 306 309 311 308 308 309 309 309 308
301 301 300 300 299 298 298 297 297 297 297 297 295 291 294 295 294 295 293 294 294 293 294 294 295 298 299 301 302 303 302 306 309 310 310 308 310 309 311 308 305 306 307 306 305 304 303 304 305 305 308 309 308 308
302 301 300 299 298 298 298 297 297 297 297 295 292 295 295 295 294 294 295 295 294 294 294 295 296 302 303 302 306 309 309 309 309 310 310 309 307 310 307 304 303 302 301 302 303 303 303 303 303 304 306 306 306 307
301 300 299 298 298 297 297 297 297 297 296 294 292 296 295 295 295 295 296 295 294 294 294 294 296 299 307 309 308 309 309 308 309 309 310 310 309 303 302 301 300 299 300 300 301 302 303 303 303 303 305 306 305 306
301 300 299 298 299 298 297 297 297 296 296 292 291 294 294 294 295 296 297 296 297 298 296 296 298 305 309 309 310 308 307 306 309 308 311 309 309 301 299 299 299 299 300 301 300 300 300 300 301 303 305 306 306 306
302 301 301 299 299 298 297 297 297 296 295 295 291 292 293 295 296 297 298 300 300 303 302 302 303 304 308 309 306 307 306 306 310 307 309 307 302 297 298 298 298 299 300 300 300 302 301 301 302 304 305 306 307 307
300 301 301 299 299 298 297 297 296 296 295 292 293 294 294 296 297 298 298 302 304 300 300 300 301 305 307 307 305 305 307 308 304 308 309 301 297 297 297 297 297 298 299 300 301 301 301 302 303 303 304 305 306 306
301 301 300 300 298 297 298 296 296 295 293 292 293 293 295 296 298 295 297 293 298 298 299 300 301 304 304 304 305 307 305 304 308 307 303 292 297 297 297 297 297 298 298 299 299 300 301 303 305 305 306 306 306 303
300 299 299 299 298 297 297 296 296 295 293 292 292 291 292 295 296 298 298 297 298 298 298 300 302 303 303 304 304 304 306 307 306 304 294 297 297 297 297 296 296 297 297 297 298 298 298 299 300 300 302 303 304 302
299 299 300 299 299 297 296 295 294 294 291 292 292 291 293 293 293 297 297 297 298 297 299 299 301 304 306 303 306 306 305 305 301 293 297 296 296 296 295 294 293 294 296 297 297 298 298 298 298 298 299 301 301 301
298 299 300 299 299 298 296 295 294 291 290 291 291 292 292 293 293 294 296 296 296 297 300 300 304 305 301 304 304 303 304 299 297 297 297 297 297 297 297 294 292 292 292 293 294 296 297 298 298 298 298 297 298 300
295 297 298 299 299 298 296 295 294 291 289 291 290 292 293 294 295 295 295 295 296 296 296 299 296 301 304 303 302 297 299 299 300 299 298 297 296 296 295 291 290 290 290 290 291 293 294 296 297 297 297 297 297 297
295 298 298 298 298 297 296 293 292 290 290 290 291 291 292 293 294 294 294 294 294 294 295 295 297 300 301 295 295 300 300 300 299 298 298 297 295 293 291 290 289 289 289 289 289 290 291 293 294 295 295 296 296 296
297 297 297 297 297 296 295 291 290 289 288 289 290 291 291 292 292 293 293 292 292 293 292 291 293 299 300 301 302 302 302 301 301 299 297 296 293 290 289 289 288 287 287 287 288 288 288 289 289 292 294 295 295 295
296 296 296 296 296 295 295 293 290 289 288 288 289 289 290 290 290 290 290 291 291 292 289 294 295 299 300 300 300 300 301 301 300 299 298 295 291 289 288 287 286 286 286 286 287 287 288 288 288 288 289 293 294 294
296 295 295 295 295 294 293 292 290 289 288 288 287 288 288 287 287 288 288 288 290 292 294 295 296 296 295 295 295 295 298 299 298 296 292 289 289 287 286 286 286 286 286 286 286 287 288 288 288 288 288 288 292 294
294 295 294 295 294 293 291 290 290 289 282 286 286 282 281 285 286 285 285 287 289 291 293 293 294 295 295 294 292 293 296 297 295 292 290 289 287 286 286 286 286 286 286 286 286 287 288 288 288 288 288 288 289 292
293 293 294 294 293 289 288 288 287 286 285 281 277 279 279 284 285 283 283 285 291 292 292 293 291 290 290 291 291 292 295 295 293 290 289 289 288 287 287 287 287 286 286 286 287 288 288 288 287 287 287 287 288 289
292 293 293 289 290 285 280 278 277 282 278 275 278 279 279 284 278 277 283 287 290 292 291 290 290 290 290 291 291 292 294 294 292 290 289 288 288 288 288 288 287 286 286 286 287 288 288 287 287 287 287 286 286 287
291 292 290 288 282 283 283 278 277 278 277 278 279 284 283 276 278 283 283 288 289 289 289 289 290 290 290 290 292 293 292 291 291 290 289 289 289 288 288 287 287 287 285 286 287 287 287 286 286 286 286 286 285 285
290 285 290 290 288 286 282 284 284 279 277 280 278 278 279 281 279 283 289 289 288 289 289 290 290 290 290 290 290 289 289 289 289 288 288 288 287 287 287 287 286 286 286 287 286 286 285 285 285 285 285 285 285 284
290 289 285 286 286 285 279 279 280 281 281 286 284 280 284 283 286 290 289 289 289 289 290 290 290 289 289 289 289 288 288 288 288 288 288 288 288 287 286 285 285 286 285 285 285 284 283 283 283 283 283 284 284 284
289 290 289 279 283 284 284 282 281 286 288 289 282 282 283 288 291 291 293 292 289 289 289 289 289 289 289 289 288 288 288 287 287 286 286 286 286 286 286 286 285 284 284 283 283 282 281 281 281 281 281 281 282 282
288 288 287 283 280 281 288 289 288 289 288 289 289 288 288 290 292 292 291 291 290 289 289 289 288 288 288 288 287 287 287 287 286 286 285 286 286 286 285 284 284 283 282 281 281 281 280 280 280 280 280 280 280 281
289 287 286 284 281 289 290 289 288 287 286 287 287 286 287 288 290 291 292 293 294 293 292 291 289 288 288 287 287 287 287 287 286 286 286 286 285 285 284 283 282 281 281 280 280 280 280 280 280 280 280 280 281 282
286 285 284 280 280 286 286 285 284 284 284 284 285 285 285 285 286 290 292 292 291 291 291 290 288 287 286 286 287 286 286 286 286 286 285 285 284 283 282 281 281 280 281 281 280 280 280 280 280 280 281 281 282 283
284 283 282 281 280 279 281 282 282 282 281 281 283 284 283 284 284 290 290 291 291 290 289 288 288 288 287 286 286 286 287 286 286 285 284 283 282 280 280 281 281 281 281 281 281 280 280 280 281 281 282 282 283 283

GFSWCAN_850_thetae_033.txt.gz
Theta_e
303 303 298 299 301 301 300 299 297 297 298 298 298 297 298 299 298 297 295 295 295 294 294 294 295 298 299 301 307 304 308 308 305 309 311 310 307 306 307 307 310 310 311 312 310 311 310 308 310 315 314 311 311 311
303 302 299 301 300 300 298 300 297 298 299 299 298 298 298 298 297 296 295 294 296 295 295 294 295 294 295 294 293 296 302 304 306 304 303 303 307 304 305 309 305 310 306 308 307 308 306 309 311 312 310 311 311 310
299 298 300 301 300 299 299 298 298 298 299 298 298 298 297 297 298 297 295 295 295 295 295 294 295 295 294 294 295 294 299 306 307 306 303 303 308 304 307 306 306 306 307 309 309 309 307 310 311 311 311 311 310 310
298 298 300 300 300 299 299 299 298 298 298 298 298 298 296 297 298 298 295 295 295 294 294 294 294 294 293 293 293 293 295 302 298 301 305 305 306 305 304 305 306 306 307 307 307 307 309 309 310 311 311 311 311 310
301 299 300 300 301 301 300 299 298 298 298 298 298 297 297 297 297 296 294 294 294 294 294 294 294 294 294 293 294 294 294 293 294 299 309 308 304 304 302 303 304 305 307 309 309 308 309 310 311 311 311 310 311 311
300 300 301 301 301 301 299 299 298 298 298 298 297 297 297 296 293 294 294 293 293 293 294 293 293 293 294 293 293 293 295 295 294 301 308 308 308 306 304 306 306 307 308 308 309 310 310 309 310 310 309 308 309 309
301 301 301 301 301 300 299 298 298 298 298 298 297 297 293 292 295 294 294 293 293 293 293 289 289 294 297 294 294 293 293 296 296 299 307 308 309 308 305 306 307 308 308 309 309 308 307 308 309 308 307 306 309 309
302 302 302 301 300 300 299 298 298 297 298 297 297 293 294 295 295 294 294 293 294 293 294 292 290 295 296 297 297 295 294 294 299 304 308 307 308 307 308 306 306 306 307 307 306 305 304 304 304 304 304 304 307 308
303 303 302 300 299 298 298 298 297 297 297 296 294 292 295 295 294 294 295 295 295 294 293 294 293 297 300 301 301 300 299 302 303 306 309 308 310 310 307 305 305 305 304 303 303 302 302 303 302 303 303 304 305 306
303 302 300 299 299 298 298 297 297 297 296 296 292 295 295 295 294 294 296 295 295 294 293 294 295 298 301 301 304 302 305 305 307 309 309 309 310 304 305 304 303 302 301 301 300 301 302 303 303 303 303 303 304 306
301 301 300 300 299 299 299 297 297 296 296 296 294 292 294 293 294 295 296 296 295 296 295 295 296 299 306 308 308 307 306 305 308 308 309 308 310 301 299 300 300 300 300 300 300 301 301 300 301 302 304 304 304 305
301 301 301 300 300 299 298 297 296 296 295 295 294 293 294 294 296 297 297 299 299 301 301 301 301 300 304 307 306 306 306 305 309 307 309 310 302 297 298 298 298 298 299 300 300 301 301 301 301 302 302 303 304 305
300 300 301 300 299 298 298 297 296 296 295 293 293 294 294 295 297 298 299 300 302 299 299 299 300 301 303 306 304 305 306 308 304 308 308 300 296 296 296 297 297 298 299 299 300 302 302 303 302 302 303 304 305 305
299 300 300 300 299 298 297 297 296 295 294 292 292 291 294 296 298 298 298 296 297 297 297 298 300 303 302 304 305 307 305 304 307 307 302 295 296 296 296 296 297 297 298 298 299 299 300 302 303 303 304 305 305 305
299 298 299 299 298 298 297 296 296 294 293 291 291 291 292 294 295 296 296 296 297 296 296 298 300 301 302 303 304 304 306 306 306 304 293 297 296 296 296 296 297 297 297 298 298 298 299 300 300 300 300 302 303 302
298 299 298 298 298 298 297 297 296 295 291 291 291 289 292 292 293 295 295 296 297 296 296 298 300 303 305 303 306 306 304 304 301 295 298 297 297 296 295 294 294 294 294 294 295 296 297 298 299 299 299 299 300 300
296 298 298 299 299 299 297 297 296 294 291 290 290 292 292 292 292 293 295 296 295 296 298 298 303 304 300 304 302 299 302 301 300 300 298 298 298 297 297 294 292 291 290 290 291 292 293 295 296 297 298 298 297 298
293 294 298 298 298 298 297 295 295 293 291 291 290 292 292 292 293 294 294 295 295 296 295 297 294 299 304 304 303 300 300 300 300 300 299 298 298 297 296 292 290 289 289 289 289 290 291 292 293 294 296 296 296 296
294 295 297 298 297 296 296 294 294 292 291 290 290 290 291 291 292 292 293 294 294 294 294 294 293 297 298 296 296 301 301 300 299 298 297 296 296 295 293 290 289 289 288 288 288 288 288 288 288 289 291 294 295 295
296 296 296 296 296 296 295 293 291 290 289 289 289 290 290 291 292 292 292 292 292 292 291 291 292 296 300 301 301 302 302 301 301 299 298 297 296 294 290 289 288 287 287 287 287 287 287 288 288 288 288 289 292 294
294 296 295 295 295 295 295 294 291 289 288 288 288 289 290 289 289 290 290 290 291 291 289 293 295 297 299 300 300 300 300 301 302 301 301 299 297 294 290 288 287 286 286 286 287 286 287 287 288 288 288 288 288 291
292 294 295 294 295 295 293 293 291 289 288 287 287 287 287 286 288 287 287 287 288 291 292 294 295 295 295 296 296 296 296 296 299 299 298 297 294 290 288 287 286 286 286 286 286 286 286 287 288 288 289 289 288 288
293 293 294 293 293 293 291 290 290 289 282 286 286 282 281 285 286 285 284 286 289 292 293 293 293 293 293 294 294 294 293 293 296 298 297 293 289 288 287 286 286 286 287 286 286 286 287 288 288 288 288 288 288 288
292 293 293 293 292 290 289 288 287 285 283 281 278 279 278 284 284 283 281 285 291 292 290 290 290 290 291 291 291 292 293 293 296 295 293 289 289 288 287 286 287 287 287 287 286 286 287 288 288 288 287 287 287 287
292 291 292 292 290 287 280 278 277 282 280 275 277 278 277 284 277 275 278 286 292 290 288 289 289 289 289 290 290 290 291 293 295 295 292 289 289 288 288 288 288 288 287 287 286 286 287 287 287 287 287 287 287 287
291 291 290 289 285 284 281 278 280 280 278 277 279 282 282 274 276 281 281 290 290 289 289 288 288 289 289 289 289 292 292 293 294 293 291 289 289 288 288 288 288 287 287 287 286 286 287 287 287 286 286 286 285 285
288 286 290 289 288 287 283 283 283 279 276 280 278 276 275 280 280 282 292 291 290 290 290 290 290 290 290 290 290 291 291 290 290 289 289 288 288 288 288 287 287 287 287 286 286 286 287 286 286 285 285 285 285 284
290 289 285 287 287 287 279 278 278 278 280 284 283 279 280 282 286 293 291 292 294 294 291 290 290 290 290 290 289 289 289 288 288 288 288 288 288 288 287 287 286 286 285 285 285 285 285 285 284 283 283 283 284 283
288 287 288 283 284 284 285 282 281 287 288 287 282 281 283 291 293 294 294 293 293 292 294 290 289 289 289 289 289 289 288 288 288 287 287 287 287 287 286 285 286 286 285 285 285 284 283 283 283 282 281 281 281 281
288 288 288 282 280 281 290 289 289 290 290 289 289 289 290 291 292 292 292 292 292 292 293 293 294 291 290 289 289 288 288 287 287 287 287 287 286 286 286 286 285 284 284 284 283 282 281 281 281 281 280 280 279 279
289 287 287 285 282 289 289 289 288 288 287 287 287 286 287 288 289 290 290 291 292 292 293 293 292 291 291 290 289 288 287 287 287 287 286 286 286 286 285 284 284 284 283 282 281 281 281 280 280 280 280 280 280 280
287 286 284 277 281 287 287 286 286 286 286 285 286 286 286 286 285 288 290 291 291 293 293 292 291 291 289 288 286 286 286 286 286 286 286 286 285 285 284 283 282 281 281 280 281 281 281 280 280 280 280 280 280 281
283 283 283 285 285 284 284 284 282 281 281 282 286 285 285 284 285 290 291 291 291 292 292 291 290 289 289 288 287 286 286 286 286 286 285 285 285 284 283 281 280 281 281 280 280 281 280 280 280 280 281 281 281 282

GFSWCAN_850_thetae_036.txt.gz
Theta_e
302 303 301 299 300 300 300 299 299 297 298 298 299 298 298 298 298 297 297 296 294 295 294 294 294 297 297 297 305 303 309 309 309 313 313 312 311 311 311 311 311 312 312 313 312 312 311 309 311 315 315 311 311 312
302 302 301 300 301 300 299 299 298 298 298 298 298 298 298 298 298 298 297 295 294 295 295 295 295 295 295 295 294 295 300 303 309 312 311 312 312 310 312 313 309 312 311 311 311 311 309 310 312 312 311 310 311 311
302 300 298 300 300 300 300 300 299 299 299 298 298 298 298 298 298 298 298 296 295 295 295 295 295 295 294 295 295 295 296 301 303 301 307 310 313 311 313 313 312 310 309 312 311 312 310 309 310 310 311 310 310 310
300 298 298 299 300 300 301 301 299 299 298 298 298 298 298 297 298 298 297 296 294 295 294 295 294 294 293 293 293 294 295 296 296 296 304 310 311 308 312 310 311 311 310 311 312 311 311 310 310 310 310 310 310 310
301 301 301 300 301 302 301 301 300 298 298 298 298 298 297 298 297 296 294 294 294 295 295 294 294 294 294 293 294 293 293 294 294 295 300 309 308 309 307 308 310 309 312 313 314 312 312 311 310 310 310 310 309 310
302 301 300 301 301 302 301 300 299 298 298 298 298 298 298 297 293 294 294 293 293 293 294 294 293 293 293 296 293 293 294 294 294 295 297 301 307 310 312 312 310 308 308 309 310 309 310 310 309 308 309 309 309 308
301 301 301 301 300 300 300 299 298 297 297 298 297 297 297 292 295 295 294 293 294 294 293 293 294 293 296 294 292 293 294 295 295 296 297 301 309 308 310 311 309 308 307 307 310 310 308 308 309 308 307 306 306 306
301 302 302 302 301 300 299 298 297 297 297 297 297 297 292 295 295 294 294 294 294 294 293 293 294 295 295 296 295 293 294 294 295 298 301 303 307 308 311 309 307 306 306 307 307 307 306 305 304 303 303 304 304 304
301 302 302 302 301 298 298 297 297 297 297 296 296 293 295 295 294 294 294 295 295 295 294 294 296 300 297 299 299 296 296 297 297 303 306 307 310 312 310 307 306 305 305 305 305 304 304 303 303 304 303 303 303 304
301 303 302 300 299 298 297 297 297 297 296 296 295 294 295 294 294 294 296 295 295 294 294 294 295 298 298 300 302 300 300 302 305 306 306 308 310 305 305 306 305 304 304 303 302 302 302 303 303 303 303 303 303 303
301 301 301 300 299 298 298 297 297 296 296 296 296 292 293 293 293 295 296 296 296 296 295 295 295 298 300 302 305 302 304 304 310 308 311 309 310 303 299 300 301 301 302 302 301 302 302 301 302 303 303 302 302 304
301 300 300 299 299 298 298 297 296 296 295 295 294 294 294 294 296 297 298 299 299 301 300 299 300 299 300 305 306 306 307 307 310 308 309 310 304 296 297 298 299 299 300 301 302 302 301 301 301 301 302 302 302 303
300 300 300 300 299 298 297 296 296 295 295 293 293 294 294 295 299 299 300 301 301 298 298 297 298 300 302 304 305 305 307 309 304 309 310 307 297 296 296 297 298 298 299 300 300 302 302 303 303 303 303 303 304 305
299 300 300 300 299 298 297 296 296 296 295 292 291 291 295 297 299 299 299 298 297 296 296 296 297 300 302 302 305 307 306 305 309 309 308 302 296 296 296 297 297 297 297 299 299 300 301 302 301 301 301 302 303 304
298 298 299 299 299 298 297 297 296 296 295 292 291 293 294 295 294 295 295 295 296 296 296 296 297 299 302 303 305 305 307 308 308 307 304 298 297 297 297 297 297 296 297 297 298 298 298 299 300 300 300 300 301 302
297 298 298 298 298 298 297 297 297 296 293 291 291 291 292 292 294 294 293 295 296 295 295 296 300 303 306 304 307 308 307 306 307 302 300 299 298 297 295 294 294 294 293 293 293 294 294 295 295 297 297 298 298 300
296 298 298 298 298 297 297 297 296 295 292 290 290 291 291 291 291 293 294 295 295 295 297 297 301 304 301 305 305 304 306 305 300 300 299 299 298 296 295 293 292 291 290 290 291 291 291 292 293 294 295 296 297 297
293 293 296 297 298 297 298 298 296 294 292 292 290 292 291 292 292 292 293 293 294 295 295 297 293 298 303 305 305 304 301 302 301 300 299 298 297 296 297 294 291 290 290 289 288 288 289 289 289 289 290 292 295 296
291 293 295 297 297 297 296 295 294 293 292 291 291 291 291 291 291 291 292 292 293 293 293 294 295 296 299 300 300 301 301 301 300 299 299 298 298 297 296 294 291 290 289 288 288 288 288 288 288 288 288 288 290 293
293 294 296 296 295 295 296 294 293 291 289 289 289 290 290 290 291 291 291 291 292 292 292 293 294 296 298 301 302 302 302 302 300 299 298 298 297 296 296 293 290 289 287 287 287 287 287 287 287 288 288 288 288 289
294 294 295 295 294 294 295 294 293 290 289 288 288 288 289 289 289 289 289 289 290 291 291 292 294 295 296 297 298 299 299 300 301 301 300 300 298 297 295 291 289 287 286 287 287 286 286 286 287 288 288 289 289 288
293 295 295 294 294 295 294 293 292 290 288 288 288 287 286 285 287 287 286 286 288 290 292 293 294 293 293 294 294 294 295 296 297 297 298 299 298 297 296 292 288 287 286 287 287 287 286 287 287 288 288 288 288 288
293 293 293 294 293 292 291 290 290 290 285 286 285 284 284 284 285 285 283 285 289 292 292 291 289 289 290 291 292 293 293 294 294 295 296 297 297 293 290 288 287 286 287 287 287 287 287 287 287 288 288 288 288 288
292 293 293 293 292 292 289 288 287 285 283 283 283 284 282 283 284 283 284 285 293 293 291 289 288 289 289 290 291 291 291 292 293 293 295 295 294 291 289 287 286 287 287 287 287 287 287 286 287 287 288 288 287 287
291 291 291 291 291 288 284 283 280 283 285 278 279 283 282 283 283 282 283 288 294 292 289 289 289 288 289 289 289 289 290 290 291 292 295 294 292 289 288 287 287 288 288 288 287 287 287 286 286 287 287 287 287 287
290 290 290 290 288 287 285 284 281 282 280 277 279 281 281 281 280 286 285 292 292 292 292 292 290 290 290 289 290 290 291 291 292 293 294 293 292 289 289 288 288 288 288 287 287 287 286 285 286 286 286 286 286 286
289 286 289 289 288 286 284 283 283 280 277 280 281 279 280 282 284 285 292 293 292 293 293 295 295 291 290 290 290 291 291 291 291 291 291 290 290 289 289 288 288 288 287 287 287 286 285 285 286 286 286 286 285 285
289 289 286 287 287 288 284 281 281 281 282 284 283 281 283 284 288 294 293 292 292 292 293 293 294 295 292 289 289 290 289 289 289 288 288 288 288 288 288 287 287 287 286 285 285 285 285 285 285 285 285 285 284 283
288 287 287 284 285 285 286 285 283 288 289 287 284 284 285 291 292 292 291 291 291 291 291 291 291 291 293 294 291 289 289 289 288 288 288 288 287 287 287 286 286 285 284 285 285 285 285 285 284 284 283 283 283 282
287 288 288 285 284 285 289 290 290 290 290 289 289 289 289 290 290 290 290 290 289 289 290 290 290 290 290 291 292 293 292 289 288 288 288 287 287 286 286 285 285 285 285 285 284 284 283 282 281 281 281 281 281 281
288 288 287 285 283 288 289 289 289 289 288 288 288 287 288 287 288 289 289 289 289 289 289 289 290 291 291 291 290 290 290 290 289 288 287 286 286 286 285 285 285 285 284 284 283 282 281 281 281 281 280 280 280 280
287 287 284 278 283 287 287 287 286 286 287 286 286 286 286 285 285 287 288 289 289 290 291 290 290 292 292 292 291 289 288 286 286 286 285 285 285 285 285 285 284 284 283 282 281 281 280 280 280 280 280 280 280 280
283 283 284 285 285 285 285 286 283 283 282 282 286 286 286 284 285 288 288 289 289 289 290 290 291 291 291 290 289 288 286 285 285 285 285 286 286 285 285 284 283 282 281 281 281 280 280 280 280 280 280 280 281 281

GFSWCAN_850_thetae_039.txt.gz
Theta_e
302 302 302 301 300 300 300 300 299 298 299 298 298 299 299 298 298 298 297 296 295 296 296 296 295 296 297 297 304 303 309 311 311 314 314 312 311 312 312 312 312 312 312 313 312 313 313 311 314 317 316 313 314 312
303 302 302 301 301 301 300 300 300 299 299 299 299 299 299 298 298 298 298 298 296 296 297 296 295 295 295 295 295 296 300 301 306 312 313 312 311 312 312 313 311 312 311 312 312 312 311 311 313 313 312 313 313 313
302 302 300 300 300 300 300 300 301 300 299 298 298 298 298 298 297 298 299 297 297 296 295 296 297 295 295 295 295 296 297 299 301 298 303 311 313 312 313 312 313 311 311 311 311 312 311 310 312 311 311 311 310 310
302 300 298 299 299 300 301 301 302 300 299 298 298 298 298 297 297 298 298 297 296 295 296 296 295 295 294 294 294 295 296 296 296 296 297 308 312 311 312 312 313 313 311 311 312 312 312 311 312 311 310 310 310 310
303 302 301 301 300 302 302 303 301 300 298 298 298 298 298 297 298 296 294 294 294 295 296 296 295 294 295 294 294 294 294 295 295 296 298 305 306 310 311 311 312 311 313 313 313 312 312 312 312 311 311 311 310 310
303 302 301 301 301 301 300 300 299 298 298 297 298 298 298 297 297 295 295 293 293 294 293 296 295 294 293 296 294 294 295 295 295 296 297 299 301 307 313 312 311 311 311 312 313 312 312 312 311 309 309 308 308 309
302 302 301 301 301 301 300 300 298 298 297 297 298 297 297 293 295 295 295 294 293 293 293 295 296 295 295 295 295 295 294 295 295 295 295 297 301 299 310 312 311 311 311 310 310 310 310 309 310 308 308 307 306 306
302 301 301 302 302 301 300 299 298 297 297 297 297 296 294 295 295 295 294 294 294 294 293 295 296 296 296 297 296 294 294 295 296 296 297 298 299 302 310 310 310 309 309 308 307 308 307 307 306 305 305 305 305 304
301 301 301 302 301 300 299 298 297 297 297 297 296 295 295 295 295 295 294 294 295 295 296 296 298 302 298 298 298 295 294 295 295 298 298 301 302 305 310 310 309 308 308 308 306 306 306 305 303 304 305 305 303 303
301 301 301 301 299 299 299 298 298 297 297 296 295 294 296 295 293 293 295 295 295 294 293 295 296 299 298 299 299 299 298 300 302 300 303 306 308 306 306 305 308 304 305 305 304 303 303 303 303 302 301 302 302 302
300 301 301 300 299 298 298 298 297 296 296 295 295 295 293 294 294 295 297 297 297 297 296 296 296 298 299 301 304 299 304 303 306 308 306 308 310 306 301 301 301 302 303 304 303 304 304 303 303 302 302 302 301 301
301 300 300 299 299 298 298 297 296 296 295 295 294 294 294 295 296 298 300 300 300 303 300 300 299 298 299 299 302 303 305 305 311 304 308 311 305 299 299 298 299 300 301 301 304 307 306 304 303 303 302 302 302 302
300 299 299 299 299 298 297 297 296 296 296 293 293 294 296 297 300 300 300 301 300 300 299 297 297 298 300 301 302 304 307 310 305 309 310 309 300 297 297 297 298 298 299 300 303 305 305 303 302 302 303 303 303 303
299 299 299 299 299 298 297 297 296 296 296 293 293 294 299 301 300 300 300 299 298 297 297 297 296 299 301 301 304 307 307 306 310 310 310 306 300 297 296 296 297 297 298 300 301 301 301 300 298 298 298 299 300 302
296 299 299 299 299 298 297 297 297 296 296 293 292 298 297 298 296 296 296 295 296 296 297 296 297 297 300 303 304 305 308 309 309 309 307 302 298 297 297 296 296 297 297 297 298 298 297 296 297 297 297 298 299 300
295 298 298 298 298 298 297 297 297 296 295 293 292 295 294 295 297 295 295 295 295 295 296 296 298 301 304 304 306 309 309 308 308 306 300 299 299 298 297 297 296 295 294 293 293 293 293 293 293 294 294 295 296 298
294 296 296 297 297 297 297 297 297 296 294 292 294 292 293 293 294 295 294 295 294 295 297 297 300 304 299 304 307 306 309 306 301 301 299 298 298 297 295 294 293 292 291 290 291 290 290 290 290 290 290 291 293 295
293 293 295 296 297 297 296 296 296 296 293 293 293 295 292 293 294 294 294 294 293 295 295 297 294 298 302 305 306 304 302 303 302 300 299 299 298 297 297 295 293 291 291 290 289 288 288 288 288 288 288 288 289 291
292 292 294 296 296 296 296 296 295 294 294 292 292 292 291 292 292 292 292 292 292 292 293 294 295 297 299 301 302 302 301 300 300 300 299 298 298 297 297 296 293 292 290 289 288 288 288 288 288 288 288 288 288 288
292 294 296 296 296 295 295 295 294 293 291 290 290 290 290 291 291 291 290 290 291 292 292 293 295 297 298 299 299 301 301 300 300 300 300 299 299 298 298 298 296 291 289 288 287 287 287 287 287 287 288 288 289 289
293 294 296 297 295 295 295 294 294 292 290 289 288 288 290 289 289 289 289 288 290 290 292 293 294 294 294 294 294 294 294 294 297 298 298 298 299 298 297 296 295 292 289 287 287 287 287 287 286 287 287 288 289 289
293 294 296 295 294 294 294 293 293 291 289 288 288 287 287 289 289 287 286 286 289 291 292 293 294 293 291 289 289 291 292 293 294 294 295 297 297 298 298 298 296 293 289 287 287 287 287 287 286 287 287 288 288 288
293 293 294 294 293 292 291 291 290 290 291 290 287 287 289 287 285 286 285 287 289 293 293 293 291 289 288 289 289 289 291 291 292 293 294 295 295 296 297 296 294 291 287 287 287 287 287 287 287 286 287 287 288 288
293 292 293 293 292 291 290 288 288 287 285 287 287 289 290 287 284 285 288 290 292 294 292 290 289 290 290 290 290 289 290 290 290 291 292 293 294 295 295 293 290 288 287 286 287 287 287 287 287 286 286 287 287 287
291 291 292 291 291 291 289 287 285 286 287 287 286 288 287 284 288 288 288 290 293 293 292 293 293 291 290 290 290 290 290 292 291 290 291 292 294 294 293 290 289 288 287 287 287 287 287 287 287 286 285 286 286 286
290 290 291 290 290 290 289 287 285 286 286 286 285 284 282 286 287 290 291 292 293 292 292 293 293 293 293 291 290 292 292 291 291 291 291 293 294 294 293 290 289 289 288 288 287 287 287 287 286 286 285 286 286 286
290 290 289 289 289 288 286 284 284 285 285 286 287 283 285 287 289 291 292 293 292 291 291 291 291 291 291 292 292 291 291 292 290 290 291 292 292 292 291 290 289 289 288 287 287 287 287 286 286 285 285 286 285 285
289 288 288 288 288 287 288 286 286 286 287 286 285 284 286 288 292 293 293 292 291 290 290 290 289 290 290 289 290 290 292 291 291 292 290 289 289 289 288 288 288 288 288 287 287 286 286 285 285 285 285 285 284 284
288 287 288 285 286 286 287 288 288 289 290 287 288 289 289 290 291 291 291 290 290 290 289 289 289 289 289 289 289 289 289 290 291 290 289 289 289 289 288 287 287 287 287 286 285 285 285 285 285 285 284 284 284 283
287 288 288 286 287 288 289 289 289 290 289 289 289 289 289 290 289 289 289 289 289 289 290 290 290 289 289 289 289 289 289 290 289 289 289 289 289 289 288 287 286 286 285 285 285 285 284 284 284 283 282 282 282 281
288 287 287 287 287 289 289 289 289 288 287 287 287 287 288 288 288 289 289 289 289 289 289 289 289 289 289 289 289 289 290 291 291 289 288 288 287 287 287 285 285 284 285 285 284 283 283 282 282 281 281 281 281 280
287 287 286 284 286 288 287 286 287 287 287 286 286 287 286 286 286 288 288 289 288 288 289 289 288 289 289 289 289 290 290 290 289 288 287 286 286 285 284 284 284 284 284 283 282 282 281 281 281 281 280 280 280 280
284 283 284 285 286 286 286 285 284 283 282 283 286 287 286 285 285 288 289 289 288 288 288 288 288 289 289 289 290 290 290 288 287 286 285 284 284 284 285 284 284 283 282 281 280 280 281 280 280 280 280 280 280 280

GFSWCAN_850_thetae_042.txt.gz
Theta_e
303 303 302 301 300 301 300 300 300 300 299 299 299 298 299 298 298 297 298 298 297 297 297 297 297 296 296 297 299 299 305 309 311 312 313 312 310 309 310 310 310 311 310 312 312 313 310 314 314 316 314 314 313 313
303 302 302 302 301 301 301 300 300 301 300 299 298 298 298 298 298 298 299 298 296 296 297 296 295 296 295 295 295 296 298 299 302 308 310 311 311 308 309 310 308 310 309 310 309 310 310 312 313 313 313 313 314 312
303 302 301 300 300 300 300 301 301 302 300 299 298 298 298 298 298 297 298 298 297 297 296 296 296 296 295 295 295 296 297 298 300 298 298 307 312 310 310 309 310 310 310 309 310 310 309 310 312 312 312 312 312 312
303 302 300 299 299 300 301 301 302 302 300 298 298 298 298 298 298 298 298 296 296 295 295 296 296 296 295 296 295 295 296 297 297 296 298 302 310 310 310 310 310 310 309 309 309 309 312 311 311 312 311 311 311 311
303 302 302 301 301 301 301 301 300 299 298 297 297 298 298 298 298 297 295 294 295 295 296 295 296 294 295 295 294 295 295 295 295 296 298 299 302 304 309 309 310 310 309 309 309 310 311 312 311 312 311 311 310 310
303 303 302 301 301 301 301 300 300 298 298 297 297 298 298 297 296 294 295 293 294 293 294 296 295 295 294 295 295 295 294 295 295 296 296 297 298 300 303 310 310 311 311 312 311 312 312 312 312 311 310 310 309 309
303 302 302 301 301 301 301 300 299 298 297 297 297 297 296 295 295 296 296 295 294 294 294 295 296 296 295 295 295 295 295 295 295 295 295 295 296 300 304 304 306 310 311 311 311 311 311 310 310 309 308 308 308 306
302 302 301 301 301 301 300 299 298 297 297 297 297 296 295 295 295 296 294 294 294 294 293 295 296 297 296 297 296 295 294 294 295 295 296 296 296 297 300 303 307 309 310 310 310 309 308 309 307 306 306 305 305 306
301 301 301 301 301 300 299 298 297 298 297 297 296 295 296 295 295 295 293 293 294 295 295 296 297 301 298 297 298 295 295 295 294 296 296 297 298 299 300 299 303 306 309 308 307 306 306 306 305 304 304 304 304 304
300 300 301 301 301 300 299 298 297 297 297 296 296 295 296 294 294 293 296 296 295 295 294 295 296 298 299 299 299 298 296 299 297 298 298 298 303 300 302 305 303 304 307 307 306 303 303 303 303 303 304 304 304 304
299 300 301 301 300 299 298 298 297 296 296 295 295 295 295 294 296 296 297 297 297 298 296 296 297 298 298 300 302 299 302 300 302 304 302 307 308 304 302 303 304 304 304 304 304 304 305 305 304 304 303 304 304 303
300 300 300 300 299 299 298 297 296 296 296 295 293 294 296 296 297 298 300 300 300 302 300 299 298 297 298 299 299 302 303 302 307 303 306 310 304 300 299 300 304 301 301 302 304 305 305 305 304 303 303 303 303 303
299 300 299 299 298 298 297 297 296 296 296 294 292 294 297 297 294 297 298 299 299 300 299 298 298 296 297 300 300 302 306 308 304 307 309 305 300 298 298 298 298 299 299 300 302 303 303 303 303 301 301 301 302 302
299 298 299 298 299 299 297 297 296 296 296 295 293 290 295 296 297 297 298 298 299 297 297 296 297 297 299 301 302 306 307 305 308 309 309 301 300 298 297 297 297 297 298 299 300 300 300 300 299 299 298 298 298 299
299 299 298 298 299 298 298 297 297 296 296 295 294 293 293 299 297 296 295 295 295 295 296 296 296 297 299 301 304 304 307 307 308 308 303 300 298 297 297 296 296 296 297 297 297 298 297 295 294 294 294 295 295 296
298 298 299 299 299 298 297 297 297 296 296 294 294 293 295 294 297 297 296 295 296 295 295 297 297 300 301 302 304 307 308 308 305 301 300 299 298 297 296 296 296 295 294 294 293 292 292 292 292 291 291 291 292 294
295 297 297 298 298 298 297 296 296 296 295 293 294 294 294 294 294 295 295 295 294 294 296 295 297 300 297 302 305 304 305 302 301 301 299 298 297 297 295 294 294 291 290 291 294 295 296 290 289 289 288 289 289 290
294 294 296 297 296 296 297 295 295 296 294 294 293 296 294 293 294 294 294 294 293 294 294 296 294 295 297 301 303 302 301 301 301 300 301 299 298 297 295 294 292 298 299 298 293 290 289 288 288 288 288 288 289 289
293 293 295 296 296 296 296 295 295 295 295 294 293 293 292 293 293 293 293 292 292 292 292 293 294 295 295 298 300 300 300 300 299 298 298 299 299 298 299 297 295 293 297 293 289 288 288 287 287 287 287 288 288 289
293 294 295 296 295 295 295 295 294 293 292 292 291 290 290 291 291 291 291 291 291 290 291 292 292 295 296 297 297 295 294 293 294 294 295 298 299 298 297 298 299 298 293 290 288 287 287 287 287 287 287 287 288 288
294 295 296 296 295 295 294 294 294 293 291 290 290 290 291 290 290 290 289 288 289 290 290 291 293 294 294 294 293 291 289 288 291 293 294 295 297 298 298 297 296 295 294 291 289 287 287 287 287 287 287 287 288 288
295 295 295 295 295 294 293 292 292 292 291 290 289 289 288 289 290 288 286 285 288 290 291 293 294 293 292 290 289 288 289 289 288 290 292 293 294 295 296 297 297 297 296 294 289 287 287 287 287 287 287 287 287 288
293 294 294 294 293 292 291 291 291 291 289 290 288 285 287 288 287 286 284 287 289 293 293 293 292 291 291 290 290 290 290 290 290 290 291 292 292 293 294 295 296 296 296 294 288 287 287 287 287 287 287 286 286 287
293 293 292 292 292 291 290 289 289 288 287 287 284 283 285 288 285 284 282 290 292 293 293 292 293 293 293 292 291 291 290 291 292 293 291 290 291 292 293 294 294 294 291 289 287 286 287 287 287 287 287 287 286 286
292 291 291 293 292 290 286 285 285 287 285 283 283 281 283 285 281 281 282 290 292 293 292 293 292 292 292 291 291 291 291 290 291 291 292 292 290 291 293 294 294 292 289 287 287 286 287 287 287 287 287 287 286 286
291 291 291 291 289 290 287 283 282 281 282 281 282 286 284 283 283 284 285 292 292 293 292 291 290 290 290 289 289 289 289 290 291 291 292 291 292 293 293 293 293 292 289 288 288 288 288 287 287 287 287 286 286 285
287 287 290 290 290 289 288 286 286 284 281 283 282 282 283 287 284 285 292 292 292 291 291 290 290 290 289 289 289 289 289 289 289 290 292 292 291 290 290 291 290 290 289 289 288 288 288 287 287 286 286 285 285 285
289 289 286 288 288 288 285 285 284 283 284 287 287 286 286 285 285 292 293 292 292 291 290 290 289 289 289 289 289 290 289 289 289 289 289 291 292 292 291 289 289 288 288 288 288 287 287 286 286 285 285 285 285 285
289 288 288 286 287 287 287 286 287 289 290 289 286 284 287 290 290 290 290 290 290 290 290 289 289 289 289 289 289 289 289 289 289 289 288 289 290 292 292 291 289 288 288 287 287 286 286 285 284 284 285 285 285 284
288 288 288 286 284 285 289 290 290 290 290 290 289 289 289 289 289 290 290 290 289 289 289 289 289 289 289 289 289 289 289 289 289 288 288 288 289 289 289 290 289 288 287 286 286 285 285 285 285 284 284 284 284 283
288 287 288 288 285 289 289 289 289 289 289 288 288 287 288 288 289 289 288 289 289 289 289 289 289 289 288 288 288 288 288 288 288 289 289 289 289 289 288 287 286 286 286 286 284 284 284 284 283 283 283 283 282 281
287 287 287 280 285 288 288 287 288 287 287 287 286 286 286 285 286 288 289 288 288 288 289 289 289 290 289 288 288 288 287 288 288 288 288 288 287 286 286 286 285 285 284 283 283 283 283 283 282 282 281 281 280 280
285 285 285 285 286 287 286 286 285 284 283 284 286 286 286 286 286 288 288 288 288 288 289 290 288 287 287 287 287 287 288 288 288 288 287 286 285 285 284 284 283 283 283 283 282 282 281 280 280 280 280 280 280 280

GFSWCAN_850_thetae_045.txt.gz
Theta_e
305 303 302 301 300 301 300 300 300 300 300 299 299 298 298 298 298 297 298 298 297 297 296 297 297 296 296 296 297 298 304 305 307 311 310 309 308 307 308 307 308 309 308 307 309 311 308 311 312 314 313 313 312 312
304 303 302 301 301 301 301 300 301 300 300 299 298 298 298 298 298 298 297 298 297 297 296 295 296 296 296 296 296 295 298 299 301 306 308 308 309 305 306 308 306 309 307 308 307 307 306 313 312 313 313 313 312 312
303 302 302 301 301 300 300 301 301 302 301 300 298 298 297 297 298 298 298 297 295 295 295 295 295 295 295 295 296 295 297 299 298 296 298 304 311 308 308 306 307 307 307 307 308 308 308 310 312 313 312 313 313 312
303 302 301 301 300 300 301 301 301 300 300 299 297 297 298 298 298 297 296 295 296 295 294 295 296 295 295 296 296 295 296 297 296 296 297 299 304 305 308 307 306 307 307 307 307 307 310 311 311 312 312 312 312 311
303 303 302 302 301 301 301 301 300 299 298 297 297 298 298 298 297 295 295 294 295 295 295 295 296 295 294 295 294 295 295 295 295 296 295 298 300 302 302 304 306 308 308 308 308 308 309 309 311 311 311 311 311 310
304 303 302 301 301 301 300 300 300 299 298 297 298 298 297 296 295 295 296 294 294 294 294 294 295 295 295 295 295 294 295 295 295 295 295 296 297 299 298 302 306 307 309 309 309 312 311 310 311 311 311 311 310 309
303 303 302 302 301 301 301 300 299 298 298 297 297 296 296 295 295 295 295 295 294 294 294 293 294 296 296 295 295 294 295 295 295 295 295 294 295 299 300 299 300 302 304 306 310 311 310 310 310 310 310 310 308 308
303 302 301 301 301 301 300 299 298 298 297 297 296 295 295 295 295 295 293 293 294 294 293 289 292 296 297 297 296 294 294 294 294 295 295 294 294 294 295 295 297 299 305 307 310 311 311 310 309 308 307 307 306 306
302 301 301 300 300 300 300 299 298 297 296 296 295 295 295 295 295 293 294 295 295 295 295 295 295 296 299 298 298 295 294 294 294 294 294 295 295 297 296 296 296 297 301 302 304 308 307 307 306 305 305 305 305 305
301 301 301 301 301 300 300 299 298 297 296 296 295 296 296 294 295 295 296 296 295 295 295 294 296 297 298 298 299 297 295 294 292 295 296 297 296 297 298 298 302 300 299 301 303 304 304 304 303 303 304 304 304 304
301 300 301 301 300 300 299 298 298 297 296 296 295 295 295 296 296 296 296 296 297 296 296 296 297 297 297 298 299 299 298 298 294 299 298 302 307 301 302 301 303 302 302 301 302 303 304 304 303 303 303 303 304 304
300 300 300 300 299 299 299 298 297 297 296 294 293 295 296 296 297 291 288 297 296 298 299 298 298 297 297 298 298 299 302 302 301 299 303 308 304 300 299 299 299 299 302 301 302 304 304 304 303 303 303 303 303 303
300 300 300 300 299 299 298 297 297 296 296 295 293 295 297 296 290 288 290 290 290 299 299 297 295 297 296 298 299 301 304 306 303 306 308 305 300 298 297 298 298 299 300 300 300 301 301 302 301 301 300 300 299 300
299 300 299 299 298 298 298 297 296 296 296 296 293 288 288 287 287 289 289 288 298 298 296 295 296 297 297 299 302 304 306 304 305 308 307 301 299 297 297 297 296 296 298 298 299 299 299 300 298 297 296 295 295 296
299 299 298 297 298 298 297 297 296 296 295 295 294 289 286 297 298 297 296 295 295 294 295 294 296 296 296 299 301 303 306 306 305 303 303 299 297 297 296 296 296 296 296 297 296 298 296 294 293 293 292 292 292 293
296 297 298 298 298 298 298 297 296 295 296 295 294 291 294 293 294 296 296 295 295 294 295 296 295 298 299 300 301 304 306 302 302 301 299 298 297 297 297 296 295 294 293 293 293 293 292 290 290 289 289 288 289 290
295 297 298 298 298 298 297 296 295 296 295 294 294 294 295 295 294 295 295 294 294 293 288 294 295 294 293 297 300 301 300 300 301 300 299 298 298 297 296 294 293 290 290 293 296 294 293 294 291 288 289 288 289 289
296 295 296 297 297 296 296 295 295 295 295 294 293 295 295 293 294 294 294 294 294 294 293 288 294 293 293 294 298 300 300 299 296 295 296 296 297 299 297 296 292 292 296 297 297 293 291 288 288 288 288 288 288 289
294 294 295 297 296 295 295 295 294 295 295 294 294 294 294 294 293 293 293 293 292 292 292 291 292 293 291 294 296 298 296 295 294 292 290 291 293 298 299 297 297 297 298 297 291 288 288 287 287 287 287 287 288 288
294 294 295 296 295 295 295 295 294 294 293 293 292 291 292 292 291 291 291 291 291 290 290 290 290 292 293 295 296 294 294 292 290 288 289 290 293 296 297 299 297 296 297 296 292 289 288 287 287 287 287 287 287 288
294 296 296 295 294 294 294 293 293 293 293 292 292 291 292 291 291 290 289 289 289 289 289 291 292 293 293 293 293 290 290 289 289 288 288 288 290 292 294 295 298 297 296 295 293 291 288 287 287 287 287 287 287 287
294 295 296 294 295 294 292 291 291 292 290 290 289 290 289 288 289 288 287 286 287 289 290 292 293 293 292 291 290 291 292 292 292 291 290 289 289 290 292 293 293 295 296 297 295 293 288 287 287 287 287 287 287 287
294 294 294 294 293 291 290 290 291 290 288 289 288 285 287 288 287 286 285 286 289 292 293 292 293 291 292 291 291 292 292 292 292 292 292 292 291 291 290 291 292 293 294 295 295 293 288 286 287 287 287 287 287 287
292 293 293 293 292 289 289 289 289 288 287 286 279 279 280 288 285 283 280 287 292 292 292 293 292 292 291 290 290 290 290 290 291 292 291 291 292 292 290 291 292 293 293 293 292 290 287 286 286 287 287 287 287 287
292 292 292 292 292 289 282 281 283 285 280 277 279 279 281 285 277 274 281 289 291 291 292 292 291 291 290 290 289 289 289 289 289 289 290 291 292 292 292 292 293 293 293 291 289 288 287 286 286 287 287 287 287 286
291 291 290 291 289 290 285 280 279 279 278 279 279 285 283 279 280 283 282 291 292 292 292 291 291 290 290 289 289 289 289 289 289 289 289 289 289 291 292 291 291 292 292 291 289 288 288 287 287 287 287 287 286 286
289 287 290 290 290 290 287 286 286 282 276 279 277 278 278 282 281 284 291 292 291 291 291 290 290 290 289 289 289 289 289 289 289 289 289 289 289 289 289 292 292 291 289 289 289 289 288 288 287 287 287 286 286 286
290 289 286 289 289 289 283 281 277 279 280 286 286 281 281 282 283 291 291 291 290 290 290 290 290 290 290 290 289 289 289 289 289 288 288 289 289 289 289 289 291 293 291 289 288 288 288 287 287 286 286 286 285 284
290 289 288 286 287 287 288 284 284 289 290 289 285 284 286 290 290 290 290 290 290 290 289 289 289 289 289 289 289 289 289 289 288 288 288 288 289 289 289 288 288 289 291 291 289 288 287 286 286 285 285 285 284 284
288 288 288 285 281 282 289 289 290 290 290 290 290 290 290 290 290 289 289 289 289 289 289 289 289 289 289 289 289 289 289 289 288 288 288 288 288 288 288 288 288 288 288 288 288 287 286 285 285 284 284 284 284 284
288 288 288 286 284 289 289 289 289 289 289 289 289 288 289 289 289 289 289 289 289 289 288 288 289 289 289 288 288 288 289 289 289 288 287 287 288 288 288 288 288 286 286 286 286 285 284 283 283 283 283 283 282 282
288 287 286 278 285 289 288 288 288 288 288 288 288 287 287 286 285 287 289 288 288 288 288 288 288 288 288 288 288 288 288 288 287 287 287 287 288 287 287 287 286 285 284 284 284 283 282 282 282 282 282 282 281 281
284 284 285 285 286 287 287 286 286 285 284 285 287 287 286 285 285 287 288 288 288 288 288 288 287 287 287 287 287 287 287 286 286 287 287 287 287 286 285 284 284 283 283 282 282 282 282 281 281 280 280 280 280 280

GFSWCAN_850_thetae_048.txt.gz
Theta_e
309 306 305 302 300 300 300 300 300 300 300 299 298 298 298 298 298 298 297 296 296 296 296 297 296 296 296 295 296 296 302 303 306 309 310 308 307 306 306 306 307 308 308 308 308 309 307 308 311 312 311 312 312 309
307 306 303 301 300 301 300 300 301 300 301 300 299 298 297 298 298 298 297 297 295 295 296 295 296 295 295 296 295 295 296 299 300 306 307 308 309 305 305 307 304 309 306 306 306 307 305 308 311 312 313 313 312 312
306 304 302 301 301 300 300 301 301 301 301 300 298 297 297 298 298 297 297 296 295 296 295 295 295 296 295 295 295 295 297 298 297 296 298 303 309 308 308 305 305 305 305 306 306 306 305 309 311 312 313 313 312 312
304 303 302 301 301 301 301 301 301 300 299 298 297 297 298 298 297 296 295 295 296 295 294 295 295 295 295 295 296 295 296 297 297 296 296 298 302 304 307 306 306 306 306 306 305 305 308 310 310 310 312 312 313 312
304 303 301 301 301 301 301 301 300 300 299 298 297 297 298 297 296 294 294 295 294 294 294 295 296 295 294 295 294 295 296 296 296 295 295 296 298 299 299 300 302 306 306 307 308 307 308 309 310 310 311 311 311 311
304 303 302 301 301 301 301 300 300 299 298 298 297 297 296 296 294 295 295 295 294 294 294 292 295 296 296 295 295 294 295 295 295 295 295 295 296 298 294 298 300 303 304 305 305 305 309 308 310 310 310 311 310 310
303 302 302 301 301 301 300 300 299 299 298 297 297 296 296 295 295 295 295 294 294 294 294 292 293 296 296 296 295 295 294 294 295 295 294 294 294 297 296 298 298 300 300 298 301 304 308 309 310 310 310 310 310 309
303 302 301 301 301 301 300 299 299 298 297 297 297 296 295 295 295 294 294 294 294 294 294 288 292 296 298 297 297 294 294 294 295 294 294 294 294 294 294 294 295 295 295 296 298 301 304 310 309 309 309 309 308 307
302 302 301 301 301 300 300 299 298 297 297 297 297 295 295 294 294 294 295 295 295 295 295 294 293 295 298 298 297 295 294 294 294 293 294 294 294 295 296 296 295 296 298 298 299 300 303 310 307 306 306 306 306 305
302 301 301 301 300 300 299 298 297 296 296 297 297 296 295 295 296 296 295 296 296 296 296 294 295 292 298 298 298 296 295 294 289 294 295 295 295 295 296 299 298 299 299 298 298 299 302 303 304 305 304 304 304 304
301 301 300 300 300 299 299 298 297 296 296 296 295 296 296 297 296 296 295 296 297 297 296 296 296 296 296 298 298 299 295 296 293 294 296 295 302 302 299 299 299 301 301 300 300 299 301 302 303 303 303 303 303 304
301 301 301 300 299 299 298 297 297 296 296 296 296 297 297 297 296 289 287 295 293 293 297 297 297 296 297 297 298 299 301 301 300 297 299 304 303 299 297 297 298 298 299 300 300 301 302 303 303 303 303 303 303 303
300 301 300 300 299 298 298 297 296 296 296 296 295 296 296 294 288 286 287 288 288 297 298 297 293 295 296 297 298 301 302 304 300 303 307 302 300 297 296 297 297 297 298 299 300 300 299 300 300 300 300 300 300 299
300 300 300 299 298 298 297 297 296 295 296 297 294 287 287 285 284 286 286 286 297 298 295 294 293 295 297 296 300 302 302 304 305 301 301 301 299 296 296 296 296 296 296 297 297 298 298 296 296 295 294 294 294 294
300 300 300 299 298 297 297 295 295 295 295 296 295 289 285 294 297 297 297 295 294 294 294 293 294 295 295 295 298 301 305 303 302 300 298 299 297 298 296 296 295 295 295 295 295 295 296 293 292 292 291 290 291 292
300 299 299 298 298 297 296 295 295 295 295 295 294 290 292 293 293 295 296 295 294 294 293 294 294 295 296 297 297 300 301 299 299 299 299 299 298 296 298 296 295 293 291 292 292 294 292 290 289 288 288 289 289 289
299 298 297 297 297 297 296 294 294 295 296 295 293 294 295 295 294 294 294 294 294 294 287 291 286 290 292 295 295 296 296 296 300 298 295 294 292 292 293 298 296 292 290 291 294 294 294 295 294 289 287 288 288 288
298 297 297 298 297 297 294 294 294 295 295 295 294 295 294 294 294 294 294 294 294 293 293 285 291 291 291 292 292 300 299 299 296 294 293 291 290 290 291 296 297 296 294 295 295 294 292 291 289 287 287 287 288 288
296 297 298 298 297 294 295 294 294 295 294 295 294 294 294 294 293 293 292 293 293 293 292 290 291 290 289 291 293 296 296 293 293 291 290 291 290 290 294 296 297 296 296 296 296 293 288 287 287 287 287 287 287 288
296 298 297 297 295 294 293 294 294 294 293 293 293 292 293 293 292 292 291 291 291 290 290 290 288 291 292 293 294 294 293 292 289 290 292 292 291 290 290 293 294 295 295 295 296 296 294 290 287 287 287 287 287 287
297 297 296 295 294 294 293 292 293 293 293 292 292 291 292 291 291 291 290 289 290 289 288 290 292 293 292 292 292 292 290 290 291 291 291 292 292 291 290 290 291 293 293 295 296 296 295 293 287 287 287 287 287 287
296 296 295 294 295 293 291 291 291 292 291 290 290 290 290 289 289 288 287 287 287 289 291 292 292 292 292 292 290 290 291 292 291 291 291 291 292 293 293 291 290 291 292 293 295 295 295 292 288 287 287 287 287 287
295 295 294 294 293 291 290 290 290 289 287 288 287 285 287 287 287 286 285 286 289 291 291 291 291 291 291 291 291 291 290 290 290 290 290 290 291 292 292 292 291 290 291 292 293 293 294 294 289 286 287 287 287 287
293 293 294 293 292 289 289 289 288 287 287 285 278 280 279 286 284 283 279 288 291 291 291 291 290 291 291 291 290 289 289 289 289 289 289 289 289 289 291 292 292 292 292 293 293 293 293 293 289 286 286 287 287 287
292 292 292 290 291 288 283 284 284 285 279 274 277 279 281 284 276 273 279 289 290 291 291 291 291 290 291 290 289 289 289 289 289 288 289 289 289 289 289 289 291 292 291 293 293 292 289 288 287 286 286 286 287 287
289 291 290 291 289 287 285 283 282 279 276 276 280 284 283 277 281 281 281 291 291 291 291 291 290 290 290 290 289 289 290 290 289 289 289 288 288 288 288 288 289 290 291 291 290 291 290 288 287 287 287 287 287 286
287 287 291 291 290 289 286 285 285 281 274 279 277 276 275 279 280 283 291 291 291 291 291 290 290 290 290 290 290 290 289 289 289 289 289 288 288 288 288 288 288 289 289 289 291 290 289 289 288 288 288 287 287 286
291 290 287 289 289 288 283 281 277 279 280 285 283 278 280 281 283 291 291 291 290 290 290 290 289 289 289 289 289 289 289 289 289 289 289 289 289 289 289 289 288 288 288 288 289 291 291 289 288 288 287 287 286 286
290 288 288 287 287 287 288 284 283 289 290 288 283 281 285 290 290 290 290 290 290 290 289 289 289 289 289 289 289 289 289 289 288 288 288 288 289 290 290 289 288 288 288 288 288 289 290 289 289 287 287 286 285 285
289 289 288 285 281 282 289 290 290 290 290 289 289 289 289 289 290 290 289 289 289 289 289 288 288 288 288 288 288 289 288 288 288 288 287 288 289 289 289 288 287 287 287 287 287 288 288 288 287 287 286 285 284 283
288 288 288 286 283 289 290 289 289 289 289 289 289 288 289 289 289 289 288 288 288 288 287 287 287 287 287 287 287 287 287 288 288 287 288 288 288 288 287 287 287 287 287 286 286 286 285 285 284 284 284 283 282 282
288 287 286 281 285 288 288 287 288 288 288 288 288 288 288 286 286 287 288 288 287 287 288 287 287 288 287 287 286 286 286 286 287 287 287 287 287 287 287 287 287 286 285 284 284 284 284 284 283 282 282 282 282 282
285 285 284 285 285 286 287 286 286 285 285 285 287 286 285 285 285 287 288 288 287 287 287 287 286 286 287 288 288 287 286 286 286 286 286 286 286 286 286 286 285 284 283 283 282 282 282 282 282 281 281 280 280 280

GFSWCAN_850_thetae_051.txt.gz
Theta_e
314 311 307 305 302 301 300 300 300 300 300 299 298 298 298 298 298 298 297 296 295 295 296 296 296 295 295 295 295 296 302 301 305 309 308 308 307 304 306 306 306 307 307 308 309 311 308 306 310 310 308 312 312 311
313 310 306 304 301 301 300 300 300 300 301 300 299 297 297 298 298 298 297 296 296 295 295 295 296 295 295 296 295 295 297 299 299 304 305 306 309 304 303 306 303 307 305 306 306 307 306 306 310 311 312 312 312 312
312 309 305 303 301 301 300 300 300 301 300 299 298 298 298 299 298 297 296 295 295 294 295 295 296 295 295 295 295 295 297 298 297 297 298 302 305 307 308 305 305 304 304 305 305 306 304 308 308 309 311 312 313 311
311 307 304 302 301 301 300 301 301 300 299 298 297 297 298 298 297 297 295 295 295 294 294 295 295 294 295 296 296 295 295 296 297 296 297 298 301 301 306 304 306 306 305 305 303 304 306 308 310 310 310 312 312 312
309 305 302 302 301 300 301 301 300 299 298 298 297 297 297 297 296 295 295 295 294 294 294 295 296 295 295 295 295 295 296 296 296 295 295 297 297 298 297 298 301 303 303 305 306 304 303 305 307 309 308 310 311 312
307 303 302 302 300 300 301 300 299 299 298 297 297 297 297 296 295 296 296 295 294 294 294 291 296 296 296 296 295 294 295 295 295 295 294 295 295 297 295 296 298 299 301 300 300 297 298 299 305 309 310 309 311 310
304 303 302 301 300 301 300 299 299 298 297 297 298 297 296 296 296 295 294 294 294 294 294 292 293 296 297 297 295 295 294 294 294 294 294 294 294 296 295 297 296 297 297 296 295 296 296 298 304 307 308 309 310 310
303 302 302 301 301 300 300 299 298 297 297 298 298 297 297 296 297 296 296 295 295 295 294 285 289 296 297 297 297 294 294 294 295 294 294 294 294 293 294 294 295 296 297 298 298 297 297 298 300 306 308 307 308 308
303 302 301 301 301 300 299 298 297 296 298 298 298 298 299 298 297 297 297 297 296 296 295 293 290 292 297 298 297 295 294 294 294 293 294 294 294 295 296 296 297 298 298 298 298 299 298 301 302 304 305 306 306 306
302 302 301 301 300 300 298 297 296 297 297 298 298 298 297 297 297 297 297 295 296 297 296 295 294 292 296 297 297 296 294 295 291 294 294 295 295 295 300 298 297 297 299 299 298 299 300 300 300 302 302 304 304 304
302 301 301 301 300 299 298 296 296 296 296 297 297 298 297 297 297 296 296 296 296 294 296 295 295 294 295 297 298 298 297 295 296 295 296 296 301 301 298 296 296 297 297 299 299 298 298 298 300 301 303 302 303 303
302 301 300 300 299 298 297 296 296 296 296 296 297 297 296 297 296 288 284 292 291 291 296 296 296 295 295 297 297 299 299 299 299 295 298 302 300 298 296 296 296 296 296 297 298 298 298 299 299 300 301 301 301 302
301 301 300 300 299 298 297 296 295 296 296 297 297 297 296 293 287 284 286 286 287 295 296 294 292 294 295 296 297 300 300 302 298 300 303 301 299 297 296 296 296 296 296 296 296 298 298 298 298 298 299 299 298 299
301 300 300 298 298 297 297 296 295 295 296 297 295 287 286 284 284 285 286 286 296 296 294 293 292 293 295 294 298 300 301 303 302 300 300 295 298 297 296 297 296 296 295 295 295 295 296 297 296 294 294 293 293 293
300 300 298 298 297 297 296 295 295 295 296 296 295 288 284 292 294 295 296 295 294 294 294 293 293 294 295 296 295 299 301 294 299 298 296 298 297 295 293 292 296 296 294 293 294 294 294 295 294 291 290 289 289 291
300 299 298 297 297 297 295 294 295 295 295 296 294 288 291 292 291 293 294 295 294 294 293 294 290 293 295 295 296 297 292 290 292 291 299 297 295 294 292 290 291 297 295 291 292 293 293 293 292 288 287 288 288 288
299 299 298 298 297 296 295 295 295 295 295 295 294 294 294 295 295 295 294 294 294 294 287 290 285 289 292 293 294 296 290 289 299 298 295 293 292 290 290 289 291 295 296 293 291 293 293 292 293 294 291 287 287 288
299 299 298 297 297 296 294 294 294 295 295 294 294 295 294 294 294 294 294 294 294 293 292 285 290 291 288 287 288 290 298 298 297 294 292 292 292 291 290 290 293 296 296 295 295 293 292 290 291 289 288 287 287 287
298 297 297 297 296 294 294 294 295 294 293 294 294 295 294 294 293 293 292 293 293 293 292 290 290 290 287 290 291 294 295 295 293 292 292 293 292 291 290 289 293 295 294 295 295 294 294 291 287 287 286 286 286 287
297 298 298 297 294 294 294 294 295 294 294 294 293 293 292 292 292 292 291 291 291 291 290 290 288 290 292 293 292 292 293 292 292 290 292 292 292 292 292 290 289 290 293 294 295 295 294 294 292 288 286 287 287 287
297 298 297 295 293 293 293 294 293 293 294 292 291 291 291 290 291 290 290 291 290 290 289 290 291 291 291 291 291 291 291 291 291 289 291 291 291 291 292 292 291 290 291 292 293 294 294 295 295 290 287 287 287 287
297 297 296 294 293 292 292 292 292 292 291 290 290 290 290 289 289 288 288 288 288 291 291 291 291 291 291 291 291 291 291 289 290 291 290 290 289 289 290 291 291 292 291 290 291 292 293 294 294 295 292 287 287 287
295 294 293 293 293 292 289 290 291 289 286 287 287 285 287 287 286 285 285 287 290 291 291 291 291 290 290 290 290 290 291 290 289 288 288 288 288 288 288 289 289 290 291 292 292 292 292 293 293 294 291 287 286 286
294 293 293 292 292 286 288 288 288 287 286 284 282 282 280 284 282 282 280 289 291 291 290 290 290 290 290 291 290 291 290 289 289 289 289 288 288 288 288 288 288 288 288 290 291 292 292 292 292 293 292 287 286 286
292 291 292 288 289 288 283 285 285 285 285 276 282 281 280 282 276 274 280 289 290 290 290 290 291 290 290 290 290 291 289 289 289 289 289 289 289 289 289 288 288 288 288 288 290 291 291 292 290 289 288 287 286 286
286 291 289 289 287 286 284 284 284 283 278 275 279 281 281 276 281 281 281 290 290 290 291 291 290 290 290 290 290 291 290 289 289 290 291 290 289 289 289 288 288 289 289 288 288 289 290 290 290 288 287 287 286 286
285 287 290 290 290 289 285 284 284 280 275 280 276 276 274 279 279 282 290 290 291 291 291 290 290 290 290 290 289 290 290 290 290 290 290 289 289 289 288 288 288 289 289 288 288 288 288 289 290 289 289 288 288 287
290 290 288 289 289 288 283 281 278 279 280 285 283 277 279 280 283 290 290 290 290 290 290 290 290 289 289 289 289 289 289 289 289 289 289 289 289 289 288 288 289 289 289 289 288 288 288 288 288 289 289 288 288 287
290 289 289 286 286 287 288 284 283 288 289 287 282 280 284 289 290 290 290 290 290 289 289 289 289 288 288 288 288 288 287 288 288 288 288 287 288 289 288 288 289 290 290 288 287 287 287 287 287 288 289 288 288 287
289 288 287 284 282 283 289 289 290 290 289 289 289 289 289 289 290 290 289 289 288 288 288 287 287 287 287 287 287 287 287 287 287 287 286 286 287 287 287 288 289 289 288 287 287 288 287 287 287 287 287 287 286 286
288 288 287 286 284 288 289 289 289 289 289 289 289 288 289 289 289 288 288 288 288 288 287 287 287 287 287 286 286 286 287 287 287 287 286 286 286 286 286 286 287 287 287 287 287 287 287 287 286 285 284 284 283 283
288 287 286 283 285 288 288 288 288 288 288 288 288 288 287 287 286 287 288 288 288 288 287 287 286 287 287 287 286 285 285 285 286 286 286 285 285 286 286 286 286 286 286 286 286 285 284 284 284 284 283 282 282 282
284 285 285 285 285 286 286 286 286 285 284 286 287 286 285 285 285 287 288 288 287 287 287 287 287 284 284 284 284 284 284 284 285 286 285 284 284 285 285 285 285 285 285 284 283 283 283 282 282 281 281 281 281 281

GFSWCAN_850_thetae_054.txt.gz
Theta_e
318 314 313 310 306 302 301 301 300 300 300 299 298 298 298 298 298 297 296 296 296 296 296 296 295 295 295 295 294 295 301 301 304 308 308 307 306 303 304 305 306 306 305 306 307 310 307 305 308 310 307 310 311 312
315 315 313 309 305 302 301 300 301 300 300 299 298 298 298 298 298 296 296 296 295 295 295 295 295 295 295 295 295 295 297 300 298 304 304 306 308 305 301 305 302 306 304 305 304 305 305 305 308 309 309 309 311 312
313 314 312 307 304 302 300 301 300 300 300 299 298 298 299 298 298 297 296 295 295 295 295 295 295 295 295 295 295 295 296 298 297 297 298 301 306 307 308 306 304 303 303 303 304 305 304 306 306 306 306 306 309 312
314 313 311 307 303 301 301 301 301 300 299 297 297 297 298 297 297 296 296 296 295 295 294 295 295 294 295 295 295 295 296 296 296 296 297 296 299 299 304 302 304 305 304 304 303 303 305 306 305 303 303 306 308 310
308 310 310 306 302 301 301 301 300 301 298 297 297 297 297 297 295 296 296 295 295 296 295 295 295 295 295 295 295 295 296 296 295 295 292 296 296 298 297 298 300 300 300 301 302 301 298 298 298 298 300 304 308 308
312 312 308 304 302 301 301 300 302 298 297 297 297 297 296 296 296 297 297 296 296 296 295 291 296 296 296 296 295 294 295 295 295 295 295 294 295 297 297 297 297 297 296 295 295 296 297 297 298 299 300 301 305 307
309 309 305 303 301 301 301 301 299 297 297 297 296 295 296 296 296 297 297 296 296 296 296 293 293 296 297 297 295 294 294 294 294 294 294 294 294 295 296 296 296 296 296 297 299 297 296 298 297 298 296 297 303 307
311 309 304 302 301 301 300 299 298 297 297 296 296 296 297 298 298 298 298 297 297 297 296 284 288 296 296 297 296 295 294 294 294 294 294 294 294 293 294 294 297 297 297 297 297 298 298 299 298 297 300 300 305 307
310 307 303 301 301 300 300 298 297 297 296 296 297 298 298 298 299 298 298 298 297 298 297 293 291 289 295 297 297 295 294 294 293 293 293 294 294 295 297 297 298 297 296 296 296 299 299 299 299 299 299 302 304 304
308 304 302 301 300 300 299 297 296 296 295 296 296 297 297 297 298 298 298 298 299 298 297 293 292 290 295 295 296 297 295 295 291 294 293 294 295 296 297 298 297 296 295 295 296 297 298 297 297 297 299 301 301 300
304 302 301 300 300 299 297 296 296 295 295 296 297 297 297 297 297 297 296 294 295 292 295 294 294 292 294 292 294 297 298 294 293 295 296 297 298 299 297 296 296 296 296 295 296 296 297 296 296 297 299 299 300 300
303 301 301 300 299 298 296 296 296 296 297 296 297 297 297 297 296 288 282 290 290 290 295 295 294 294 294 296 297 299 296 297 300 295 298 301 298 298 296 295 295 296 295 295 296 295 296 297 296 297 298 298 298 298
302 301 300 300 298 297 296 296 296 296 296 297 297 297 294 291 287 284 285 285 286 294 295 294 291 293 295 296 296 298 300 301 296 300 300 298 300 298 295 293 292 292 295 295 295 295 295 295 296 297 296 294 294 295
301 301 300 299 298 296 296 295 295 296 296 296 295 287 286 286 285 285 285 286 294 296 294 293 292 292 294 293 295 296 300 301 297 294 294 290 297 297 295 293 292 291 291 295 293 294 294 294 294 294 292 290 290 292
301 300 300 298 297 296 296 295 295 295 296 296 294 288 285 289 290 292 294 295 295 294 294 292 292 293 292 295 295 296 297 294 292 291 288 297 297 294 292 291 291 290 290 294 294 292 293 293 293 292 290 291 292 289
300 300 299 297 296 296 295 294 294 295 295 296 293 288 290 291 289 291 293 294 294 294 293 293 287 285 289 292 296 295 298 291 290 286 298 295 293 292 292 292 291 290 291 293 296 292 292 293 293 293 288 287 287 288
300 299 297 296 296 295 295 294 295 295 295 295 293 293 293 294 294 295 294 294 294 294 287 288 285 288 290 292 293 295 295 288 297 298 296 293 291 292 292 292 291 290 292 294 296 295 293 292 292 292 293 291 290 287
299 297 297 296 295 295 294 294 294 295 294 293 294 294 294 294 294 294 294 294 294 293 292 285 290 285 287 286 286 288 296 297 295 295 293 293 291 292 292 292 291 290 290 294 295 295 293 292 292 290 291 289 287 290
298 297 297 296 295 294 294 294 295 293 292 293 293 294 294 294 293 293 293 293 293 293 293 291 287 284 287 289 290 292 292 292 291 292 292 292 291 291 291 292 292 290 289 290 292 294 294 293 292 291 288 289 290 286
298 297 297 295 294 294 294 294 294 294 293 293 293 293 292 292 292 292 292 292 292 292 290 286 286 290 291 292 292 291 291 291 290 290 291 292 291 291 291 290 291 291 291 291 290 291 292 293 293 293 291 287 286 286
297 297 296 294 293 294 293 293 293 292 291 291 289 290 290 290 290 290 290 291 291 290 288 291 291 292 292 291 291 290 290 290 290 290 290 289 291 290 289 288 288 289 290 291 291 291 290 291 293 293 292 293 289 286
297 297 295 293 293 293 292 291 292 291 291 289 290 290 290 289 288 288 287 289 289 291 291 291 292 291 291 290 290 290 290 289 289 290 290 290 289 288 288 288 288 288 288 289 289 291 292 292 292 292 293 293 289 286
296 294 293 293 293 292 289 290 291 289 282 285 287 285 286 286 285 285 285 287 290 292 292 291 291 290 290 290 290 291 291 290 289 290 289 288 288 289 289 288 288 288 288 288 288 288 290 292 292 292 292 292 292 287
294 293 293 292 291 286 288 287 287 286 286 283 282 281 279 283 282 281 280 288 292 291 290 290 290 290 290 290 290 289 290 290 290 289 289 289 290 290 289 289 289 289 288 288 288 288 288 290 291 292 291 291 291 288
293 291 291 287 288 287 283 285 284 285 284 280 282 279 279 280 276 276 280 288 290 290 290 290 290 290 290 290 290 290 289 289 290 289 290 290 290 290 290 290 290 291 289 289 288 288 288 289 290 290 290 288 288 289
286 289 286 287 287 287 283 283 283 282 279 274 277 279 280 276 280 282 281 290 290 290 290 290 290 290 290 290 290 289 289 289 289 289 289 289 289 290 290 290 290 290 289 288 288 289 289 288 288 288 289 289 288 286
286 287 289 289 289 288 284 284 283 280 276 280 275 275 276 279 278 283 290 290 290 290 290 290 290 290 289 289 289 289 289 288 288 289 289 289 289 289 289 289 289 289 288 288 288 289 289 289 288 288 288 289 289 288
289 289 288 288 288 288 280 279 277 279 279 284 283 277 279 280 283 290 290 290 290 290 289 289 289 288 288 287 287 287 287 287 287 287 288 288 288 288 288 288 288 288 288 288 288 289 289 288 287 287 287 287 288 288
289 289 290 285 286 287 288 283 284 288 288 287 282 279 284 289 290 290 290 290 289 289 288 288 287 287 287 287 287 287 287 286 286 286 286 286 286 287 287 287 288 288 287 288 289 289 288 287 287 287 287 287 287 287
288 289 287 285 282 283 289 290 290 290 289 288 288 289 289 290 290 289 289 288 288 287 287 287 287 287 287 286 287 288 287 287 286 285 285 285 285 286 286 286 286 286 287 288 288 288 287 286 287 287 286 286 286 286
288 288 287 286 285 288 289 289 289 288 288 288 289 288 288 289 288 288 288 288 288 287 287 287 287 288 288 288 287 286 286 285 284 284 284 284 285 285 285 286 286 286 286 286 286 286 286 286 285 285 285 284 284 283
287 288 286 282 285 287 287 287 287 288 288 288 288 288 287 287 287 287 288 288 288 287 287 288 288 288 287 286 283 283 283 283 282 282 283 284 285 284 284 284 285 285 285 285 285 285 284 284 283 283 283 283 283 283
284 286 286 286 285 286 286 287 286 285 284 285 286 285 285 285 285 287 287 287 287 287 288 288 286 285 284 283 283 282 282 281 280 280 280 280 280 282 283 283 284 284 284 284 283 283 282 282 282 282 282 281 281 281

GFSWCAN_850_thetae_057.txt.gz
Theta_e
320 322 321 319 313 309 307 302 301 300 300 299 299 299 298 297 297 298 298 297 296 296 295 295 295 295 295 294 293 295 300 301 304 308 307 307 306 302 303 304 305 306 305 306 306 307 307 304 307 309 305 306 306 307
320 321 319 313 311 307 303 302 301 300 299 299 298 298 298 297 297 297 297 297 296 296 295 295 295 295 295 295 296 295 298 300 298 305 304 306 307 306 301 304 299 306 303 304 304 305 303 304 305 304 302 299 301 305
319 318 315 312 308 305 302 301 301 300 299 298 298 298 298 298 297 297 296 297 297 295 295 295 295 295 295 295 295 295 296 297 297 297 298 302 306 305 307 307 304 303 302 303 304 304 302 303 303 301 299 299 300 302
319 316 313 311 309 304 302 301 301 300 298 298 297 298 298 297 297 297 297 297 298 297 295 295 295 295 295 295 296 295 296 296 296 296 296 297 300 298 304 300 301 302 302 301 301 301 299 303 300 299 298 297 298 300
318 314 313 311 307 303 301 301 300 299 298 297 297 298 297 296 297 297 298 298 298 298 296 295 296 296 296 296 295 295 296 295 295 295 292 295 296 297 296 295 297 298 297 299 299 297 298 297 297 299 298 298 298 298
315 314 312 308 306 303 301 301 300 298 297 297 297 297 296 295 297 297 298 298 299 300 298 292 295 296 297 296 295 295 295 295 295 294 294 294 294 296 296 297 296 296 296 297 296 296 296 297 297 297 297 298 298 298
315 314 310 307 304 302 301 300 299 297 297 297 296 295 295 296 296 297 298 298 298 299 299 291 292 296 296 296 295 294 294 294 294 294 294 293 294 295 297 297 296 297 297 297 297 297 296 297 298 298 298 298 299 299
314 312 309 307 302 301 301 300 297 297 297 296 296 296 296 296 296 297 298 298 298 297 296 282 285 295 295 296 296 295 294 294 294 294 294 294 294 293 295 295 298 297 296 297 296 295 296 297 297 297 298 298 298 299
314 311 308 302 302 301 300 298 297 297 296 296 296 297 296 297 298 297 297 297 297 297 296 291 287 285 294 295 297 295 294 293 293 293 293 294 294 295 298 298 297 297 296 295 295 295 296 297 297 295 295 297 298 299
311 308 303 303 301 301 299 297 297 296 296 295 295 296 297 298 298 298 298 298 298 296 297 290 291 287 294 294 295 296 294 293 288 294 293 295 295 297 298 297 294 294 296 295 294 294 295 295 295 296 297 297 298 298
309 306 305 302 301 300 299 297 296 296 296 295 296 296 297 297 296 296 295 293 294 291 294 293 293 290 294 291 292 296 296 289 287 292 294 293 296 297 297 294 293 292 292 295 295 294 294 294 294 294 296 296 297 297
307 305 302 301 300 299 297 297 296 297 296 296 297 297 297 296 294 288 281 289 289 289 294 295 294 293 294 295 296 297 295 295 293 293 291 292 294 299 296 295 293 293 291 291 294 295 295 294 293 294 294 294 295 295
305 302 301 301 300 298 297 297 297 297 296 297 297 296 293 291 287 286 288 285 286 292 295 294 290 293 293 294 295 296 297 296 294 297 294 292 299 297 296 294 292 292 291 290 291 295 294 294 293 293 294 292 290 292
302 301 301 300 298 297 297 297 296 295 296 295 296 288 286 287 285 285 287 287 293 295 294 293 292 291 293 293 295 295 295 299 299 292 291 286 297 295 292 292 292 293 292 291 290 293 295 294 293 293 293 293 290 289
301 300 300 298 297 297 297 296 295 295 296 295 293 289 286 288 288 291 294 295 294 294 293 292 292 292 288 292 296 294 294 298 292 290 286 297 295 292 292 292 292 292 291 291 291 292 295 294 293 293 292 291 290 288
300 299 298 297 296 296 296 295 295 295 295 295 292 289 289 290 287 291 294 294 294 294 293 293 286 284 288 290 294 292 290 289 290 285 297 296 294 292 291 292 292 292 292 291 290 293 294 294 293 293 293 292 289 288
299 299 298 297 296 296 295 295 294 295 295 295 291 293 293 294 294 294 294 294 294 294 287 288 285 288 290 292 293 293 293 288 295 295 292 292 293 292 291 291 291 292 292 290 289 292 292 293 292 292 292 292 291 291
299 298 297 296 295 295 294 294 294 294 292 292 293 293 293 294 294 294 294 294 294 293 292 286 289 284 285 284 286 287 294 292 291 291 290 290 291 291 291 290 290 291 291 291 290 289 291 292 293 292 292 292 290 290
298 297 296 295 294 294 294 294 294 292 290 292 292 292 293 294 293 293 293 293 293 293 292 290 283 283 287 288 290 292 291 290 290 290 290 290 290 291 290 290 290 289 290 290 291 290 290 290 292 293 292 291 291 290
297 296 295 294 294 294 294 294 294 294 292 292 292 293 292 292 292 293 292 293 292 292 291 286 286 290 291 292 292 291 291 290 289 289 290 290 290 290 289 289 288 288 288 288 288 289 291 291 291 291 292 292 291 290
295 295 294 293 294 294 293 292 292 291 291 290 290 291 290 290 291 291 291 292 292 291 289 291 292 293 292 291 291 290 290 290 290 289 289 289 290 290 290 288 288 288 288 288 287 288 287 288 291 291 291 292 291 291
295 295 293 293 293 293 292 291 291 290 290 287 289 290 289 288 287 288 287 288 290 291 291 292 292 292 291 290 290 289 289 289 289 290 290 289 289 290 288 288 289 289 289 289 288 288 288 287 288 291 292 292 292 291
295 294 293 293 293 292 289 290 290 288 284 285 287 284 283 285 284 284 284 287 290 292 291 291 291 290 290 290 290 290 289 289 289 289 289 290 289 288 288 289 290 291 290 290 290 289 288 288 287 289 291 291 292 291
293 294 293 291 291 287 289 287 287 286 286 283 280 282 278 282 282 282 279 287 292 291 290 290 290 290 290 290 290 290 290 290 290 289 289 289 289 289 290 290 290 290 290 290 290 290 288 288 288 288 289 290 290 290
295 290 291 285 288 287 286 283 283 282 281 280 283 278 278 280 275 280 277 287 290 290 290 290 290 290 290 290 290 290 290 289 289 288 288 288 289 289 289 289 289 289 290 290 290 290 289 288 288 288 287 287 289 289
287 288 287 286 286 288 285 284 281 281 278 278 279 277 279 276 280 280 280 290 290 290 290 290 290 289 289 289 289 289 288 288 287 287 287 288 288 288 288 289 289 289 289 289 289 289 288 288 288 288 288 287 287 288
287 286 288 289 288 286 283 283 283 281 278 282 275 274 274 280 278 283 290 290 290 290 289 289 289 288 288 288 287 287 287 287 286 286 286 286 286 286 287 287 288 289 289 288 288 288 288 288 288 288 288 287 287 287
288 289 286 287 287 287 280 279 278 279 280 283 282 277 280 280 283 290 290 290 290 289 289 289 288 287 287 287 287 287 287 287 286 286 286 287 286 286 286 286 286 287 287 287 287 287 287 287 287 288 288 287 287 286
289 288 290 283 285 287 287 283 284 288 288 287 282 279 284 289 290 290 290 289 289 288 287 287 287 287 287 287 287 288 288 287 286 286 286 287 287 287 285 285 285 285 286 286 286 286 286 287 288 287 287 287 287 287
288 288 286 283 282 282 288 289 289 289 288 288 288 289 289 290 290 289 289 288 287 287 287 287 286 287 287 288 288 288 286 284 283 282 282 283 283 283 284 284 285 284 284 285 285 285 285 286 286 286 286 286 286 286
288 288 287 286 285 286 287 288 288 288 288 288 288 288 289 288 288 287 287 287 287 287 287 287 287 288 288 287 285 285 284 283 282 282 281 281 281 281 282 283 284 284 284 285 285 285 285 286 286 285 285 285 284 283
287 287 285 281 285 286 287 288 288 288 287 287 288 287 287 287 287 286 287 287 287 286 287 287 288 287 286 284 283 282 282 281 281 281 281 280 279 279 280 282 284 285 285 284 284 285 285 285 285 284 283 283 282 282
283 286 286 285 285 286 286 286 285 285 284 285 285 284 285 285 285 287 287 287 286 287 287 288 287 285 284 283 282 282 281 280 280 280 279 279 279 279 280 281 282 282 283 283 283 283 282 282 282 282 282 281 281 281

GFSWCAN_850_thetae_060.txt.gz
Theta_e
300 303 307 319 321 318 317 308 302 302 301 300 300 300 299 299 299 299 298 297 298 296 295 295 295 295 295 295 301 296 302 303 306 310 311 311 310 307 308 306 309 310 310 310 310 311 310 305 308 310 305 302 301 301
300 303 309 316 319 316 312 303 302 302 301 300 299 300 298 298 299 298 297 297 297 296 295 295 295 295 295 296 296 296 300 300 300 305 307 307 308 308 308 310 304 310 307 309 309 309 304 303 305 302 298 298 299 298
300 302 307 317 316 314 309 303 302 301 300 299 299 299 297 298 298 298 297 296 297 295 295 295 295 295 295 295 296 297 297 297 298 298 302 305 307 305 309 309 308 305 304 308 308 305 301 301 302 299 299 299 298 297
300 304 307 313 313 309 308 302 301 300 299 298 299 298 298 298 297 298 299 299 298 297 298 295 294 295 294 295 296 296 296 297 296 296 299 302 305 300 306 303 305 303 302 301 303 303 301 302 301 299 298 298 297 297
300 305 308 313 311 309 305 303 301 300 298 298 299 298 298 298 297 299 299 298 298 298 299 295 295 295 296 295 295 295 296 295 296 298 300 301 298 300 299 299 301 299 299 301 302 300 298 299 298 298 298 298 298 298
301 303 307 313 310 305 304 301 300 299 297 297 299 298 297 297 297 298 299 298 298 299 298 299 295 296 296 295 295 295 295 295 295 296 296 295 295 297 299 299 298 297 296 297 298 298 297 297 297 297 297 298 298 298
301 303 306 309 308 305 301 301 300 298 297 298 298 297 297 297 298 298 299 299 299 299 298 295 296 296 296 296 295 295 294 294 295 295 296 295 295 296 298 300 297 298 298 298 297 297 296 296 296 297 297 297 297 296
301 306 309 308 307 301 301 300 299 297 297 297 296 295 296 296 297 297 298 298 298 297 295 296 294 296 295 296 296 295 295 294 294 295 295 295 295 295 297 297 297 298 298 297 297 296 295 295 296 296 296 295 297 298
302 306 306 307 302 300 300 299 297 297 297 297 295 296 297 297 297 298 298 297 296 295 293 293 297 296 294 295 296 295 294 296 293 296 295 295 297 299 300 298 297 297 296 296 296 295 295 295 295 295 296 295 296 297
303 306 306 304 301 301 300 298 297 297 297 296 296 297 298 297 296 297 297 298 296 295 295 292 291 295 294 295 296 296 295 297 297 296 294 296 299 298 298 297 296 295 294 293 294 294 295 295 294 294 295 294 294 295
304 307 305 303 301 300 300 298 297 297 297 297 296 295 297 297 296 295 294 295 293 295 294 292 293 295 293 296 297 296 297 295 299 297 297 299 300 299 298 296 294 293 293 293 292 292 294 294 293 294 294 294 293 294
305 307 305 303 301 300 300 297 297 297 297 297 297 297 296 296 294 292 288 291 294 296 294 295 294 293 294 294 296 297 297 296 300 294 296 299 300 298 296 295 293 292 292 292 292 291 290 293 293 293 292 293 293 292
306 306 305 301 300 300 298 297 298 297 297 297 297 296 293 290 291 294 291 293 295 292 292 292 293 293 293 294 295 296 297 298 295 299 299 299 297 296 294 292 292 292 292 292 292 291 290 292 294 293 293 292 292 288
306 305 303 300 300 299 297 298 298 296 296 296 295 291 294 293 293 292 295 295 292 294 293 292 292 293 293 294 295 296 297 299 300 299 299 298 296 294 293 292 292 292 292 292 292 291 291 292 293 293 293 292 292 292
304 303 300 300 300 298 298 298 296 296 295 294 294 293 292 288 288 290 292 293 293 293 293 292 292 293 293 295 296 296 296 297 299 299 297 295 294 293 293 292 291 291 291 292 292 291 290 292 292 293 293 292 291 290
301 300 300 300 299 297 298 297 295 295 295 294 292 291 289 292 289 290 292 293 293 293 292 292 291 293 294 294 295 295 295 295 297 294 295 292 291 291 291 291 291 291 290 291 291 290 289 290 291 292 293 292 291 290
300 300 300 299 297 297 297 295 294 295 295 294 291 292 292 293 293 293 294 294 294 293 294 291 291 292 291 293 294 294 295 296 294 291 290 290 290 290 290 290 291 290 290 290 290 290 290 290 290 291 292 292 291 291
300 299 299 297 297 296 295 295 294 294 290 292 293 292 292 294 294 293 294 294 293 293 292 292 289 290 292 291 292 292 293 293 291 290 290 290 290 290 289 290 290 289 289 288 288 288 289 290 290 290 291 292 290 290
299 298 297 296 297 295 294 294 293 290 289 291 291 292 293 293 293 293 293 293 293 293 292 290 290 292 292 289 291 291 291 290 290 290 290 290 290 290 290 290 289 289 288 288 288 288 287 287 289 291 291 291 290 290
298 296 296 296 294 294 294 293 293 294 291 291 291 292 292 292 292 292 292 293 293 292 291 290 291 291 292 292 292 291 291 290 290 290 289 289 290 290 290 289 289 288 288 288 288 288 288 288 287 288 290 292 291 290
296 295 295 294 294 294 292 292 291 290 291 290 289 289 290 291 291 291 291 292 292 292 290 292 292 293 292 292 291 291 290 289 289 289 289 289 289 289 289 290 289 288 288 289 291 290 289 288 287 287 288 290 291 290
295 294 293 293 293 292 292 291 291 289 290 287 289 289 288 287 287 289 288 290 291 292 292 292 292 292 291 291 290 290 289 289 289 289 289 289 289 289 288 289 289 288 289 290 291 291 291 289 289 288 288 288 290 291
293 294 294 293 293 292 289 289 289 288 289 286 288 286 282 283 284 285 285 287 290 291 291 291 291 291 290 290 290 290 289 289 290 289 289 289 289 289 288 288 288 288 289 291 291 290 291 290 289 289 288 288 288 290
295 294 293 293 292 287 289 287 287 287 287 286 285 284 281 282 283 283 285 287 291 291 290 290 290 290 290 290 290 290 290 290 289 289 289 288 288 288 287 287 288 289 289 289 288 288 289 290 289 289 288 287 287 287
295 290 292 287 288 288 286 284 283 285 283 282 283 282 280 280 283 284 284 288 290 290 290 290 290 290 289 289 289 289 289 288 288 287 287 287 286 286 287 287 287 287 288 289 288 288 288 289 289 289 288 287 288 287
289 288 289 287 287 289 286 286 283 283 282 282 279 277 279 280 283 285 284 289 290 290 290 289 289 289 288 288 288 288 287 287 286 286 287 287 286 286 286 286 286 287 287 287 287 287 288 288 288 288 287 287 287 287
289 288 288 288 287 286 284 283 283 283 282 283 279 277 280 283 282 285 290 290 290 290 289 289 288 288 287 287 287 287 287 287 287 287 287 287 286 286 286 286 286 285 285 285 285 286 287 287 287 287 287 287 287 287
288 289 288 286 286 287 282 280 282 283 283 283 283 283 284 284 286 290 290 289 289 289 288 287 287 287 287 287 287 287 287 287 287 287 287 286 285 284 284 285 285 285 284 285 285 285 286 286 286 286 286 287 287 286
288 288 289 283 285 287 287 284 285 288 287 287 285 282 285 289 290 290 290 289 289 288 287 287 287 287 287 287 288 288 286 285 284 284 283 283 283 283 281 282 283 283 283 284 284 284 285 285 285 285 286 286 286 286
289 288 286 284 281 283 286 287 287 287 288 288 288 289 289 290 290 289 289 288 287 287 287 287 287 287 287 287 286 286 283 283 282 281 280 281 280 280 279 279 280 281 282 283 284 284 284 284 285 285 285 286 285 285
287 288 287 285 283 284 286 287 288 288 288 288 288 288 289 288 289 288 287 287 287 287 287 286 287 288 287 285 284 284 283 282 280 280 279 280 279 279 279 279 279 280 282 283 283 284 284 284 284 284 285 284 284 284
287 285 284 282 283 284 286 287 288 288 287 287 288 287 286 286 287 287 287 287 287 286 286 287 287 286 285 283 282 281 281 280 280 279 279 279 279 278 279 279 280 281 282 283 283 284 283 283 283 283 283 283 283 282
284 285 284 284 284 285 285 287 285 286 286 286 285 284 284 284 285 286 287 286 286 286 287 287 286 284 283 282 281 280 280 279 279 279 279 279 278 278 278 278 279 279 280 281 282 282 281 281 281 281 281 281 281 281

GFSWCAN_850_thetae_063.txt.gz
Theta_e
296 296 294 299 301 301 307 314 315 307 302 302 301 300 299 299 299 299 299 299 300 299 297 297 297 298 298 299 306 301 305 307 309 312 312 312 311 309 310 310 310 311 311 310 310 311 311 306 309 310 306 304 302 302
296 295 294 300 305 305 308 315 313 305 301 301 301 300 299 299 300 299 298 298 299 298 297 295 295 296 296 297 299 301 304 304 304 308 309 309 309 309 310 311 307 310 309 310 310 311 307 304 306 304 302 302 302 301
295 296 295 300 306 307 309 312 308 302 301 301 300 299 298 300 299 299 298 297 297 297 297 297 296 296 295 296 297 301 300 300 300 300 306 306 307 307 310 310 309 307 306 309 309 307 307 303 304 302 301 300 300 300
295 295 296 300 300 303 308 305 303 301 301 300 300 298 299 298 298 298 298 299 299 299 300 296 295 295 295 296 296 297 299 298 298 300 304 307 307 303 308 306 307 307 304 305 304 304 303 304 304 302 300 300 300 300
296 295 297 300 302 304 309 303 301 301 299 299 299 298 299 298 298 300 300 299 299 302 300 297 295 296 295 295 296 296 297 298 299 301 303 305 302 303 302 302 304 302 303 303 303 302 301 301 300 299 299 299 299 298
296 294 301 303 304 305 305 301 302 300 299 299 298 299 298 298 299 299 299 298 298 297 298 300 295 296 295 296 296 296 296 297 298 300 300 298 297 300 302 302 301 300 298 299 300 299 299 299 298 298 298 297 297 297
296 294 300 304 305 305 303 300 300 299 298 299 298 298 298 299 299 299 301 299 299 299 299 298 298 295 295 295 296 296 296 296 298 298 299 298 298 298 301 302 300 299 299 300 299 298 298 298 297 296 296 297 296 296
295 295 300 300 305 303 301 300 299 298 299 298 297 297 297 298 298 298 298 299 299 296 295 301 297 297 296 297 297 296 297 297 297 298 297 298 297 297 300 300 299 299 298 298 298 298 297 296 296 296 295 295 295 294
294 299 299 301 303 301 300 300 299 298 298 298 297 297 297 298 298 298 299 299 297 295 298 299 301 300 296 297 297 297 297 299 296 299 298 297 300 300 301 300 298 297 297 296 295 294 294 294 294 294 294 294 293 293
295 299 304 305 303 300 300 300 299 298 298 296 297 298 298 297 298 297 296 298 295 295 294 296 295 297 297 298 297 297 297 300 300 299 296 299 302 301 299 298 297 296 296 295 294 294 294 293 292 292 293 293 293 292
299 299 304 304 302 300 300 299 298 297 296 297 297 296 296 297 296 296 296 299 296 299 297 295 296 296 295 299 298 297 298 298 301 301 300 302 303 301 299 297 296 295 295 295 294 294 294 293 292 291 292 292 292 293
300 303 303 303 301 300 299 299 297 296 298 297 297 296 297 296 294 297 295 295 298 300 296 297 296 296 295 295 297 297 298 297 302 297 298 301 302 298 295 294 293 292 292 292 293 292 292 292 292 291 291 292 293 293
299 303 301 301 300 300 299 297 296 298 297 297 297 297 295 292 297 301 296 297 298 296 294 294 295 295 294 295 295 297 298 300 297 298 300 301 298 296 294 292 292 292 291 291 291 292 292 291 291 290 292 292 292 292
303 303 301 300 300 300 298 296 297 297 297 297 295 295 299 296 299 300 302 301 295 296 295 295 295 296 294 296 296 298 299 299 299 299 301 300 297 294 294 292 291 291 291 291 291 291 291 291 290 291 291 292 292 292
303 303 300 300 300 299 297 297 297 297 295 294 295 297 295 291 291 291 293 294 294 294 294 294 295 296 295 296 297 298 298 298 300 301 300 297 292 291 290 290 290 290 290 291 290 290 291 290 290 290 290 291 292 292
303 301 300 300 300 298 297 297 296 296 294 294 292 293 291 294 293 293 294 292 293 294 293 295 295 296 296 297 297 297 297 298 300 299 296 292 291 290 290 290 290 290 290 290 290 289 288 288 288 290 290 290 290 291
301 300 300 300 300 296 297 296 295 295 294 294 293 292 294 295 295 294 295 293 293 294 298 296 296 295 294 296 296 296 297 298 297 294 292 290 290 290 290 290 290 289 289 289 289 288 288 287 287 288 290 291 290 291
301 299 300 300 298 296 296 295 294 293 292 291 295 292 292 293 293 293 293 293 293 293 294 296 292 294 295 295 296 296 295 294 293 291 290 290 290 290 290 290 289 289 289 289 288 288 288 288 287 287 287 288 290 290
299 299 300 299 296 297 295 294 293 291 290 290 291 291 292 292 293 293 293 293 293 292 292 293 295 296 296 293 295 294 292 291 291 290 290 289 289 289 289 289 289 289 289 289 288 288 289 289 289 287 287 286 287 290
299 300 299 297 297 296 293 292 294 292 293 291 291 291 291 291 291 292 293 293 292 292 293 294 295 294 293 293 292 292 291 291 290 289 290 290 289 289 289 289 288 288 289 289 288 290 291 291 290 289 288 287 287 288
299 298 296 296 295 294 292 291 290 290 291 289 289 290 290 290 291 292 292 292 293 293 294 292 292 292 292 292 291 291 291 290 290 289 289 289 289 289 289 289 288 288 288 288 288 289 290 291 291 291 290 289 287 288
296 296 294 295 293 292 291 290 290 290 289 288 289 289 289 289 288 289 290 291 292 292 292 292 292 292 291 291 291 290 289 289 289 289 289 289 289 289 289 288 288 288 287 288 288 288 289 291 291 290 289 289 288 287
296 295 295 293 293 292 289 289 289 289 293 288 288 289 286 286 285 287 288 289 290 291 292 291 290 290 290 290 290 290 289 289 289 289 289 289 288 288 288 287 287 286 286 287 288 288 289 290 289 288 288 288 288 288
295 296 294 292 291 288 288 287 288 288 289 290 291 288 286 284 284 285 290 289 290 291 290 289 290 290 290 290 289 289 289 289 288 288 288 287 287 287 286 286 286 286 286 286 286 287 288 288 288 288 288 288 288 287
298 291 292 289 289 290 289 288 287 290 288 287 288 286 283 282 288 288 289 290 290 290 289 289 289 289 289 289 288 288 287 287 287 286 287 287 287 287 287 287 286 286 286 286 286 285 285 286 287 287 287 287 287 287
291 287 291 290 288 291 290 290 290 288 287 286 283 279 281 285 287 290 289 289 290 289 289 289 289 289 289 287 287 287 287 286 286 286 287 287 286 285 285 285 285 286 285 285 285 285 285 285 285 286 287 287 286 286
291 290 287 287 287 286 286 285 285 288 288 287 283 281 285 288 289 289 289 289 289 289 289 289 289 287 287 287 287 287 287 287 287 287 287 287 286 285 284 283 283 283 283 283 284 284 284 285 285 285 286 286 286 286
289 289 290 286 286 287 287 286 287 289 287 285 285 286 288 289 290 289 289 289 289 289 289 287 287 287 287 287 287 288 287 286 286 286 285 284 283 282 282 281 280 281 281 281 282 283 283 284 284 284 285 285 285 285
288 288 289 286 287 287 286 288 288 287 287 287 289 287 286 289 289 289 289 289 289 288 287 287 287 287 287 287 288 287 286 285 285 284 283 283 282 281 280 279 279 279 279 280 281 282 283 284 284 284 284 285 285 285
288 288 287 285 287 288 284 285 285 286 287 288 288 288 289 289 289 289 289 288 287 286 286 286 286 287 287 287 287 287 285 283 282 281 280 279 279 279 279 278 279 279 279 279 280 282 283 283 284 284 284 284 284 285
287 288 287 285 283 283 284 285 286 287 288 288 288 288 288 289 289 287 287 287 286 286 286 286 286 287 287 286 285 284 283 282 280 280 279 278 278 278 278 278 278 278 279 280 281 282 283 283 283 284 284 284 284 284
285 284 286 285 283 284 286 286 287 287 287 287 287 287 286 286 287 286 287 287 287 286 286 286 287 287 286 285 284 282 281 280 280 279 279 278 278 278 278 278 278 278 279 280 281 281 282 283 283 283 283 282 282 282
285 284 284 284 284 284 285 285 285 285 285 284 284 284 284 284 286 286 287 287 287 286 286 287 287 286 285 284 282 281 280 279 279 278 278 278 277 278 278 278 277 278 279 279 280 280 280 280 280 281 281 281 281 281

GFSWCAN_850_thetae_066.txt.gz
Theta_e
296 296 297 297 295 297 299 300 305 309 305 303 301 301 300 299 299 298 299 301 302 298 297 298 299 299 300 301 305 301 306 307 309 312 312 311 310 308 309 310 310 309 308 308 309 310 306 305 308 309 303 304 303 302
297 296 296 297 296 297 302 302 304 305 302 301 302 301 299 298 298 298 299 300 300 299 296 296 297 297 298 298 300 302 305 305 305 308 308 307 308 308 309 309 307 308 307 308 309 308 305 304 305 303 302 301 301 301
297 296 296 297 296 299 303 305 305 304 302 300 301 301 299 298 298 299 299 299 299 296 297 297 295 296 296 297 299 301 302 302 301 304 306 305 307 306 308 309 308 306 305 307 307 306 306 305 304 302 301 300 300 300
297 297 296 296 296 298 298 305 304 303 300 300 301 301 298 299 298 298 299 298 299 299 298 295 295 296 296 296 297 300 301 301 302 303 305 306 306 304 305 304 305 304 304 303 303 302 303 303 301 300 299 298 298 298
297 297 296 296 295 298 300 304 302 301 300 300 300 300 298 298 297 298 299 300 300 301 298 296 297 296 296 296 296 298 298 299 300 302 301 301 302 302 301 300 302 303 302 301 301 300 300 300 300 299 298 297 297 297
298 297 296 296 295 300 302 304 303 301 300 300 300 298 297 297 298 299 299 299 299 298 298 297 296 295 296 296 297 297 297 298 299 301 300 298 298 299 300 300 301 300 299 299 299 299 299 299 298 298 297 297 297 296
298 296 296 295 298 302 303 303 302 301 300 299 297 297 296 299 299 301 302 298 299 297 297 297 296 296 296 296 296 297 297 297 299 298 299 299 298 299 298 299 300 299 299 300 299 299 299 298 296 295 295 295 295 295
297 296 296 297 302 304 302 302 301 300 299 298 297 297 297 298 300 299 298 299 296 295 297 296 294 297 297 297 297 297 297 298 297 298 297 298 297 297 297 300 299 299 298 297 297 296 296 294 293 293 293 293 293 293
296 296 295 298 304 302 301 300 300 299 298 297 296 296 298 299 299 298 299 299 295 295 297 299 295 294 296 297 297 297 297 298 296 298 298 297 298 296 299 300 298 297 296 296 295 294 294 294 294 293 293 292 291 292
296 296 295 300 300 301 300 300 300 299 297 296 297 299 299 299 298 299 298 296 295 295 295 294 297 294 297 297 297 297 297 299 299 298 296 297 298 301 298 297 296 295 294 294 294 294 294 294 294 293 293 292 292 291
296 295 297 299 299 300 300 300 300 299 296 297 298 297 297 298 296 296 296 298 297 297 297 296 297 294 296 298 297 297 297 297 300 299 297 301 299 298 296 295 294 293 293 292 293 293 292 292 292 292 292 292 291 290
295 295 299 302 301 301 300 300 299 296 297 298 298 297 296 295 294 294 293 295 297 297 296 297 296 296 295 296 297 297 298 297 301 297 298 298 300 294 292 292 292 291 291 291 291 291 291 291 291 291 291 291 291 290
295 299 299 302 300 300 300 299 298 297 297 298 297 297 295 293 296 294 294 296 294 296 295 294 293 294 294 295 296 296 297 299 297 298 298 298 297 294 293 292 291 290 290 290 290 291 291 291 291 290 290 290 290 290
298 301 301 302 300 300 300 298 297 297 297 296 296 291 293 293 296 300 300 296 297 296 296 295 296 296 294 296 296 293 298 298 298 295 295 297 295 292 291 290 290 290 290 290 290 290 290 290 289 288 288 289 290 290
299 302 302 301 300 300 299 297 296 295 294 295 297 291 294 292 292 294 294 295 296 296 295 295 295 295 295 292 295 294 297 291 294 294 294 296 292 291 290 290 290 290 290 290 290 290 290 289 287 287 287 287 288 290
299 301 301 300 300 299 297 296 296 295 294 294 293 292 293 293 293 294 294 294 294 295 295 295 293 291 293 292 293 291 291 290 293 293 296 291 291 290 290 290 290 290 289 289 289 289 289 288 287 287 287 287 287 287
301 301 300 299 299 298 296 296 295 295 294 295 292 293 295 295 295 295 294 293 294 296 294 295 291 293 292 291 293 291 289 291 298 293 292 291 290 290 289 289 289 288 289 289 289 289 289 287 288 288 288 288 287 287
301 300 299 299 298 296 296 295 294 293 291 293 294 292 293 294 294 294 293 293 294 293 295 294 292 291 290 290 291 292 296 296 295 292 291 290 290 289 289 289 289 289 288 288 288 289 288 288 289 289 291 291 290 289
300 299 300 299 296 296 295 294 294 291 290 291 291 292 292 292 293 293 293 293 293 293 293 294 290 289 291 294 295 294 293 292 291 291 290 290 289 289 289 289 289 289 289 288 288 288 288 288 290 290 291 291 291 289
300 300 299 297 296 296 293 293 293 293 292 290 291 291 290 291 292 292 292 292 293 293 292 289 291 294 294 293 292 292 292 291 290 290 289 289 289 289 289 289 289 289 288 288 288 287 287 288 289 291 291 291 290 288
299 297 297 296 294 293 292 291 291 290 290 289 290 290 290 291 292 292 292 292 292 293 293 292 293 292 292 291 291 291 291 290 289 289 289 289 289 289 289 289 288 288 287 287 286 286 286 287 288 288 289 290 288 288
296 297 295 295 293 292 290 290 290 290 290 288 291 290 290 290 290 291 291 292 292 293 292 292 292 292 291 291 290 290 289 289 289 289 289 289 288 288 288 288 287 286 286 287 286 286 286 286 287 287 288 289 288 288
296 296 294 293 292 291 289 289 289 291 291 287 289 289 287 286 287 288 289 291 292 291 292 292 291 290 289 289 289 289 289 288 288 288 287 287 287 287 286 286 286 286 286 286 286 285 286 286 286 286 287 287 287 288
296 296 294 292 291 288 288 288 289 289 290 291 290 287 285 284 285 286 285 290 291 291 291 289 289 289 289 289 289 288 287 286 287 287 287 287 287 287 286 286 286 286 285 285 285 285 286 285 285 285 286 286 286 286
297 292 292 289 289 289 289 288 289 289 289 288 287 284 280 284 283 283 284 290 290 290 289 289 289 289 289 289 288 287 287 287 287 287 288 287 286 286 285 285 285 284 283 283 284 284 284 284 285 285 284 285 285 286
291 288 291 290 289 291 290 290 290 288 288 286 280 281 282 281 282 284 285 290 290 289 289 289 289 289 289 287 287 287 287 287 287 287 286 285 284 282 282 282 282 282 281 281 281 281 282 283 283 284 284 284 284 285
290 288 287 288 288 288 287 287 287 289 286 283 280 279 280 283 283 286 289 289 289 289 289 289 289 288 287 287 287 287 287 287 286 286 285 284 283 282 281 280 279 279 279 280 279 279 280 281 282 283 284 284 284 284
289 289 289 287 287 289 288 287 287 285 284 286 285 281 284 286 286 289 289 289 289 289 289 289 287 286 286 286 287 287 287 287 286 284 283 282 281 280 279 279 279 279 279 279 279 279 279 279 281 282 283 283 283 284
288 288 290 288 288 286 285 284 285 286 286 288 283 283 288 289 289 289 289 289 289 289 288 286 286 286 286 286 287 287 286 285 283 282 281 281 280 280 279 279 279 279 279 279 279 279 279 279 280 280 281 282 284 284
288 288 288 287 287 283 282 283 284 285 287 287 288 288 289 289 289 289 289 289 288 287 286 286 286 286 286 287 287 286 285 283 281 280 280 279 279 279 278 278 278 278 278 278 279 281 281 281 281 282 282 283 283 283
287 288 287 284 281 282 282 284 285 287 288 288 289 289 289 289 289 288 287 287 286 286 286 286 286 286 287 287 286 285 283 282 281 280 279 279 278 278 278 278 278 278 277 278 279 280 281 281 282 282 282 282 283 283
285 285 286 283 282 284 285 287 287 287 287 288 287 288 288 287 287 286 286 287 287 286 286 286 286 287 287 286 285 283 282 281 281 280 280 280 279 278 277 277 277 277 278 278 279 279 280 280 281 281 281 281 281 281
285 285 285 285 284 284 285 286 285 285 285 285 285 285 285 285 286 286 286 287 286 286 286 286 286 287 286 285 283 282 282 281 280 280 279 279 279 278 277 277 277 278 278 278 278 279 279 279 279 279 279 280 280 280

GFSWCAN_850_thetae_069.txt.gz
Theta_e
296 297 297 297 297 297 297 298 301 302 305 305 303 301 299 299 299 300 299 302 303 298 297 299 300 300 300 302 303 302 305 306 306 309 308 307 306 305 307 307 307 307 305 306 306 309 307 304 306 308 302 301 301 301
296 297 297 298 298 297 297 299 302 304 305 305 302 300 298 298 298 299 299 301 301 301 296 297 298 298 300 301 303 303 303 303 305 304 305 303 305 304 304 306 305 308 305 306 305 305 303 304 301 300 301 300 300 299
297 297 298 298 298 297 296 300 303 304 304 303 301 300 299 298 298 298 300 300 300 296 295 296 296 296 298 300 303 303 303 303 303 304 303 302 306 303 305 305 305 305 304 305 305 304 303 300 300 300 300 299 298 298
297 298 298 298 298 297 296 300 303 302 302 301 301 300 297 297 298 298 300 300 300 298 295 295 295 296 296 297 300 302 303 302 303 304 303 301 303 302 303 303 303 304 303 301 301 300 299 300 300 300 299 299 298 297
298 298 298 298 298 297 298 300 303 302 300 301 300 301 297 297 297 298 299 299 299 300 296 295 296 296 297 297 299 300 300 301 301 302 297 299 300 300 298 298 299 302 301 300 301 299 299 299 299 299 297 296 296 296
298 298 298 298 298 296 299 301 302 302 300 300 300 300 297 297 297 298 300 300 301 299 298 294 295 295 296 297 297 299 299 300 300 300 298 298 298 298 297 298 299 300 300 300 299 299 299 299 298 298 294 294 294 294
298 298 298 298 297 296 300 303 302 301 301 300 299 298 296 297 299 300 301 299 299 296 297 294 294 296 296 297 297 297 297 298 298 298 297 297 297 298 295 298 298 298 299 299 299 298 298 297 295 293 293 293 293 292
298 298 298 298 297 296 301 302 302 301 301 300 299 297 297 298 299 299 298 298 297 296 297 290 293 296 297 297 297 297 297 298 298 297 297 296 297 295 296 297 298 298 297 297 296 294 294 293 293 293 293 293 293 292
298 298 298 297 296 297 301 302 301 300 300 299 297 296 297 298 298 298 296 295 295 295 298 293 290 290 297 297 296 297 297 297 296 296 296 296 296 294 296 298 296 297 296 295 293 293 293 293 292 292 292 292 292 292
298 298 298 296 301 302 302 302 300 300 299 298 296 297 298 299 299 298 298 295 295 295 295 291 295 293 297 297 296 297 297 298 293 296 296 296 296 296 296 295 294 293 293 293 292 292 292 291 291 291 291 291 291 291
297 297 296 297 302 303 302 301 300 299 297 296 297 299 298 298 297 296 296 294 296 293 295 296 295 294 296 296 297 297 297 297 299 296 295 298 300 295 294 293 292 292 291 291 291 291 291 291 290 291 291 291 290 290
297 297 295 299 301 302 300 300 299 297 297 298 298 297 298 296 295 291 287 293 295 294 295 294 296 295 296 297 296 296 296 296 300 296 297 297 298 294 292 292 291 290 290 290 290 290 290 290 290 290 290 288 287 288
296 296 295 298 299 300 299 300 299 297 298 298 299 297 296 293 290 289 291 294 291 295 295 295 290 294 294 295 296 296 296 298 296 297 297 297 297 294 292 291 290 290 290 290 290 290 290 290 290 289 288 287 287 287
296 295 296 298 300 300 300 299 297 297 298 297 296 292 289 287 290 295 294 292 296 295 295 295 295 294 294 295 295 287 296 296 291 290 291 292 295 292 291 291 290 290 290 289 290 290 290 289 289 289 287 287 287 287
296 296 299 301 301 300 299 298 297 297 295 295 295 290 287 291 293 295 295 296 295 295 295 294 293 294 292 290 293 292 294 287 290 291 292 296 293 291 291 290 290 289 289 289 289 289 289 289 289 288 287 288 287 287
296 297 300 300 300 300 298 298 296 295 293 294 293 290 292 291 292 294 295 295 295 295 295 295 290 288 291 289 289 287 287 287 289 287 297 294 291 291 290 289 289 288 288 288 288 288 288 289 289 288 288 289 290 290
299 301 300 300 299 299 298 296 295 294 294 293 292 293 294 294 293 294 295 295 295 296 290 291 289 291 290 288 291 287 287 287 297 296 292 291 291 290 289 289 289 289 289 289 288 288 288 288 289 288 289 290 291 291
298 301 300 298 299 298 296 295 293 293 290 293 291 292 293 293 294 294 294 295 295 294 296 290 293 288 288 287 288 290 295 296 297 295 292 291 290 290 289 289 289 289 289 289 288 288 288 287 287 288 288 290 291 291
301 300 299 299 297 296 296 294 294 290 290 291 291 292 292 292 293 294 294 294 293 293 294 293 287 286 289 292 294 295 294 293 292 291 290 290 289 289 289 289 289 289 288 288 288 287 287 286 286 286 287 288 290 291
300 299 299 297 297 295 293 293 293 292 290 291 291 291 291 292 292 292 292 293 293 293 292 287 289 293 293 293 292 292 291 291 290 289 289 289 289 289 289 289 289 288 288 288 287 286 287 287 287 286 286 287 287 288
298 298 296 296 294 293 292 291 291 290 290 290 290 290 291 292 292 292 292 293 292 292 291 293 293 292 292 291 291 291 290 289 289 289 289 288 288 288 288 288 287 287 287 286 286 286 286 286 286 285 285 286 287 287
297 297 296 297 293 292 290 290 291 290 290 290 291 291 291 290 291 292 291 293 292 293 292 292 292 292 291 290 289 289 289 288 288 287 287 287 286 287 287 287 286 286 286 286 286 285 285 285 285 285 285 285 286 286
295 296 296 294 292 291 289 290 291 291 290 287 289 288 286 286 287 289 291 291 292 292 292 292 291 290 289 289 289 289 288 287 287 287 287 287 287 287 287 287 286 285 285 285 284 284 284 284 284 285 285 285 285 285
296 296 294 291 290 287 288 288 289 290 290 290 288 286 284 285 287 287 283 290 290 291 291 291 289 289 289 289 289 288 287 287 287 288 288 287 287 287 285 285 283 283 283 283 282 282 282 283 283 283 283 284 284 284
297 291 291 286 289 288 287 287 287 288 289 287 287 284 282 285 282 281 283 290 290 291 290 289 289 289 289 289 288 287 287 287 287 287 287 286 286 285 284 284 283 282 281 280 280 280 280 280 281 281 282 282 283 284
291 287 289 286 287 289 289 289 289 288 288 286 282 281 283 282 283 285 283 290 290 290 289 289 289 289 289 288 286 286 287 287 287 287 286 285 283 282 282 281 279 279 279 278 278 279 279 279 279 280 281 282 282 283
288 284 287 287 288 288 288 288 289 289 288 286 281 281 284 285 284 285 289 289 290 289 289 289 289 289 287 286 286 286 287 287 286 285 284 283 282 281 280 278 277 278 278 278 278 278 278 277 278 278 280 281 281 281
288 289 288 288 289 289 288 288 289 288 284 285 285 285 287 287 286 289 289 289 289 289 289 289 288 286 286 286 286 287 287 286 285 284 283 282 281 280 278 278 278 278 278 278 278 278 278 278 278 278 279 280 281 281
287 288 290 287 287 285 283 286 285 286 286 288 284 283 286 288 288 289 289 289 289 289 289 287 286 286 286 286 287 286 286 285 283 282 282 281 280 280 279 278 278 278 278 278 279 278 279 279 280 280 281 281 281 282
288 289 287 285 286 284 281 283 284 286 288 288 287 287 287 288 288 289 289 289 289 287 286 286 286 286 286 286 287 286 285 283 282 281 280 279 278 278 278 278 278 278 278 278 279 279 280 281 281 281 281 282 282 282
287 288 285 283 280 281 282 284 286 287 287 288 288 289 289 289 288 289 288 287 286 287 287 286 286 286 286 286 286 285 283 282 281 280 280 279 279 278 277 277 277 277 277 278 278 279 280 280 281 281 281 281 281 282
287 285 285 283 282 283 285 286 286 287 288 288 287 288 288 287 287 287 286 287 287 287 286 286 286 286 286 286 285 283 283 282 281 281 280 280 280 279 277 276 277 277 278 278 278 279 279 279 280 280 280 280 280 280
286 285 286 285 283 283 285 285 285 285 285 285 285 285 285 286 287 286 287 287 286 287 286 286 286 286 286 285 284 283 282 282 281 281 280 280 279 277 279 279 279 278 278 278 279 279 279 279 279 279 279 279 279 279

GFSWCAN_850_thetae_072.txt.gz
Theta_e
296 297 297 298 298 298 298 297 300 302 306 304 304 303 301 301 303 301 300 302 302 298 297 299 301 301 303 305 303 304 305 306 305 307 306 306 305 304 305 305 306 306 304 305 305 308 308 303 305 306 302 300 301 300
297 297 297 298 298 298 298 298 301 303 305 303 303 301 301 301 300 299 299 301 301 301 296 298 299 300 301 302 303 303 303 304 305 303 303 302 305 302 302 306 303 307 304 305 304 305 301 301 301 300 301 301 300 300
297 297 298 298 298 298 298 297 302 304 303 302 302 300 299 301 300 300 299 301 301 297 296 296 297 298 299 301 302 304 303 304 305 304 302 301 305 302 304 304 304 304 303 304 304 303 298 299 300 300 300 300 300 299
297 298 298 298 298 298 298 298 302 304 302 301 300 300 300 299 298 299 300 300 300 298 295 295 296 297 297 299 302 303 305 304 305 304 303 300 303 301 302 302 302 302 302 301 299 297 298 299 299 299 299 297 297 297
297 298 298 298 298 298 298 299 301 303 302 300 300 299 299 298 298 299 300 299 300 299 295 295 296 296 297 298 300 302 302 304 303 302 296 298 299 299 297 297 299 300 300 301 301 299 298 299 299 298 297 294 294 294
298 298 298 298 298 298 297 299 302 302 302 300 300 298 297 297 298 299 299 299 299 299 298 294 295 296 297 298 299 300 301 301 301 299 296 297 297 298 297 298 297 298 299 299 299 299 299 299 298 297 293 293 293 293
298 298 298 298 298 298 299 303 303 301 300 300 299 299 297 297 298 299 299 299 299 298 298 294 295 296 296 297 297 297 298 299 299 298 296 296 297 298 295 297 297 298 299 299 298 297 298 297 294 293 293 293 292 292
298 298 298 298 298 298 299 302 302 301 300 300 299 297 297 298 298 298 299 299 298 297 296 291 295 295 297 297 296 297 297 298 298 296 296 295 295 295 296 296 297 298 297 296 295 293 293 293 293 292 292 291 291 291
298 298 298 298 298 297 299 301 302 301 300 299 298 297 297 298 298 298 298 298 295 295 295 290 291 292 296 296 296 297 297 296 296 295 295 296 295 294 296 297 296 296 296 294 293 293 292 292 291 291 291 291 291 290
299 298 297 298 299 297 299 301 301 300 300 298 297 299 299 298 298 295 295 296 295 295 296 289 294 293 296 297 296 296 297 294 289 296 295 295 296 295 295 296 294 293 293 292 291 291 291 291 290 290 290 290 290 289
300 298 297 298 298 296 298 302 301 300 298 297 298 298 298 298 298 297 296 293 295 291 295 295 295 293 296 293 296 297 296 297 298 297 295 294 300 295 294 293 292 291 291 291 290 290 290 290 290 290 290 290 289 288
299 298 298 297 296 298 301 301 301 300 298 297 298 298 298 298 294 293 291 291 291 291 293 294 295 296 296 297 295 295 294 296 295 296 297 297 293 295 292 292 291 291 290 290 290 290 290 290 289 289 289 289 288 287
298 298 297 297 302 302 302 301 300 299 297 298 299 299 295 292 290 289 289 289 294 293 294 294 290 294 294 295 296 295 291 292 296 297 296 293 296 293 292 291 291 290 290 290 289 289 289 289 289 289 289 289 287 287
298 297 296 300 302 302 301 301 299 297 298 298 296 292 292 291 289 291 293 291 293 295 294 294 293 293 294 292 293 288 295 294 289 289 291 288 297 295 293 291 291 290 290 289 289 288 288 288 288 288 289 289 287 287
296 296 300 301 301 301 300 299 296 297 296 295 294 295 287 291 293 294 295 294 294 295 295 293 292 294 288 290 293 293 293 287 290 290 289 298 297 294 292 291 290 289 289 288 289 289 288 288 288 287 288 289 288 288
296 296 299 299 299 299 299 296 296 295 293 293 292 289 291 292 292 294 295 294 295 295 295 295 288 288 290 290 290 288 288 289 289 286 298 297 295 293 291 290 289 289 289 289 289 288 288 288 288 287 287 287 288 288
296 297 297 298 298 298 297 296 296 295 294 293 292 292 292 293 293 294 294 295 295 295 289 289 287 290 289 289 291 287 289 288 296 297 296 292 291 291 290 289 289 288 289 289 288 288 288 288 287 287 286 286 287 287
297 296 296 297 299 297 296 297 294 292 291 292 290 292 292 293 294 294 295 295 295 294 294 287 292 287 288 289 288 289 294 296 297 295 293 292 290 290 289 289 289 289 288 289 288 288 288 287 286 286 287 286 286 286
296 298 300 300 298 297 296 295 293 290 290 291 291 292 292 292 294 294 295 294 294 294 294 292 285 285 289 290 292 295 295 294 293 292 291 289 289 289 288 288 288 288 289 288 288 287 287 286 286 286 286 286 286 286
296 299 299 299 298 297 294 292 292 292 290 290 291 291 291 292 292 294 293 293 293 293 291 285 288 291 293 293 293 292 291 291 290 289 289 289 288 287 287 286 286 287 287 287 286 286 286 286 286 286 285 285 285 285
299 298 298 298 295 294 293 291 291 291 290 291 291 291 291 291 292 292 292 293 293 291 289 292 292 292 292 292 291 291 290 289 289 288 287 287 287 287 287 288 287 287 287 286 286 285 285 285 285 285 284 285 285 285
297 297 296 295 295 292 291 291 291 290 290 291 292 291 292 291 291 292 291 293 292 292 292 292 291 291 291 290 289 289 288 288 287 286 287 287 287 287 287 287 286 286 285 284 284 284 283 283 283 282 283 283 283 284
296 296 294 294 292 291 289 289 291 290 290 287 289 287 285 287 289 288 290 291 292 292 291 291 291 290 289 289 289 289 288 287 287 287 287 287 287 287 286 286 285 284 283 282 282 281 281 281 281 281 281 281 282 283
295 296 294 291 290 287 289 288 289 289 289 287 285 285 284 286 288 287 284 290 291 291 291 291 290 289 289 289 289 288 287 286 287 287 287 287 286 286 284 284 283 282 281 280 279 279 279 279 279 280 280 280 281 282
296 292 291 286 288 286 285 284 284 287 287 286 286 284 283 284 284 283 285 289 290 291 291 290 289 289 289 289 288 287 286 286 286 286 286 286 285 284 283 283 282 280 279 278 279 279 279 279 278 278 278 279 280 280
294 289 289 286 285 288 287 288 287 288 287 285 283 281 283 284 287 288 284 291 291 291 291 289 289 289 289 288 286 286 286 286 286 286 286 285 283 282 281 280 279 279 278 278 278 277 278 278 277 277 278 279 280 280
288 285 287 288 289 289 289 289 289 290 289 288 283 283 285 288 288 286 290 290 291 291 289 289 289 289 288 286 286 286 286 287 286 286 285 283 282 281 280 278 278 278 278 278 277 277 278 278 278 278 278 279 280 280
288 287 288 288 288 290 289 288 290 288 286 285 287 288 291 290 288 289 289 290 290 289 289 289 289 287 286 286 286 286 287 286 286 284 283 282 281 280 279 278 277 278 278 277 278 278 278 278 279 279 280 281 281 281
288 288 289 287 286 283 282 287 286 285 286 287 286 284 284 287 288 289 289 289 289 289 289 288 286 286 286 285 286 287 286 286 285 284 283 282 281 280 279 279 278 278 278 278 278 278 279 279 279 280 281 281 281 281
288 288 286 284 286 283 280 282 284 286 287 287 287 287 287 287 288 289 289 289 289 289 287 286 286 286 285 286 286 286 286 284 283 282 281 281 280 279 279 279 278 278 278 278 279 279 279 279 280 280 281 281 281 281
288 288 284 282 280 280 282 285 286 287 287 287 288 288 287 287 287 288 288 289 288 286 286 286 286 286 286 286 286 286 284 283 283 282 281 280 280 279 279 278 278 278 278 279 279 279 279 279 279 280 280 280 280 280
286 285 285 284 282 282 286 287 287 287 287 288 287 287 288 288 288 288 288 287 287 287 287 286 286 286 286 286 286 284 284 283 282 281 281 281 281 280 280 279 279 278 279 279 279 279 279 279 279 279 279 279 279 279
286 286 286 285 284 283 285 286 285 286 285 285 286 286 285 286 286 287 286 287 287 287 286 286 286 286 286 286 285 284 283 282 282 282 281 281 281 280 280 280 279 279 279 279 278 278 278 278 278 279 279 279 279 279

GFSWCAN_850_thetae_075.txt.gz
Theta_e
296 297 297 297 298 299 299 299 300 304 305 304 304 305 304 305 303 302 300 301 302 299 297 298 300 302 304 305 303 304 306 306 304 306 306 305 304 303 304 304 305 306 304 305 305 308 306 302 305 305 301 300 301 300
296 297 297 297 298 299 299 299 301 303 305 303 302 302 303 303 303 304 300 301 302 303 297 297 298 300 302 303 304 303 302 304 305 303 302 301 305 301 301 306 302 306 303 305 304 304 299 300 301 300 300 301 300 300
296 297 297 297 298 299 299 298 302 304 303 303 302 302 302 302 302 302 299 300 301 299 297 298 297 299 300 302 303 304 304 305 305 304 301 300 305 301 303 303 303 303 302 303 303 301 299 299 300 300 300 300 299 299
296 297 298 298 298 298 298 298 302 303 303 303 302 301 301 301 301 300 299 299 300 299 296 295 297 298 299 301 303 304 305 305 305 304 301 300 303 300 301 301 301 301 302 301 299 298 298 299 300 299 299 297 295 296
297 297 298 298 298 298 298 297 300 301 303 302 301 302 301 299 299 299 299 299 299 299 296 296 296 296 298 299 301 303 304 305 304 303 296 298 298 298 295 296 298 299 300 301 301 298 298 299 299 299 298 294 293 293
297 297 298 298 298 298 298 297 300 302 301 302 301 301 299 298 298 299 299 299 299 299 298 294 296 296 297 298 300 301 302 303 301 300 296 297 297 298 297 298 297 298 298 299 299 299 299 299 299 298 295 293 293 292
297 297 298 298 298 298 298 299 302 302 302 301 299 298 298 298 299 299 299 299 299 298 298 294 294 296 297 298 298 299 300 299 299 297 296 296 296 297 295 298 296 298 299 298 298 298 298 297 295 294 293 292 292 291
297 297 298 298 298 298 298 303 303 302 301 301 300 297 297 298 298 298 299 299 299 297 296 292 294 295 297 297 297 297 297 297 297 296 296 295 295 294 295 296 296 298 297 296 295 293 293 293 293 292 291 291 290 290
297 298 298 298 298 298 298 301 302 302 301 300 299 297 298 298 298 298 298 298 297 295 294 292 292 293 296 296 296 297 297 296 296 294 295 295 294 293 295 296 297 297 296 295 293 293 292 292 291 290 290 290 290 290
297 298 298 298 297 298 298 301 301 301 300 298 297 298 298 298 298 297 296 295 295 295 296 291 293 293 296 295 295 295 296 294 289 295 295 295 295 296 296 296 297 296 294 293 292 291 291 290 290 289 289 289 289 289
298 298 298 299 297 298 298 301 301 300 298 297 298 298 298 298 295 296 296 293 294 292 295 294 294 293 295 291 293 296 293 295 292 293 294 291 294 295 295 295 294 292 292 291 290 290 290 289 289 289 289 289 289 289
298 298 298 299 297 298 298 300 301 299 297 298 298 297 297 298 295 290 287 291 293 293 293 293 295 296 296 296 294 295 293 294 293 295 292 292 293 296 295 293 292 291 291 290 290 290 289 289 289 289 288 288 288 288
298 299 299 299 297 298 297 300 301 300 297 297 298 298 297 293 289 287 289 289 290 291 293 294 291 295 295 295 294 290 290 291 295 297 293 292 295 296 295 292 291 291 291 290 290 289 289 288 287 287 287 287 287 288
299 299 299 298 297 298 297 300 300 300 297 298 297 295 293 289 287 288 291 292 293 294 294 295 292 293 294 292 291 288 295 292 292 289 291 288 297 297 293 292 292 291 291 290 289 288 288 288 288 288 288 288 287 287
299 299 298 297 297 296 297 299 300 298 297 295 294 294 287 292 293 293 294 293 293 294 295 293 291 293 289 291 292 294 294 288 291 291 289 297 297 297 295 293 292 291 290 289 288 288 288 288 288 288 288 288 287 286
299 298 298 296 298 301 300 300 299 297 293 293 292 289 291 293 292 294 294 293 294 295 295 294 288 289 290 290 290 288 290 290 290 286 297 298 297 296 294 291 290 290 289 288 288 288 288 288 288 288 287 287 286 286
298 297 297 301 301 299 299 299 296 295 293 293 291 292 293 293 293 294 294 294 295 295 289 289 289 290 289 288 290 286 288 287 294 297 297 297 295 291 291 290 289 289 289 288 288 288 288 288 288 287 287 286 286 286
298 296 300 299 299 298 296 297 296 294 292 292 291 292 293 293 294 294 294 295 295 294 292 289 291 287 288 289 288 288 294 296 297 296 293 292 291 290 289 288 288 288 288 288 288 288 288 287 287 286 286 286 285 286
296 297 299 298 299 297 296 296 293 290 290 291 291 292 292 293 293 294 295 295 294 294 293 291 286 286 289 289 290 294 295 295 295 294 292 290 289 288 288 287 286 286 287 287 287 286 286 286 285 285 285 285 285 285
296 297 298 297 297 297 296 293 293 292 290 291 291 291 292 292 293 294 295 293 293 292 290 285 288 291 293 294 294 293 293 292 291 290 289 288 287 286 287 287 287 287 287 287 286 286 285 285 284 284 284 283 283 283
296 297 297 296 297 296 295 292 290 291 290 291 291 292 291 291 292 292 292 292 292 291 287 292 292 293 293 292 292 291 291 289 289 288 287 287 287 287 287 287 287 286 285 285 284 283 283 282 282 281 281 281 281 281
296 297 295 296 296 292 291 290 291 291 290 291 291 291 291 291 292 292 291 292 292 292 292 292 292 292 292 291 290 289 289 288 288 287 286 287 287 286 286 286 286 285 284 283 282 281 280 280 279 279 279 280 280 280
297 295 295 295 292 290 288 290 290 290 291 288 289 287 285 287 289 289 290 289 292 292 292 292 292 291 290 289 289 289 288 288 287 286 286 286 286 286 285 284 283 282 281 280 279 279 279 279 279 278 278 279 279 280
296 296 294 292 290 288 289 289 289 289 288 287 285 285 283 286 288 287 287 289 291 291 292 292 291 290 289 288 288 288 288 286 286 286 286 286 286 285 284 283 282 281 280 279 279 279 279 279 278 278 278 278 278 279
296 292 293 287 288 288 288 287 287 288 287 285 286 283 281 285 287 286 286 288 290 290 291 291 290 289 289 288 288 288 287 286 286 286 286 285 284 283 282 282 281 280 279 279 280 279 279 279 279 278 278 278 278 278
293 289 290 289 286 289 288 289 288 288 287 284 284 282 283 286 290 290 286 290 291 291 291 291 289 288 288 288 288 286 286 286 286 286 285 284 283 282 282 282 281 280 279 278 278 278 278 279 279 279 279 279 279 279
290 287 287 288 289 289 289 289 289 290 289 287 283 282 286 291 289 287 289 291 291 292 292 290 289 289 289 288 286 286 286 286 286 285 284 283 282 281 281 280 280 279 279 278 278 278 278 279 279 279 280 281 280 280
288 287 288 287 288 290 290 289 290 290 288 286 287 289 291 291 289 289 290 291 292 291 289 288 288 288 287 286 286 286 286 286 286 284 283 283 282 281 280 279 278 278 277 277 278 278 279 279 280 280 280 281 281 281
287 288 289 285 285 284 284 287 287 286 287 288 288 285 284 287 287 289 290 291 290 289 289 288 288 286 286 286 286 286 286 286 284 283 283 283 281 281 280 280 279 278 278 279 279 279 279 279 280 280 281 281 281 281
287 288 285 283 286 284 280 283 284 286 286 286 287 287 286 286 287 289 290 289 289 289 289 287 286 286 286 286 286 286 286 285 284 284 283 283 282 282 281 280 280 279 279 279 280 280 280 280 280 280 280 280 280 280
287 286 283 282 281 281 283 284 285 287 288 287 288 288 286 286 286 287 287 288 288 288 287 286 286 286 286 286 286 286 285 284 284 283 283 283 282 282 281 281 280 280 280 280 280 280 280 279 279 279 279 279 279 280
286 285 285 283 282 282 283 285 286 287 287 288 286 286 287 288 286 287 288 288 288 287 286 286 286 286 286 286 286 285 284 284 284 283 283 282 282 282 281 280 280 280 280 279 279 279 279 279 279 279 279 279 279 279
287 286 286 285 284 285 285 287 286 285 285 285 285 285 286 287 287 288 288 288 287 287 287 286 286 286 286 286 285 284 284 284 283 283 283 282 282 281 280 280 280 280 280 279 280 279 279 279 279 279 279 279 279 279

GFSWCAN_850_thetae_078.txt.gz
Theta_e
288 292 296 298 298 298 299 299 303 304 305 305 306 306 305 305 304 303 301 302 302 299 297 299 300 302 304 305 304 304 305 306 304 305 305 304 304 303 303 303 305 305 304 304 306 308 305 300 305 305 301 300 300 301
289 293 296 298 298 299 299 299 303 305 304 303 303 305 306 306 305 303 301 302 303 303 297 298 299 300 301 302 304 303 302 303 304 302 301 301 304 299 300 305 301 305 303 304 303 303 299 300 300 300 300 301 300 300
290 294 297 298 298 299 299 299 304 305 304 303 303 304 304 304 305 303 300 300 301 300 297 298 298 299 300 303 304 304 304 305 305 304 300 300 305 300 303 302 302 302 301 302 303 300 299 299 300 300 300 300 299 298
291 296 297 298 299 298 298 299 303 303 303 302 302 302 303 303 303 304 300 299 300 300 297 296 298 299 300 302 303 304 305 305 305 304 301 300 303 299 300 300 301 301 301 300 300 298 298 299 300 300 299 297 295 295
291 295 297 297 299 298 298 298 302 302 302 302 302 302 301 302 302 301 299 299 299 299 296 296 297 297 299 300 302 304 304 305 304 302 295 297 297 297 294 296 298 299 300 301 302 299 299 299 300 299 298 296 293 293
292 295 297 297 298 298 298 298 298 302 301 301 302 302 300 299 299 299 299 299 299 299 299 293 296 296 298 299 301 302 303 303 302 300 296 297 297 297 297 298 297 298 299 299 299 299 299 299 299 299 297 293 293 292
293 296 296 297 298 298 298 297 299 301 301 301 301 301 298 298 299 299 299 299 299 298 298 292 293 296 297 298 299 300 300 300 300 297 296 295 296 297 295 298 296 298 298 299 299 299 297 298 296 295 294 292 292 291
293 296 297 297 298 298 297 300 303 302 301 301 299 298 298 299 299 299 299 299 298 297 298 291 292 295 297 297 297 298 298 298 297 295 295 294 294 294 295 296 297 298 298 296 295 294 293 293 293 292 291 290 290 290
294 297 297 298 298 298 297 300 302 302 301 300 299 297 297 298 299 298 298 298 297 296 295 292 292 291 296 296 297 297 297 296 296 294 294 294 294 294 295 295 296 298 297 296 294 293 292 292 291 290 290 289 289 289
295 297 297 298 298 298 298 300 302 301 300 300 297 298 298 298 298 298 298 299 296 295 296 289 293 291 295 295 294 296 295 295 292 295 294 294 294 296 297 297 297 297 297 295 292 291 291 291 290 290 289 289 289 288
296 297 297 298 298 298 298 299 301 300 299 297 297 298 297 297 297 295 296 293 293 292 294 294 294 293 295 293 293 295 291 291 291 294 294 290 293 294 296 297 297 296 294 292 291 290 290 290 290 289 289 288 288 287
296 297 298 298 298 298 298 298 301 301 299 297 297 297 296 296 295 290 288 291 291 292 292 293 294 295 295 296 294 294 291 289 294 293 290 290 291 296 296 295 294 292 291 290 290 290 290 289 289 288 287 287 287 287
296 297 298 298 298 298 298 298 300 301 298 297 297 297 296 293 289 289 289 287 291 291 292 293 291 295 294 295 292 289 289 291 294 295 290 290 294 297 296 294 293 292 291 291 291 290 289 289 288 288 288 288 288 287
296 297 298 298 299 299 298 298 300 300 298 297 296 293 291 288 289 290 290 292 293 294 293 295 291 293 294 291 290 288 295 293 291 288 290 286 296 297 296 295 292 292 291 291 290 289 288 288 288 288 288 287 288 288
297 298 298 299 299 298 298 298 299 298 297 297 293 291 289 292 292 291 293 294 293 294 295 293 291 293 288 290 292 294 294 290 290 291 288 296 296 297 296 293 293 292 291 290 289 288 288 288 288 288 288 287 288 287
297 298 299 299 298 298 298 297 299 298 297 294 292 287 290 291 291 291 293 293 294 295 295 294 287 286 289 290 290 291 290 290 291 286 296 297 297 297 296 294 292 290 289 288 288 288 288 288 287 287 287 287 287 286
298 300 299 299 298 298 298 297 298 298 298 293 291 292 292 292 293 294 294 294 294 294 289 288 287 290 288 286 291 287 289 288 293 297 298 296 296 294 292 290 289 288 288 287 287 287 287 286 286 286 286 286 285 285
299 300 299 298 298 297 297 297 298 298 293 293 290 292 292 292 293 294 294 294 294 294 291 289 290 286 288 290 289 288 292 295 297 296 295 293 291 291 289 288 288 287 286 287 287 287 287 286 286 286 285 285 284 284
299 299 298 298 296 297 297 295 296 292 292 291 291 292 292 292 293 293 294 294 294 294 294 290 285 286 288 288 288 293 296 296 295 294 293 291 289 288 287 286 286 287 287 287 286 286 285 284 283 283 282 282 281 282
299 299 297 298 298 298 296 293 294 292 289 291 291 292 292 292 292 292 293 294 293 293 290 286 289 291 292 294 295 295 294 294 293 291 289 288 287 286 287 287 287 286 286 286 285 283 283 282 281 281 280 279 279 279
297 297 297 297 298 297 295 293 292 292 291 291 291 292 291 291 291 292 293 293 292 291 285 292 292 293 294 293 293 293 292 291 289 289 288 287 286 287 286 286 286 285 285 283 282 281 280 279 279 279 279 279 279 279
297 296 296 296 296 293 292 291 291 290 291 291 291 291 291 290 292 292 291 291 291 292 292 292 292 293 292 292 291 291 289 289 288 288 287 286 286 286 286 286 286 285 283 282 281 279 279 279 279 279 278 278 278 278
296 296 295 296 292 291 288 290 290 290 290 289 288 288 288 288 290 289 289 290 292 292 292 292 292 292 292 291 289 289 289 288 288 287 286 286 286 286 285 285 284 283 282 280 279 279 279 279 279 279 278 278 278 279
296 296 296 293 291 288 289 289 289 289 289 288 289 289 286 286 287 287 287 289 291 291 292 291 291 291 290 289 289 289 288 288 286 286 286 286 286 285 284 283 282 281 280 279 279 279 279 279 279 279 279 279 279 279
295 294 294 288 288 287 285 287 288 290 289 288 288 287 285 285 285 283 287 289 291 291 291 291 291 291 290 289 288 288 288 286 286 286 286 286 286 284 283 282 281 280 279 280 280 280 280 280 279 280 280 279 279 279
294 290 291 290 288 286 285 288 288 288 288 287 288 284 284 286 288 290 288 292 292 292 291 291 291 289 289 289 289 288 287 286 286 286 286 286 285 283 282 282 281 280 279 279 279 280 280 280 280 280 280 280 280 280
289 288 289 290 289 289 288 289 289 289 289 289 285 283 286 291 292 288 291 293 293 293 293 292 292 290 289 289 288 286 286 286 286 286 286 284 283 283 282 282 281 280 280 279 279 279 279 280 280 280 280 281 280 280
290 287 284 287 289 289 288 289 290 292 289 287 287 288 291 291 291 290 290 291 293 293 292 291 289 289 288 287 286 286 286 286 287 286 284 283 283 283 282 281 280 280 280 279 279 279 279 279 280 280 280 280 280 280
287 287 288 280 284 285 285 289 289 290 289 288 290 286 285 287 288 289 291 291 292 292 291 289 288 288 287 286 286 286 286 287 286 285 284 283 283 282 282 281 280 280 280 280 279 279 280 280 280 280 280 280 280 280
287 288 285 282 283 284 282 285 285 286 287 288 287 286 285 286 287 288 290 291 291 291 290 289 289 288 287 287 286 286 287 286 285 284 284 283 283 282 281 281 281 281 281 281 280 280 280 280 279 279 279 279 279 279
288 286 283 282 280 280 281 283 285 286 287 287 287 286 285 286 286 288 289 290 290 289 289 288 286 286 287 286 286 287 286 285 284 284 284 283 283 282 282 282 282 281 281 281 280 280 280 280 280 279 279 279 279 279
286 285 283 283 282 282 284 286 285 285 286 286 286 285 286 287 286 286 287 288 288 289 288 287 287 286 286 286 287 286 285 285 284 284 283 283 283 283 282 282 281 281 281 281 280 280 280 280 279 279 279 279 279 279
286 285 285 284 283 283 284 285 285 284 284 283 283 284 284 287 286 287 287 288 288 287 287 287 286 286 286 286 286 285 285 284 284 284 283 283 283 283 282 282 282 281 281 281 280 280 280 279 279 279 279 278 278 279

GFSWCAN_850_thetae_081.txt.gz
Theta_e
300 289 293 296 298 299 298 301 304 304 304 306 306 306 305 305 303 302 302 303 304 301 298 299 300 302 303 304 303 304 305 306 303 305 304 303 303 302 303 303 305 305 303 304 304 305 304 300 304 305 301 300 300 301
300 289 293 296 298 299 298 300 304 304 303 303 304 305 305 305 304 303 302 303 304 305 299 299 299 300 301 302 305 304 303 303 303 302 301 300 303 298 299 304 300 304 302 304 303 303 299 300 301 301 301 301 301 300
298 289 293 296 298 299 298 298 304 304 303 302 302 303 306 306 306 301 301 302 302 301 298 299 299 300 301 303 304 304 304 305 305 304 300 299 305 299 302 301 301 301 300 302 303 300 299 300 300 300 300 300 300 300
295 289 292 296 298 298 298 298 302 303 303 302 302 303 304 305 305 303 300 300 302 301 299 298 299 300 301 302 304 304 305 305 305 304 301 299 303 299 300 299 300 300 300 300 300 299 299 300 300 300 300 299 298 296
292 289 293 296 297 298 298 298 298 302 302 301 301 301 301 303 303 303 300 299 300 299 297 297 298 299 300 302 303 304 304 305 304 303 295 298 297 297 294 295 297 299 300 301 302 299 300 299 300 299 299 297 295 293
290 289 293 296 297 298 298 297 297 300 302 301 301 302 301 300 301 300 299 299 299 300 300 293 296 297 299 300 302 303 303 303 302 301 296 297 297 297 297 298 298 300 301 300 299 299 299 299 299 299 298 296 293 292
289 290 293 296 297 298 298 297 297 297 301 302 301 302 300 299 299 299 299 299 299 298 299 292 293 296 298 299 300 300 301 301 300 298 296 296 296 297 295 298 298 298 299 299 299 299 298 298 297 297 296 293 291 290
289 290 293 296 297 298 298 298 303 302 301 302 301 300 299 299 298 299 299 299 298 297 298 290 291 295 297 297 298 299 299 298 297 296 295 294 294 293 295 296 297 298 298 297 296 296 294 293 294 293 291 290 290 290
289 291 294 296 297 298 297 300 302 302 302 301 299 298 297 298 299 298 298 298 298 296 296 292 293 292 296 296 297 297 297 296 296 294 294 294 293 294 296 296 296 298 298 297 295 294 293 292 292 291 290 289 289 289
289 291 294 297 297 298 297 300 302 301 301 300 298 297 297 298 298 298 298 298 298 295 295 291 294 292 295 295 294 295 295 294 290 294 294 294 294 296 297 297 297 297 297 296 294 292 291 291 290 290 290 289 289 288
289 292 295 297 297 298 298 298 302 301 300 299 297 297 297 297 298 295 296 293 293 292 294 294 295 294 295 292 294 295 291 289 290 293 294 291 293 294 297 297 297 297 297 296 293 291 290 290 290 290 289 288 287 287
290 292 295 297 298 297 298 298 301 301 300 298 297 297 297 297 295 290 286 290 290 292 292 293 294 295 295 296 294 294 291 289 293 292 290 291 291 296 296 296 296 296 294 292 291 290 290 290 290 289 288 287 287 287
291 293 295 297 298 298 298 297 300 301 300 297 297 297 296 294 289 288 290 289 289 291 292 293 293 295 294 295 292 288 290 292 293 293 290 290 293 296 296 295 294 292 292 291 291 290 290 289 288 288 287 287 287 287
291 293 295 297 298 298 298 298 299 300 300 297 297 296 293 289 289 291 292 293 293 294 293 295 292 293 294 291 290 288 293 293 292 289 290 286 295 297 297 295 294 292 291 291 291 290 289 288 288 287 287 287 287 287
292 294 296 297 298 298 299 298 298 299 299 298 295 292 291 293 291 291 291 293 293 294 295 293 291 293 289 290 292 294 293 290 290 290 288 294 296 297 296 295 293 292 292 290 289 288 288 287 287 287 287 287 287 286
293 295 297 297 299 299 299 298 298 299 298 297 294 288 289 289 290 291 292 293 293 294 295 294 289 289 290 290 290 290 289 290 291 286 294 296 296 296 296 294 293 291 290 288 288 287 286 286 286 286 286 286 286 285
294 296 298 298 299 299 298 298 298 297 297 295 292 292 291 291 291 293 293 293 294 294 293 290 289 292 288 286 289 288 290 289 292 295 297 296 296 295 294 291 290 288 287 286 286 287 286 286 285 285 285 284 283 283
295 297 298 299 299 298 299 298 297 297 294 294 291 294 292 292 293 294 294 294 293 293 291 289 290 287 290 289 290 289 291 292 296 296 295 294 292 291 290 288 287 286 287 287 286 286 285 285 284 283 282 281 281 281
296 298 298 299 298 299 297 297 296 295 293 293 293 293 292 292 293 294 294 293 294 293 292 290 286 287 289 289 289 292 294 296 295 293 292 291 290 288 287 286 286 286 286 286 285 285 283 283 282 281 281 280 279 279
297 297 299 299 298 298 296 295 295 296 289 293 291 292 293 293 292 294 294 293 293 293 289 285 289 291 292 294 295 296 296 295 293 292 290 289 288 286 286 286 286 286 286 285 284 283 283 282 281 281 280 279 278 279
298 298 298 298 297 297 297 293 293 292 291 291 291 292 291 291 292 293 292 293 291 290 287 292 293 293 294 295 296 295 294 293 292 290 289 287 286 286 286 286 286 286 285 284 283 282 281 280 280 280 280 279 279 279
297 298 297 297 296 294 294 292 292 291 290 290 291 291 291 289 290 292 291 292 291 294 293 293 293 294 294 294 294 292 291 289 289 288 287 287 286 286 286 286 286 284 283 282 281 281 280 280 280 280 279 279 279 279
297 296 296 296 294 291 289 290 290 290 289 288 289 289 289 289 291 291 289 292 294 293 294 293 293 293 293 292 290 289 288 289 288 287 287 286 286 286 286 285 284 283 282 282 281 280 280 280 280 280 280 280 280 280
296 296 297 295 292 289 289 289 290 289 288 289 289 291 287 287 286 286 288 289 293 294 293 293 292 291 290 289 289 289 289 288 288 287 286 287 286 286 285 284 283 283 282 281 280 280 280 280 280 280 280 281 281 281
296 294 294 289 289 285 282 285 286 289 289 289 288 287 286 285 288 287 286 290 292 293 292 292 291 291 290 289 288 288 288 288 287 286 287 287 286 285 284 284 283 282 281 280 280 280 280 280 280 280 280 281 281 281
296 291 292 286 286 285 284 285 286 286 283 284 287 285 285 287 289 291 288 293 294 294 293 293 292 290 289 290 289 288 288 287 286 287 287 286 286 285 284 283 282 281 281 281 281 281 280 280 280 281 281 281 281 281
291 289 290 290 290 288 286 288 288 286 286 285 284 283 287 292 292 290 297 296 296 296 295 294 293 292 290 289 289 288 287 286 287 287 287 286 285 284 283 283 282 281 281 281 281 281 280 280 281 281 281 281 280 281
291 288 287 287 288 289 284 285 287 289 288 288 287 288 292 293 293 293 293 294 296 296 294 293 292 291 289 289 289 288 287 287 287 287 286 285 284 284 283 283 282 282 282 282 281 281 280 280 281 280 280 280 280 280
287 287 290 280 284 288 285 287 289 293 293 290 291 289 289 291 292 291 291 291 293 293 293 292 290 288 289 288 287 286 287 287 287 287 285 284 284 283 283 282 282 282 282 281 281 281 280 280 280 280 280 280 280 280
286 288 284 282 286 287 285 287 289 289 289 290 290 289 288 288 289 290 289 290 291 292 292 291 289 288 289 288 287 287 287 287 287 285 285 285 284 283 283 282 282 282 281 281 281 280 280 280 280 280 279 279 279 279
288 287 283 282 281 281 282 284 285 285 286 287 287 288 287 287 287 288 288 289 289 290 290 289 289 289 288 287 287 287 287 287 286 285 284 284 284 283 282 282 282 281 281 281 281 280 280 280 280 280 280 280 279 279
287 284 283 282 279 281 284 285 285 285 285 286 285 286 286 286 286 287 287 289 289 290 289 289 289 287 287 286 287 287 287 286 286 285 284 284 283 283 283 282 282 281 281 281 281 280 280 280 280 280 280 279 279 279
285 284 283 282 282 281 284 285 285 283 283 283 283 284 285 286 286 287 287 288 289 289 289 288 287 287 286 286 287 287 286 285 285 284 284 283 283 283 282 282 281 281 281 281 281 280 280 280 280 280 279 279 279 279

GFSWCAN_850_thetae_084.txt.gz
Theta_e
304 301 291 292 297 299 299 303 304 303 304 305 305 305 305 303 303 302 304 304 305 302 299 301 302 302 303 304 309 306 308 308 309 310 309 308 309 307 307 306 308 309 310 310 309 310 309 303 305 308 305 301 302 302
304 302 291 292 296 299 299 300 304 303 303 304 304 305 305 305 304 302 303 305 305 305 300 301 301 302 303 303 304 304 305 305 306 309 307 307 308 305 306 309 304 308 307 309 308 308 303 302 303 302 301 302 301 301
304 301 292 291 295 298 298 297 302 304 303 302 302 304 305 305 306 301 301 302 304 302 299 300 300 301 303 304 304 304 305 305 305 305 306 306 309 305 309 308 306 304 302 307 307 304 304 302 301 301 301 300 300 300
304 301 292 291 295 297 299 299 298 302 302 302 302 302 304 305 305 304 300 301 303 303 303 300 300 301 302 303 304 304 304 305 305 304 305 307 308 302 307 304 305 305 303 306 306 305 301 301 300 301 300 300 299 297
304 301 292 291 295 297 298 298 297 298 301 302 301 302 302 302 304 304 302 299 300 300 301 298 299 299 301 302 303 304 304 304 304 304 306 307 301 302 299 301 305 302 306 307 308 303 303 302 300 300 299 299 297 295
305 301 291 291 295 297 298 298 297 297 299 302 301 302 301 301 302 303 300 299 299 300 300 301 298 298 299 300 302 303 303 303 303 302 302 298 298 301 305 305 304 301 302 302 303 301 300 300 300 299 299 298 297 294
304 301 291 291 294 297 298 298 297 297 297 301 301 301 301 299 301 299 299 299 298 298 299 297 298 297 298 299 300 301 301 301 301 299 299 299 298 299 302 305 303 300 301 300 300 300 299 298 298 298 298 296 293 291
304 301 291 291 295 298 298 297 301 302 301 301 301 301 301 299 299 298 299 299 298 297 298 297 298 296 297 298 298 299 299 299 298 297 296 298 296 296 302 302 298 298 298 298 298 298 296 295 295 294 292 291 290 290
304 300 290 291 295 298 298 298 301 301 301 300 299 298 298 298 299 299 298 298 298 297 295 296 300 300 296 296 297 297 298 301 296 298 297 296 299 301 302 300 297 298 298 298 296 294 293 293 292 292 291 290 290 290
304 299 290 292 295 298 298 299 301 301 301 299 297 297 297 298 298 298 298 298 298 297 295 297 294 298 296 295 296 298 296 299 301 298 294 297 300 299 298 297 297 298 298 297 295 293 293 292 291 290 290 290 290 289
303 296 290 292 295 297 298 298 302 300 300 300 298 297 297 298 297 297 295 296 294 295 294 294 295 296 295 299 299 296 298 296 300 298 298 300 300 298 297 297 297 297 297 296 295 293 291 291 291 290 290 289 288 288
302 293 290 293 296 297 298 298 301 301 300 299 297 297 297 297 296 295 294 292 293 296 293 295 295 295 295 296 297 295 298 295 300 294 297 300 299 296 296 296 297 297 297 296 292 290 290 291 290 289 289 288 287 287
301 291 290 293 296 297 298 298 299 301 300 298 297 297 296 293 294 295 295 294 293 293 293 293 296 295 294 294 294 295 296 298 294 297 299 299 294 296 296 296 296 295 293 291 291 290 291 290 289 288 288 287 287 287
298 290 291 294 296 297 298 298 298 300 300 299 297 297 297 295 293 295 296 296 293 293 293 295 293 295 294 295 294 296 295 295 296 295 298 297 295 296 296 295 294 292 291 291 291 291 290 288 288 287 286 286 286 286
293 289 291 294 296 297 298 299 298 299 300 299 297 297 296 295 292 292 292 291 293 293 294 294 293 293 294 294 294 295 294 295 295 299 298 293 296 297 295 294 293 292 292 292 291 289 287 286 286 287 286 286 285 285
289 290 292 294 296 298 298 299 298 299 299 298 296 293 290 290 290 291 292 292 293 294 295 294 294 294 296 295 295 295 295 297 301 295 293 295 296 296 295 294 293 292 292 290 288 286 286 286 286 286 285 284 283 282
289 291 292 296 297 298 299 299 298 297 298 296 293 295 292 291 292 292 293 293 293 294 296 294 295 298 291 294 295 294 296 299 293 293 295 296 296 295 294 293 292 290 288 287 286 286 286 285 285 284 284 283 282 282
290 291 295 297 298 300 299 298 298 297 296 295 294 295 293 293 293 294 294 294 293 294 292 293 290 293 296 296 297 296 292 291 293 295 295 295 294 293 292 290 288 287 286 286 286 286 285 284 284 283 282 282 282 282
290 294 298 298 299 299 298 298 297 296 295 293 294 294 293 293 293 293 294 294 294 294 293 290 291 294 295 293 294 292 292 295 293 293 293 292 290 290 288 287 286 286 286 286 286 285 284 283 282 282 282 282 281 280
292 296 298 299 299 299 298 297 296 296 290 293 293 293 294 294 294 293 293 293 294 294 292 290 291 293 293 294 293 293 295 296 294 291 290 289 289 287 286 286 286 286 286 285 284 284 283 283 282 282 282 280 280 281
295 297 298 299 298 298 297 295 294 294 293 292 292 293 292 291 291 291 292 292 292 293 292 296 296 296 295 294 294 294 296 295 294 293 292 289 288 286 286 286 286 286 285 284 283 283 282 282 282 282 281 281 281 281
296 296 298 297 298 297 297 294 293 292 291 290 289 291 290 288 289 291 291 290 291 295 296 297 296 296 295 295 295 295 295 294 293 290 289 288 287 286 286 286 286 285 285 284 283 283 282 282 282 281 281 281 281 281
297 296 297 297 296 294 292 292 291 290 288 289 288 287 287 289 291 290 290 292 294 296 297 297 297 295 294 295 295 293 293 291 289 288 288 287 286 286 286 286 285 285 284 283 283 282 282 281 281 281 281 281 282 282
297 297 298 296 295 291 288 288 289 289 288 288 288 289 288 288 287 287 292 292 296 297 298 297 294 293 293 294 292 291 289 288 288 287 287 287 287 287 286 285 285 284 283 283 282 282 281 280 281 281 281 282 282 282
296 295 296 292 289 286 285 287 287 288 288 287 286 286 284 286 288 288 289 292 296 296 295 295 293 293 294 293 291 289 288 288 288 287 287 287 287 286 285 285 284 283 283 283 282 281 280 280 280 281 281 281 282 281
296 295 292 290 286 286 285 285 285 285 285 285 287 285 285 285 287 290 289 297 298 297 295 295 294 292 292 293 291 289 288 288 286 286 287 287 286 285 285 285 284 283 283 283 282 281 281 281 281 281 281 281 281 281
296 292 290 290 289 287 286 287 287 285 283 284 283 282 284 286 288 290 297 298 298 299 298 296 295 294 294 292 291 289 288 288 286 286 287 287 285 285 285 285 284 284 284 283 282 281 281 281 281 281 281 280 280 280
292 289 287 287 287 289 284 285 285 287 287 286 286 283 287 290 293 298 298 298 297 297 296 295 293 293 293 293 291 289 288 287 287 286 286 286 285 285 284 284 284 284 284 282 282 281 281 281 281 281 280 280 280 280
289 289 289 280 283 285 286 288 288 293 293 288 290 289 287 294 298 298 297 295 293 294 294 293 291 291 292 291 289 289 288 287 287 287 287 286 285 285 284 284 284 284 283 282 282 281 281 281 281 281 280 280 280 280
286 290 284 280 286 289 289 291 293 294 293 293 293 293 292 294 296 297 295 292 292 292 292 291 292 292 291 290 288 288 287 286 287 287 286 286 286 285 285 284 284 283 282 281 281 281 281 281 281 280 280 279 279 279
289 287 283 283 285 285 285 287 288 288 289 289 290 290 292 292 292 292 292 290 291 292 290 289 290 290 289 289 289 288 287 287 287 287 286 285 285 285 284 284 283 282 281 281 281 281 281 280 280 279 279 279 279 279
286 284 282 282 280 281 283 284 285 285 285 286 286 287 286 288 288 291 292 290 292 291 290 289 290 289 289 289 289 288 287 288 288 286 285 285 285 284 284 283 282 282 281 281 281 281 280 280 280 279 279 279 279 279
283 283 282 281 280 280 283 284 283 281 283 283 284 285 285 286 288 290 292 293 290 290 289 288 290 289 288 287 287 287 288 287 286 285 285 284 284 284 283 282 282 281 281 281 281 280 280 280 280 279 279 279 279 279

GFSWCAN_850_thetae_087.txt.gz
Theta_e
307 306 304 294 293 297 298 303 304 303 303 304 305 305 305 304 304 302 304 304 305 304 302 302 303 306 306 308 312 309 310 310 312 312 311 310 310 310 309 309 309 310 310 310 310 311 310 307 307 309 307 304 306 305
307 306 304 296 292 296 299 298 303 304 303 302 303 305 305 306 305 302 301 303 304 305 302 303 303 304 304 305 306 307 308 309 310 312 310 309 309 308 309 309 307 309 309 310 309 310 306 306 307 304 304 305 304 304
307 306 304 298 291 294 298 298 299 303 303 302 302 302 303 305 305 306 301 301 303 303 301 302 301 302 303 304 305 307 307 306 307 306 309 310 310 309 309 309 308 308 306 308 308 308 307 306 304 303 302 303 302 301
307 305 305 299 291 294 296 299 298 298 301 302 302 302 302 303 305 305 302 300 301 302 307 302 302 302 302 303 304 304 305 305 305 305 309 310 309 306 309 307 307 308 306 308 308 308 305 305 304 304 301 301 300 300
307 306 305 300 292 293 296 299 298 297 298 302 301 302 301 302 304 305 304 301 299 299 304 302 300 300 301 303 303 303 303 304 305 307 309 310 306 305 305 304 307 306 307 308 307 307 307 305 303 302 301 299 298 297
308 306 305 301 292 293 296 299 298 297 296 301 301 301 302 301 303 304 304 300 299 299 300 304 300 299 299 300 302 302 303 302 304 306 307 304 300 303 308 308 307 306 305 306 306 302 302 301 301 300 300 298 298 297
307 306 305 301 292 293 296 299 298 297 296 296 302 301 301 300 301 302 300 299 299 299 299 303 302 297 298 299 300 301 301 301 302 304 303 304 302 302 306 307 307 304 303 302 301 301 301 300 300 299 298 298 297 293
307 306 305 301 292 293 296 298 298 302 302 300 301 301 301 300 299 299 299 299 299 299 298 303 302 299 297 300 301 299 300 300 300 302 299 301 299 300 305 306 303 301 300 300 300 300 298 298 297 296 295 293 292 291
308 306 305 302 291 293 297 298 301 301 301 300 300 300 299 298 299 299 299 298 299 298 299 299 303 304 297 298 298 299 299 302 299 302 301 299 303 304 305 305 302 299 300 299 298 298 296 294 294 293 292 291 290 291
307 306 305 302 291 294 298 298 301 301 300 299 298 297 299 298 298 298 298 298 297 297 296 299 298 301 298 298 300 301 299 303 304 302 297 299 302 302 303 301 301 300 299 298 296 294 294 294 293 292 291 290 290 290
307 306 305 301 291 294 298 298 300 300 300 299 298 297 297 298 298 298 298 300 298 299 297 297 298 300 296 301 302 299 302 301 303 302 300 303 303 302 300 299 298 298 298 297 296 295 293 292 291 291 291 290 289 288
307 306 305 298 291 294 298 298 300 300 300 300 298 297 297 297 296 298 300 296 296 300 295 297 297 297 296 296 300 298 301 298 303 297 300 302 304 298 297 296 297 297 297 296 296 294 291 291 291 291 290 289 288 287
307 306 304 294 291 295 298 298 300 301 300 299 297 297 296 296 298 298 299 300 298 296 295 295 297 297 295 296 298 298 299 301 296 299 302 304 298 296 296 296 296 296 296 296 293 291 291 291 290 289 288 287 286 286
307 306 303 292 292 296 297 298 299 301 300 300 297 299 299 299 298 301 301 301 296 296 295 296 296 297 296 297 298 298 299 297 299 299 301 303 297 296 296 296 296 296 294 292 291 291 291 290 288 286 286 286 286 285
307 305 300 290 293 297 298 299 298 300 299 299 298 300 301 299 295 295 294 293 293 294 295 295 296 296 297 297 296 297 297 297 298 302 304 298 296 296 296 296 295 293 292 292 292 291 289 287 286 286 286 286 285 284
306 301 291 290 294 297 298 299 298 298 299 299 297 297 295 294 297 294 294 294 293 294 295 295 297 297 298 298 297 298 298 300 304 299 297 294 295 296 296 294 293 293 292 292 291 288 287 286 286 286 285 285 284 284
303 299 294 291 295 298 298 299 298 298 299 298 297 296 296 295 298 296 295 294 293 294 298 297 297 299 294 297 297 299 300 302 297 294 294 295 296 296 295 294 294 292 292 289 287 286 286 286 285 285 285 284 284 283
303 302 292 291 296 297 298 298 298 297 296 297 296 297 295 295 295 295 294 294 294 295 294 297 294 295 298 299 301 300 296 295 293 293 293 295 295 295 295 294 292 290 288 287 286 286 286 285 284 284 284 284 283 283
303 300 292 293 297 298 297 298 298 297 296 295 294 295 295 295 295 296 295 294 293 295 294 292 296 297 298 297 297 295 294 293 294 293 293 294 294 293 293 290 288 287 286 286 286 285 284 284 284 284 284 283 282 283
301 296 293 296 297 298 298 298 297 297 294 294 293 293 294 294 295 294 293 293 293 293 294 294 296 296 296 296 295 295 294 293 295 293 292 292 291 290 288 287 287 286 286 286 285 284 284 284 283 283 283 283 283 282
295 294 296 297 298 299 299 296 295 295 295 293 293 293 294 292 292 292 292 292 292 294 296 296 296 299 298 297 296 296 296 294 295 295 293 291 290 288 287 287 286 286 286 285 284 283 283 283 283 283 283 283 282 282
294 297 298 297 298 298 298 296 294 293 292 290 289 291 291 291 292 291 291 291 292 295 295 297 297 299 300 300 300 297 296 295 295 294 292 291 290 288 287 286 286 286 286 285 284 283 283 283 283 283 283 283 282 282
297 296 298 298 297 295 294 294 293 291 291 290 289 291 292 291 292 291 292 292 293 295 295 296 296 298 298 298 296 298 296 295 295 293 291 290 289 287 286 287 287 286 285 284 284 283 283 282 282 282 283 282 282 282
297 297 297 297 297 294 289 289 290 290 290 290 291 292 292 292 287 289 292 295 295 296 296 296 296 296 296 295 296 295 295 295 293 292 289 288 287 287 287 287 286 285 285 284 283 283 283 282 282 282 282 282 282 282
297 296 297 296 292 289 289 289 290 290 291 290 291 292 289 286 291 292 293 294 296 297 297 297 297 297 297 300 298 295 294 293 292 289 288 287 287 287 287 287 286 285 284 284 283 283 283 282 282 282 282 282 282 282
297 296 296 296 290 290 289 290 290 290 290 290 291 288 287 289 291 293 294 295 297 298 298 298 297 297 296 299 299 295 293 292 289 289 288 287 287 287 288 287 286 285 284 284 284 283 282 282 282 282 282 281 281 281
297 296 291 291 289 288 289 289 289 290 289 292 288 287 289 292 292 293 296 298 298 298 299 298 298 298 298 299 296 293 293 290 288 289 288 287 287 287 287 286 285 285 284 284 283 283 282 282 282 282 281 281 281 280
295 291 289 288 288 289 288 289 288 290 291 289 288 288 290 292 295 297 298 298 298 298 297 297 296 295 293 294 295 293 291 288 288 287 287 287 287 287 286 285 285 285 284 283 283 283 282 282 282 281 281 281 280 280
290 289 290 285 285 287 288 289 290 291 292 289 292 294 291 295 297 297 298 298 298 296 295 294 294 293 292 291 291 291 290 289 288 287 287 287 286 286 286 285 285 284 284 283 283 282 282 282 281 281 281 280 280 280
288 290 288 286 286 289 290 292 293 295 295 295 295 296 296 296 296 296 297 297 297 296 294 293 292 292 292 291 291 289 288 288 288 289 288 288 288 287 286 286 285 284 283 283 282 282 282 281 281 280 280 280 280 280
289 290 288 288 288 290 293 293 293 293 292 292 292 290 293 294 294 294 295 296 295 295 294 293 291 292 291 290 290 290 288 288 288 287 287 288 287 287 286 285 284 284 283 283 282 282 281 281 280 280 280 280 280 279
287 288 287 286 285 285 286 286 287 287 287 287 288 288 289 289 290 293 295 294 294 294 295 294 293 294 293 290 289 290 291 290 288 287 287 287 287 286 285 285 284 283 283 282 282 282 281 281 280 280 280 280 279 279
282 283 282 282 281 282 282 284 284 283 283 284 285 286 287 289 288 293 294 294 294 294 294 295 295 297 291 290 290 289 289 288 287 287 287 286 286 285 285 284 284 283 282 282 282 281 281 280 280 280 279 279 279 279

GFSWCAN_850_thetae_090.txt.gz
Theta_e
307 309 307 306 302 293 296 299 303 304 303 303 304 305 305 305 305 303 303 304 304 305 304 305 305 306 307 308 310 309 309 309 311 311 309 308 307 308 307 308 308 308 307 308 308 309 306 307 306 309 306 305 306 305
306 308 307 306 303 294 294 297 299 302 303 303 303 303 305 305 305 305 302 303 304 305 304 304 304 304 305 305 305 308 308 309 309 309 308 307 307 306 307 306 306 306 307 308 307 308 306 307 307 305 305 305 305 304
306 308 307 306 304 295 293 296 299 298 301 302 303 302 303 304 305 306 304 302 304 304 303 304 303 303 303 304 305 306 307 306 308 306 308 308 308 306 306 306 307 306 306 305 306 307 306 306 305 304 304 303 303 303
307 308 307 306 305 297 293 296 298 298 297 300 302 302 302 303 304 305 305 301 303 304 306 303 303 304 303 303 304 304 304 305 305 305 309 307 307 306 305 305 305 305 305 305 305 306 306 306 306 305 304 302 302 301
307 308 307 306 305 300 292 295 298 299 297 298 302 302 302 302 303 304 304 302 300 301 304 303 300 301 303 304 303 303 303 304 305 307 304 306 306 304 304 301 303 305 304 305 304 306 305 305 305 304 303 302 300 300
307 308 307 306 305 301 292 294 297 299 297 296 301 302 302 301 302 303 303 300 300 299 300 302 301 300 300 301 303 303 303 303 303 306 307 306 304 302 303 304 306 307 306 306 306 305 304 303 302 302 301 301 300 299
307 308 308 306 305 302 292 294 298 299 297 296 296 302 302 301 300 302 302 299 299 299 299 301 302 299 298 299 300 301 302 302 302 305 303 305 302 302 301 305 306 307 306 306 304 304 302 301 301 301 300 299 298 297
306 307 307 306 305 302 292 294 298 298 301 302 299 302 301 301 299 300 300 299 299 298 298 298 299 299 297 300 301 300 300 300 301 302 301 300 300 300 300 303 306 305 304 303 302 301 301 301 300 298 297 295 293 292
306 306 307 306 305 303 292 295 299 301 301 301 301 301 301 299 299 299 299 299 299 298 300 298 299 301 297 299 299 299 299 299 301 298 299 299 300 300 301 303 305 304 302 301 300 300 299 298 296 295 293 292 291 291
307 306 307 306 305 303 292 296 300 300 300 300 299 298 299 298 298 298 298 298 298 298 297 299 300 297 299 299 300 300 300 299 297 300 298 296 299 302 304 304 304 303 301 300 299 296 296 295 295 293 292 291 291 290
307 307 307 306 305 303 292 296 300 300 300 299 298 297 298 297 298 298 298 298 300 298 298 298 298 298 297 297 299 300 298 297 295 298 296 298 301 300 301 302 302 301 300 299 299 298 297 296 293 291 291 291 290 289
307 307 307 306 305 301 292 297 299 300 300 300 299 297 297 297 297 295 294 296 295 298 296 297 297 298 297 298 299 299 297 295 296 297 296 297 299 300 299 298 298 299 298 298 296 296 294 292 291 291 291 290 288 286
307 308 307 306 305 299 292 297 299 300 300 299 298 297 297 297 294 294 292 294 295 296 295 295 294 297 296 297 298 297 296 297 297 296 296 299 299 297 297 297 297 296 296 296 295 294 292 291 291 291 289 287 286 286
308 308 307 306 305 296 293 297 299 300 299 299 298 294 294 294 295 298 298 298 298 297 295 298 297 297 297 296 297 296 298 296 293 295 299 299 299 297 296 295 296 295 295 296 294 292 292 292 290 287 287 286 286 286
308 308 307 305 303 292 295 298 298 301 299 299 297 298 297 299 299 298 298 295 294 296 296 296 296 297 294 295 295 296 295 293 296 298 300 298 296 296 296 295 295 295 295 293 292 292 292 290 287 286 287 286 285 285
308 307 306 305 297 293 297 298 299 299 299 299 297 298 297 295 297 296 294 295 295 295 296 297 294 293 295 295 293 293 295 297 299 298 298 296 295 295 295 295 295 294 292 292 292 292 289 287 286 287 286 286 285 284
306 303 304 303 293 296 298 298 298 299 299 298 297 297 298 297 298 298 297 296 295 295 293 296 292 293 291 292 293 294 296 299 301 297 294 294 295 296 295 294 293 293 292 292 291 288 287 286 287 286 286 285 284 284
305 304 304 298 293 297 299 299 298 298 296 297 297 296 296 297 296 296 295 295 294 295 298 293 295 289 291 292 294 295 298 297 295 294 294 294 294 296 295 294 293 292 292 289 287 286 286 287 286 286 285 285 284 284
305 304 303 296 295 298 299 298 298 297 296 297 296 296 297 296 297 297 296 295 294 295 295 293 290 290 293 295 296 299 297 295 294 294 294 294 294 295 295 294 292 291 288 287 286 286 286 286 286 285 284 284 284 283
305 304 303 297 296 297 298 298 297 297 295 296 295 294 295 296 296 296 295 295 294 294 292 289 291 296 296 298 298 298 297 296 295 294 294 295 294 294 293 293 290 288 287 286 286 286 286 285 285 284 284 284 283 283
299 297 299 295 297 297 298 296 296 296 296 294 294 294 294 293 294 293 293 294 292 293 290 296 297 298 298 299 299 299 297 296 296 296 295 295 295 293 292 290 288 287 287 286 286 286 285 285 284 284 284 283 283 283
295 294 295 296 297 297 298 296 296 294 293 291 292 293 292 291 292 292 293 292 293 294 295 296 297 297 298 298 299 299 300 297 296 296 294 294 294 293 291 290 288 287 286 286 286 286 285 285 284 283 283 283 283 282
294 294 295 296 297 297 296 295 294 292 290 290 290 291 292 292 292 292 291 292 293 295 295 296 296 296 296 297 297 297 298 298 297 296 294 294 292 292 291 289 287 287 287 287 286 285 285 284 284 283 283 283 282 282
295 296 297 297 297 295 292 291 292 291 291 290 291 291 292 292 289 289 291 291 295 296 296 296 296 295 295 295 295 296 296 297 295 295 294 293 292 290 289 288 287 287 287 286 286 285 285 284 283 283 283 282 282 282
296 296 297 296 294 290 289 289 289 291 290 291 291 292 289 288 288 290 289 291 295 295 296 296 296 295 295 295 296 296 296 296 295 297 297 293 291 289 287 286 287 287 287 286 286 285 284 284 283 283 282 282 282 282
298 295 296 296 289 289 289 289 290 291 290 290 291 289 288 288 288 289 288 295 297 297 297 297 297 297 296 296 295 296 297 296 296 296 295 293 290 288 288 287 288 287 286 286 285 285 284 284 283 283 282 282 281 282
297 297 295 293 291 290 289 290 290 290 290 291 289 287 288 288 287 288 296 297 297 297 297 297 297 297 297 297 296 296 298 299 296 294 294 292 289 287 287 287 288 287 286 286 285 285 285 284 283 283 282 281 282 282
296 292 290 288 288 290 288 289 289 291 291 291 289 288 290 289 290 296 297 297 298 298 298 297 297 296 296 294 294 295 295 297 294 290 289 288 287 287 287 287 287 286 286 285 285 285 284 283 283 282 281 282 281 281
291 290 290 286 287 288 289 290 290 292 292 290 291 289 287 293 297 297 297 297 297 297 297 297 297 296 295 294 292 292 294 294 292 288 287 287 287 287 287 287 287 285 285 285 285 284 284 283 282 282 281 281 281 281
289 292 287 286 288 291 290 292 292 294 293 294 294 295 296 296 296 297 297 297 296 296 296 296 295 296 295 292 292 292 294 290 289 290 290 290 290 289 288 287 286 285 285 284 284 284 283 283 282 281 281 281 281 280
290 290 288 289 289 291 292 292 293 293 293 293 294 294 294 295 295 296 296 296 295 295 295 295 295 295 295 293 293 293 293 290 288 288 289 289 289 288 288 287 286 285 284 284 284 283 282 282 281 281 281 280 280 280
290 290 289 289 286 286 289 289 290 289 288 288 290 290 291 291 291 294 294 294 294 294 295 295 295 295 295 293 295 296 296 291 289 288 287 288 288 288 288 286 285 285 284 284 283 282 282 282 281 281 280 280 280 279
284 284 284 282 279 280 284 286 284 281 283 284 286 288 289 290 287 294 295 295 295 295 295 295 295 294 293 293 293 293 292 289 288 288 287 287 287 287 287 286 285 284 284 283 283 283 282 281 281 280 280 280 279 279

GFSWCAN_850_thetae_093.txt.gz
Theta_e
298 299 303 308 307 305 296 294 298 300 302 303 303 303 305 305 305 304 302 304 304 305 304 306 305 306 307 306 306 308 307 308 307 308 306 305 305 304 304 304 306 305 304 305 304 306 304 305 305 306 304 305 306 305
298 298 301 308 307 306 300 293 296 299 299 300 303 303 303 305 305 305 303 302 304 305 304 305 306 306 306 307 306 307 307 307 306 305 304 303 304 302 303 304 304 304 303 305 303 304 304 306 306 306 305 305 304 304
299 298 300 307 308 306 304 293 294 297 300 298 301 303 302 303 304 305 305 301 303 304 303 303 304 305 306 306 305 307 306 306 307 305 305 304 305 302 304 302 305 304 304 304 304 303 304 305 306 306 305 304 304 303
301 298 301 307 308 306 305 296 293 296 300 297 299 302 302 302 303 304 305 302 301 303 303 304 303 303 303 304 304 305 305 305 305 305 306 303 305 304 303 302 302 302 303 303 302 303 305 306 306 305 304 303 303 302
306 299 300 306 308 306 305 299 292 295 299 297 298 302 302 302 302 304 304 304 301 300 302 303 302 301 301 302 303 303 303 303 305 305 299 303 304 302 300 299 299 303 303 303 303 304 304 304 304 305 304 303 302 301
306 300 300 306 308 307 305 302 292 295 299 297 297 302 302 301 300 303 304 302 300 299 299 297 301 300 300 300 301 302 303 303 303 304 304 306 304 303 300 300 302 305 305 306 305 305 305 305 304 303 303 302 301 299
305 301 302 306 307 306 305 303 292 295 299 297 296 297 302 302 300 302 302 300 299 299 299 298 299 300 298 299 300 301 301 302 302 303 303 303 303 302 298 304 304 306 306 306 305 305 302 302 303 302 301 300 299 297
307 307 303 306 307 306 305 303 293 296 298 299 300 299 301 301 301 300 301 299 299 298 298 291 292 298 297 299 299 299 300 300 300 301 301 299 300 299 300 301 305 304 305 304 304 304 303 303 301 300 299 297 295 292
311 310 305 306 307 306 305 303 293 298 301 302 301 301 301 300 299 299 299 299 299 298 298 296 290 294 297 299 299 299 299 297 300 297 297 298 297 299 301 302 303 304 304 304 302 301 301 300 299 297 295 293 292 291
311 310 304 306 306 306 305 302 294 300 300 300 300 299 298 298 298 298 298 298 298 297 296 296 298 294 298 298 299 298 299 296 292 297 298 296 298 300 302 303 303 304 303 303 301 298 298 298 296 295 293 292 291 291
312 309 304 306 306 306 305 301 296 300 300 299 298 298 298 297 297 298 298 296 299 296 297 297 298 295 297 294 296 299 293 292 290 295 295 296 298 299 300 300 301 301 303 301 301 300 299 298 296 294 292 291 291 290
313 309 304 307 306 306 305 300 296 299 299 300 299 298 297 297 297 291 286 294 292 294 297 296 295 298 298 298 298 298 294 294 294 295 293 296 296 300 298 298 300 301 301 300 299 298 297 295 293 292 291 291 289 287
312 308 305 306 307 306 306 299 296 299 300 299 298 297 296 296 291 290 291 288 288 295 295 296 292 297 296 296 297 292 292 294 295 289 294 296 299 299 297 297 298 298 298 297 295 295 293 293 292 292 290 287 286 287
310 309 305 307 306 306 306 296 297 299 299 299 297 292 292 289 291 292 292 290 297 296 295 297 296 297 296 294 294 291 294 293 288 290 294 293 300 296 296 296 296 296 296 295 294 293 292 292 291 289 287 286 287 286
309 308 305 307 307 306 305 295 298 299 299 299 297 295 294 295 297 298 300 297 296 296 296 296 295 296 291 292 293 291 291 288 291 292 293 301 297 296 296 295 295 295 295 295 294 292 291 291 289 287 286 287 286 286
308 306 305 306 306 306 301 296 299 300 299 299 297 297 297 295 293 296 296 295 295 295 296 297 290 288 292 290 290 290 288 290 291 292 298 298 295 295 296 295 295 295 295 294 292 292 292 289 287 286 287 286 286 285
307 304 304 305 306 304 297 297 299 299 299 299 297 297 297 296 296 298 297 296 295 295 290 292 289 292 289 287 290 290 290 291 299 298 295 295 295 295 296 295 295 294 293 292 292 291 289 287 286 287 286 286 285 285
305 304 304 305 304 298 297 298 298 299 298 298 298 297 297 298 297 298 298 296 295 295 296 291 294 288 289 289 290 291 297 298 298 296 296 297 296 295 296 296 295 293 293 292 291 289 287 286 287 287 286 285 285 284
305 304 304 304 301 297 298 298 297 297 296 296 296 297 297 297 298 298 297 297 296 295 296 295 286 287 290 290 293 298 299 298 296 295 296 297 296 295 295 295 294 293 293 292 289 287 286 287 287 286 285 285 284 284
305 304 303 302 297 298 298 298 297 297 296 297 296 296 297 297 297 298 297 295 294 294 292 287 289 293 294 298 299 299 298 297 296 295 295 297 297 296 295 295 294 293 292 289 287 287 286 287 286 285 285 284 284 284
303 300 300 298 297 298 298 296 296 296 297 296 295 295 295 294 295 295 295 294 293 292 289 295 297 298 298 299 299 299 298 298 298 298 297 296 297 295 294 294 293 292 290 288 286 286 287 287 285 285 284 284 284 284
300 296 296 295 297 297 297 297 296 296 294 293 293 294 292 291 292 293 294 293 292 295 296 296 297 297 297 297 298 298 298 298 298 298 298 297 297 297 295 294 293 292 290 288 286 286 287 286 285 284 284 284 284 284
296 295 295 296 296 296 296 295 294 292 290 290 291 292 291 291 292 293 292 293 294 295 295 295 297 296 296 296 296 296 296 296 297 297 297 297 297 296 294 294 293 292 289 288 287 286 286 286 284 284 283 283 283 283
295 296 296 296 296 295 293 292 293 290 290 290 291 288 288 290 291 291 291 291 294 296 296 297 296 296 296 296 296 296 296 296 296 296 296 296 296 294 293 293 292 290 289 287 287 286 286 285 284 284 283 283 283 283
296 295 296 296 295 290 289 290 289 290 289 289 288 286 289 289 289 289 289 288 294 296 297 297 296 295 295 296 296 296 296 296 295 295 295 295 295 293 292 291 290 289 287 287 287 287 286 285 284 284 283 283 283 283
298 296 296 297 290 289 288 288 288 288 289 287 289 287 288 288 290 290 285 292 296 297 297 297 297 296 296 296 296 297 297 296 295 294 295 295 294 295 295 292 290 288 287 287 287 286 285 285 284 284 283 282 282 283
297 295 295 294 291 289 288 289 290 289 288 288 287 286 289 292 291 289 295 298 298 298 297 297 297 297 297 297 297 296 296 295 294 295 295 295 296 297 296 293 290 288 287 288 287 286 286 285 284 283 283 282 282 282
297 293 292 289 288 289 287 287 286 288 288 290 289 287 291 293 294 296 297 298 298 298 298 298 297 297 297 297 296 296 295 294 294 293 294 295 295 294 292 288 286 287 288 287 286 286 285 284 284 283 282 282 282 282
291 290 291 287 287 287 286 286 287 291 292 291 292 291 291 294 296 297 297 297 297 297 297 297 297 297 297 297 296 295 294 293 293 292 293 293 294 292 289 287 287 288 287 287 286 286 285 284 283 283 282 282 281 281
289 292 287 286 288 288 288 293 293 293 294 294 295 295 295 297 298 298 297 297 296 297 296 296 296 296 296 296 296 295 293 292 292 292 295 296 297 292 290 288 287 287 287 287 286 285 284 284 283 282 282 281 281 281
291 291 288 287 286 289 291 292 293 293 293 293 294 294 295 296 296 296 296 296 296 296 296 295 295 295 295 295 295 295 294 294 294 291 291 289 291 290 289 288 287 287 286 286 285 284 284 283 283 282 281 281 281 280
290 287 287 286 283 286 288 290 290 291 290 291 291 292 292 292 291 294 295 295 295 295 296 295 295 295 296 295 294 294 294 294 293 293 290 289 289 288 288 288 287 286 286 285 284 284 283 283 282 281 281 281 280 280
286 285 284 283 283 284 286 289 287 284 283 282 286 289 290 291 288 294 295 295 295 295 295 295 295 295 294 294 294 293 293 293 293 290 288 288 288 287 288 290 288 286 285 284 284 283 283 282 282 281 281 281 280 279

GFSWCAN_850_thetae_096.txt.gz
Theta_e
320 310 298 299 300 306 307 304 294 295 299 300 301 303 303 304 305 304 302 303 304 304 304 305 305 306 306 306 306 308 306 307 305 307 305 304 303 303 304 302 306 303 303 303 303 305 304 305 305 305 302 305 306 306
320 319 303 298 299 304 308 307 298 294 297 300 299 301 303 303 304 305 305 303 302 304 304 305 306 306 306 306 307 307 307 306 306 304 302 301 304 300 301 304 302 304 302 302 302 302 302 305 305 306 305 305 305 305
317 318 311 299 299 302 308 308 304 294 295 300 298 299 302 302 303 304 305 304 301 303 303 303 304 305 305 305 304 304 306 307 306 306 304 302 305 300 304 301 303 302 302 303 304 301 301 305 306 306 306 305 305 304
316 316 316 303 299 303 306 307 306 297 294 299 298 298 302 302 302 303 304 304 300 302 302 304 303 304 305 304 304 304 304 304 304 304 304 302 304 303 302 302 301 302 302 302 301 301 303 305 305 305 305 304 304 303
317 316 316 314 299 303 306 307 306 300 294 298 298 297 302 302 302 302 304 304 302 300 301 301 301 301 302 302 302 302 303 302 303 303 297 301 303 301 299 298 298 302 303 303 305 304 304 304 306 305 304 304 303 302
317 317 316 315 300 303 306 306 306 302 293 296 299 296 301 302 301 302 303 303 301 299 299 295 300 300 299 299 300 301 301 301 302 303 302 304 305 303 300 300 301 305 306 306 304 305 305 305 305 305 304 303 302 300
317 317 316 314 301 301 306 306 306 303 293 296 298 296 297 301 302 301 302 301 299 299 299 297 296 299 298 298 299 300 300 301 301 302 301 302 302 302 296 305 304 306 306 306 305 304 303 303 304 303 303 302 300 298
316 317 316 312 303 302 306 306 306 304 293 297 298 298 297 301 301 301 300 300 299 298 298 289 291 298 297 298 299 299 300 299 300 300 300 298 299 298 299 301 304 304 304 304 304 304 304 304 302 301 301 300 298 294
314 316 316 315 310 305 306 306 305 304 294 300 301 301 300 301 300 300 299 299 300 298 298 294 289 291 297 298 299 299 298 297 298 296 297 297 297 298 300 301 302 303 303 303 302 301 302 303 301 300 298 296 293 292
313 314 315 315 312 306 305 306 306 300 297 301 300 301 300 299 299 298 298 298 298 298 297 295 295 294 297 297 298 297 298 295 292 296 297 296 297 300 301 301 300 300 300 302 300 299 299 300 299 298 295 293 292 291
312 313 312 314 312 306 306 306 306 298 299 299 299 298 299 298 297 297 298 295 297 296 297 296 297 295 297 293 295 298 292 290 290 294 295 294 296 297 301 299 299 300 300 301 302 301 300 300 298 295 293 292 291 291
311 312 311 311 311 306 306 306 306 298 299 299 299 298 297 297 297 292 288 292 292 295 296 296 296 298 297 298 297 296 293 293 294 293 292 293 293 299 299 297 298 300 300 299 300 300 299 298 296 294 292 292 291 289
310 311 310 309 309 305 306 306 306 299 298 300 300 297 296 295 292 291 292 289 287 293 295 295 291 297 296 296 296 291 292 294 293 288 293 292 297 299 297 296 297 298 298 299 298 297 296 295 293 292 292 291 288 287
310 310 310 308 307 305 306 306 303 298 299 299 297 293 292 291 293 294 293 292 295 296 295 296 295 295 295 293 293 290 293 291 290 292 292 289 298 298 296 296 296 296 296 296 295 294 293 292 292 292 290 287 287 287
309 309 309 308 306 305 306 306 301 298 299 299 297 295 293 295 295 295 296 296 296 295 296 295 294 295 289 291 293 291 291 293 290 292 290 298 299 296 295 296 296 295 296 295 294 294 293 292 292 289 287 286 287 286
308 308 308 307 306 304 305 302 298 299 299 299 297 296 296 294 294 295 297 295 295 296 296 296 289 288 291 289 290 290 288 289 292 287 298 297 297 296 296 296 296 295 295 295 294 293 292 292 290 287 286 287 286 286
307 306 306 306 306 304 304 298 298 299 299 298 297 297 297 297 297 297 298 296 295 296 292 290 289 292 289 286 291 289 289 290 295 298 296 297 298 298 297 296 296 295 295 295 294 292 291 291 288 286 287 286 286 286
306 307 306 305 305 302 297 298 299 299 298 298 298 297 296 297 298 297 297 297 295 295 295 291 292 289 291 291 290 290 294 298 298 298 296 296 298 299 298 296 296 295 294 294 293 292 292 289 287 286 287 285 286 285
306 306 305 305 303 297 297 297 297 297 298 297 297 298 297 297 298 299 298 297 296 295 297 294 289 291 291 289 289 297 298 298 298 298 297 296 297 298 298 298 296 295 294 292 292 292 291 287 286 286 286 285 286 285
306 306 305 304 300 299 298 297 297 297 296 296 296 297 297 297 298 298 297 296 295 295 293 289 292 294 294 298 299 299 299 299 298 297 297 297 297 298 298 298 297 295 294 292 291 290 288 287 286 286 286 284 285 285
305 305 304 301 298 299 299 296 297 297 297 296 296 296 296 295 296 297 296 295 294 293 289 297 296 298 299 298 298 299 299 298 299 298 298 298 297 297 297 297 297 295 294 293 292 291 288 287 286 286 286 285 285 285
302 300 297 296 297 297 297 297 297 296 295 293 294 296 292 292 292 294 294 293 292 295 296 297 297 297 297 297 298 298 298 298 298 297 297 297 297 297 297 297 296 296 294 293 292 291 288 286 286 286 285 284 285 284
299 297 296 296 296 296 295 296 295 293 290 292 293 292 291 290 293 293 293 293 295 296 296 296 296 297 297 297 297 297 297 297 296 296 296 296 296 296 296 296 296 295 294 293 292 289 287 286 286 286 285 284 284 284
297 296 296 296 296 295 293 293 292 290 290 291 293 292 289 290 291 292 293 291 295 296 296 297 296 296 296 297 296 297 297 296 296 296 296 295 295 296 296 296 296 295 294 293 292 289 286 286 285 286 285 284 284 284
296 295 296 296 294 291 291 291 290 290 289 289 289 289 289 290 292 291 290 288 293 296 297 297 297 297 296 297 296 296 296 296 296 295 296 295 295 295 295 295 295 294 292 292 290 288 286 285 285 285 285 284 283 284
296 295 296 296 290 290 288 289 290 288 288 288 288 288 288 288 289 291 288 293 296 297 298 299 299 296 296 297 296 296 297 296 295 295 296 296 295 295 295 294 295 294 293 291 289 288 286 286 285 285 285 284 283 283
297 296 295 295 292 289 288 288 290 290 291 291 287 286 288 292 291 289 296 299 300 301 300 299 298 297 297 297 297 297 296 296 296 296 296 295 295 295 295 295 295 296 294 291 289 287 287 286 285 285 284 283 283 283
297 294 295 290 288 289 287 289 289 290 290 288 290 290 291 292 293 298 300 300 300 299 298 297 297 297 297 297 297 297 296 296 296 295 294 295 295 296 295 295 294 294 292 288 287 286 286 286 285 285 284 283 283 282
291 291 292 287 287 287 289 288 289 292 292 290 293 290 290 294 298 300 300 299 299 298 297 297 297 298 297 297 297 296 296 296 295 294 294 294 295 297 297 296 295 292 288 287 287 287 286 285 285 284 283 283 282 282
288 292 285 286 286 288 289 293 293 294 294 294 296 295 296 297 298 298 298 299 299 298 297 297 297 296 296 296 296 296 296 296 295 294 293 294 295 294 295 294 292 288 287 289 288 286 285 284 284 284 283 282 282 281
291 291 286 284 285 288 289 291 292 293 293 294 295 296 296 297 297 298 298 299 299 299 297 296 296 295 295 296 296 296 295 296 295 294 293 293 293 293 294 293 289 287 287 287 287 286 285 284 284 283 283 282 281 281
290 288 289 288 283 285 288 290 290 291 291 291 292 291 291 293 293 296 297 297 297 297 297 296 295 296 296 296 296 295 295 294 294 294 294 294 293 292 292 290 288 286 286 287 286 285 284 284 284 283 282 281 281 280
285 285 284 284 283 283 286 289 288 285 285 283 287 289 291 292 289 296 297 298 298 298 297 296 296 295 295 295 295 294 294 294 292 294 295 293 291 290 290 289 287 286 287 286 285 284 283 283 283 282 282 281 280 280

GFSWCAN_850_thetae_099.txt.gz
Theta_e
317 317 319 316 307 300 299 305 307 301 295 297 300 298 302 303 304 304 304 302 302 303 303 304 304 306 306 306 305 306 305 305 304 306 305 303 302 302 303 302 304 303 302 302 302 304 304 304 304 304 302 305 306 306
316 316 317 317 313 303 299 301 307 305 295 295 299 299 301 303 303 304 304 303 302 302 304 304 304 304 305 306 307 306 306 305 306 303 302 301 304 299 300 303 300 303 301 301 302 302 302 305 305 306 305 305 306 306
316 316 316 316 315 306 300 301 307 306 300 294 297 299 298 302 302 303 304 304 303 302 303 303 303 303 305 305 305 305 305 306 306 305 303 300 305 300 303 300 301 300 300 302 303 302 300 304 306 306 305 305 305 304
315 316 316 316 316 314 304 300 305 306 304 294 295 299 297 302 302 302 303 304 303 301 301 303 304 303 303 304 304 304 304 305 304 304 303 300 303 302 301 301 299 302 300 301 300 300 302 304 305 305 305 305 304 304
315 315 316 316 316 315 310 301 304 307 305 297 294 299 297 301 302 301 302 303 303 300 299 300 301 301 302 302 302 302 302 302 303 303 297 300 302 301 299 297 300 301 303 303 305 304 304 304 306 305 305 305 304 303
313 315 316 316 315 314 311 302 304 306 305 300 294 298 297 299 302 301 302 302 302 300 299 295 299 299 299 299 299 300 301 301 302 303 301 303 304 303 300 299 301 305 305 305 304 304 304 304 305 305 305 304 303 302
310 313 315 316 315 315 309 303 303 306 306 301 294 297 297 296 300 302 302 301 299 298 298 296 295 299 298 298 298 299 299 300 301 301 299 300 301 302 296 305 303 305 304 304 304 303 302 303 304 304 303 303 302 300
308 310 314 315 315 313 311 304 304 306 306 302 294 297 298 297 299 302 302 300 299 298 298 287 290 297 297 298 298 299 299 299 299 300 299 297 298 298 300 300 303 304 303 303 303 302 303 303 304 303 302 302 300 299
305 307 311 314 314 312 311 304 305 306 305 300 295 299 300 300 301 300 300 299 300 299 298 293 289 292 297 298 298 298 298 296 297 295 296 297 296 298 300 301 302 302 299 299 299 301 300 301 302 302 301 300 300 297
302 304 308 313 313 312 309 305 305 306 305 298 299 301 300 300 299 299 298 298 297 298 297 293 295 293 297 296 296 296 296 295 291 296 296 295 296 300 301 302 301 299 298 298 297 300 300 300 300 301 300 300 298 294
302 304 306 311 312 311 310 305 305 306 300 300 300 300 299 298 297 297 297 296 297 295 297 296 295 294 296 294 296 297 292 290 292 293 294 293 294 296 300 300 298 297 300 300 298 299 301 301 301 300 298 295 293 292
301 302 305 309 311 310 309 306 304 305 302 299 299 298 298 297 296 293 289 292 293 296 295 294 295 298 296 297 297 295 293 293 296 292 292 294 293 299 299 298 297 298 300 300 299 300 300 300 299 298 296 294 292 291
301 304 304 307 310 309 308 306 304 303 300 299 298 297 296 295 293 291 294 294 292 293 294 294 292 297 296 296 294 290 292 294 292 287 294 292 296 298 298 296 297 298 299 299 299 299 298 298 297 295 294 292 292 289
303 304 305 306 309 309 307 306 304 300 299 299 298 296 293 292 291 293 296 296 295 295 295 296 294 294 295 293 292 291 294 291 291 293 292 289 298 298 296 296 297 297 297 297 297 296 296 295 294 292 291 291 288 287
303 303 305 305 308 308 307 306 304 299 299 298 297 296 293 294 295 295 296 295 294 295 295 295 293 295 289 291 292 290 292 294 292 293 291 297 298 297 297 296 297 297 297 296 295 294 294 293 292 292 291 288 287 287
304 304 305 307 307 308 306 305 301 298 298 298 297 296 294 293 292 294 294 296 295 295 296 296 291 290 291 290 290 292 290 291 294 289 298 298 298 299 298 297 297 297 296 296 295 294 293 293 292 292 289 287 287 287
304 305 305 306 307 307 305 300 298 297 297 298 297 297 296 296 297 296 297 297 295 296 295 292 291 294 290 290 293 290 290 291 295 298 298 297 298 299 300 299 297 297 296 296 295 294 293 291 291 291 288 287 287 286
304 304 305 306 306 305 299 298 298 298 296 298 297 296 296 297 297 297 298 297 295 295 294 294 292 288 292 295 295 291 294 298 298 298 297 297 297 298 299 299 299 298 297 297 296 294 293 291 292 291 287 286 286 286
303 304 304 305 306 301 298 297 297 296 298 298 298 298 296 297 297 300 299 298 296 296 296 292 287 290 294 293 294 298 298 298 299 299 299 298 296 297 298 299 299 299 298 297 296 295 294 292 292 289 287 286 287 286
303 304 305 305 305 300 297 297 297 297 296 297 297 297 297 297 297 298 299 298 296 295 292 288 291 295 296 299 300 301 299 300 299 298 299 299 298 296 297 298 298 298 297 296 295 294 292 291 291 290 287 286 286 286
303 304 304 305 300 299 298 296 296 298 299 296 296 297 297 295 296 295 296 296 294 293 292 296 297 298 298 299 299 300 300 298 299 300 300 299 298 297 297 297 297 297 297 296 295 294 292 292 292 290 286 286 286 285
303 304 301 300 299 298 297 297 298 297 296 293 294 297 293 293 293 295 295 294 295 298 297 297 298 297 298 299 299 299 299 298 298 298 297 297 298 297 297 296 296 296 296 296 296 295 294 293 292 288 286 286 286 285
302 300 299 297 296 295 295 296 295 294 293 293 294 293 292 291 293 294 294 294 298 299 299 298 298 297 298 299 297 297 297 297 297 297 297 297 297 297 296 296 296 295 296 296 296 295 294 292 291 287 286 285 285 285
300 299 298 296 295 295 294 293 292 291 292 293 294 294 290 290 291 291 293 292 297 298 298 299 298 298 298 297 297 298 297 296 297 297 297 297 297 296 296 296 295 295 295 296 295 294 293 291 289 287 286 285 285 285
296 295 296 295 294 292 291 290 287 290 290 287 290 287 288 291 292 292 292 288 297 298 298 298 299 299 299 299 298 299 298 296 297 297 297 296 296 295 295 295 295 295 295 295 294 294 292 290 289 286 286 285 285 285
297 295 295 296 291 290 287 287 287 286 285 287 289 287 289 289 291 290 287 297 298 299 300 300 299 298 296 296 296 297 300 298 296 296 296 295 296 296 296 295 295 296 295 295 294 293 292 290 289 287 285 285 285 284
296 295 295 295 293 290 287 287 289 287 287 289 286 286 288 292 290 289 297 300 301 302 302 301 300 300 300 300 300 299 298 297 296 296 296 297 296 296 296 296 296 296 295 294 294 293 292 290 289 286 286 285 285 284
297 295 295 291 288 288 285 285 285 289 289 288 289 286 289 291 292 299 301 300 301 301 302 301 300 299 298 297 297 296 296 296 296 296 296 296 296 296 296 296 295 294 293 293 293 292 290 289 287 286 286 285 285 284
293 293 292 289 283 285 286 287 288 291 293 290 291 291 289 294 299 300 301 301 302 302 300 299 299 298 297 296 296 296 296 297 296 296 296 296 296 296 295 295 295 294 293 294 293 289 288 286 286 286 285 284 284 283
290 292 288 285 286 288 289 293 292 294 294 295 296 296 296 297 299 300 300 300 302 301 300 298 298 298 298 297 297 297 297 296 296 296 296 296 295 294 294 294 296 296 295 293 289 286 285 285 285 284 284 284 283 283
292 291 285 283 285 287 291 291 292 293 294 294 295 295 297 298 298 299 299 300 302 301 298 298 297 297 297 296 296 296 296 296 296 296 296 295 295 293 294 293 294 294 294 289 286 287 287 287 286 285 284 284 283 282
289 289 286 285 283 286 288 290 290 291 291 292 293 292 293 294 294 298 299 300 300 299 298 298 297 297 296 296 296 296 296 296 295 295 295 294 293 292 293 293 293 292 290 286 287 287 289 287 285 284 284 283 282 281
286 287 285 284 284 284 286 289 287 283 286 285 288 289 291 292 292 297 299 299 299 298 298 299 299 298 297 297 296 296 295 294 294 294 293 293 292 292 292 292 292 290 286 286 286 289 288 285 284 284 283 282 281 281

GFSWCAN_850_thetae_102.txt.gz
Theta_e
315 315 315 315 316 316 313 304 300 306 306 297 295 299 298 301 303 304 304 303 301 303 303 303 304 305 305 305 304 306 305 304 303 305 305 303 302 301 302 301 302 302 301 301 301 304 304 303 304 305 302 304 305 306
315 315 315 315 315 315 315 309 302 303 307 304 295 297 299 299 302 303 304 304 303 302 302 303 303 304 303 305 306 306 305 304 306 302 301 300 303 297 299 303 298 301 300 301 301 302 301 304 305 306 305 305 305 305
313 314 315 315 315 315 315 314 308 302 306 306 298 295 299 298 302 302 303 304 304 303 303 303 303 303 303 304 304 305 304 306 306 305 302 300 304 300 303 299 301 300 299 300 302 302 300 302 303 304 306 305 305 305
311 313 314 315 315 315 315 314 311 304 304 306 303 295 297 297 301 302 302 303 303 302 299 302 303 303 303 303 303 303 304 304 304 305 303 300 302 302 300 301 299 301 299 299 298 300 302 304 305 305 305 304 304 305
310 312 313 314 314 315 315 313 312 306 304 305 305 296 296 298 299 301 301 301 303 302 298 300 302 302 301 302 302 301 302 302 303 302 297 300 300 300 298 296 297 301 301 300 303 304 302 303 304 304 305 305 304 304
310 311 311 312 314 315 315 314 312 308 303 305 306 299 295 298 298 301 301 302 302 302 300 295 298 298 298 299 299 299 300 300 301 302 300 302 302 302 300 299 300 304 305 305 303 304 304 303 303 304 304 304 304 303
307 308 308 309 310 313 314 314 312 308 303 306 306 303 294 297 296 300 301 301 299 298 298 296 296 298 298 298 298 298 298 299 300 301 299 299 300 302 298 304 304 304 304 304 304 302 302 303 302 304 304 304 304 303
301 303 305 307 308 311 313 314 312 308 303 306 306 303 295 297 297 297 299 301 300 298 298 287 291 295 297 297 297 298 298 298 299 299 298 298 298 298 301 302 303 304 303 303 303 301 300 300 301 301 302 303 303 302
298 298 301 304 305 309 312 311 311 308 303 305 306 300 297 299 299 299 300 300 299 299 297 293 290 293 296 297 297 297 297 296 297 295 296 297 298 299 300 301 302 303 302 301 300 298 298 299 301 300 301 302 302 300
295 296 297 299 302 305 309 310 309 308 304 305 302 299 300 300 299 299 298 298 298 298 298 293 294 292 297 296 295 296 296 295 290 295 296 297 298 299 302 302 302 301 300 297 296 297 298 299 300 301 301 301 300 300
295 295 295 297 300 303 306 309 307 305 304 301 300 300 299 299 298 297 297 295 296 295 296 296 295 293 296 294 295 296 292 292 292 294 294 293 294 295 301 301 300 299 297 299 299 298 298 299 300 301 300 299 299 298
294 294 294 296 298 302 304 308 307 305 303 302 300 298 298 298 296 295 295 292 293 296 295 293 294 297 296 297 297 295 293 292 296 291 293 297 293 300 300 299 298 297 299 300 299 299 300 300 300 300 300 299 298 294
294 294 295 295 298 301 304 307 306 306 303 300 300 298 297 296 292 294 294 292 295 295 293 293 294 297 295 297 294 291 292 295 292 291 294 294 296 299 299 298 297 298 298 299 299 299 299 299 299 299 299 296 294 293
294 296 297 298 300 301 304 306 306 305 301 301 298 296 295 292 292 293 294 294 296 295 294 296 293 294 295 294 292 291 294 291 293 295 294 293 299 300 298 297 297 298 298 298 299 299 298 298 298 297 295 294 293 292
294 296 299 300 300 301 304 305 305 304 300 299 298 299 296 295 294 295 296 295 294 295 296 295 293 295 291 291 292 292 292 294 293 294 293 298 299 298 298 298 298 298 298 298 298 298 296 295 295 295 293 292 292 289
295 294 295 300 300 301 302 305 303 301 300 299 297 297 293 291 290 293 294 295 295 295 296 295 293 294 295 292 291 292 295 296 296 290 299 299 298 299 299 299 299 298 298 297 297 297 295 294 294 293 292 292 290 287
295 297 299 299 301 302 302 304 299 298 298 296 297 298 297 295 296 295 295 295 296 295 296 294 293 296 290 289 291 293 295 297 296 298 299 298 299 299 299 299 300 299 298 297 297 297 296 294 293 292 292 292 290 287
296 298 300 301 301 302 304 301 299 297 295 297 297 297 296 298 298 296 296 297 295 295 295 295 292 291 291 291 293 295 295 301 300 299 299 299 298 298 298 299 299 299 299 298 297 297 296 294 294 295 293 291 289 287
296 297 299 301 302 304 303 298 298 296 297 298 298 298 297 298 298 299 298 297 297 296 295 292 293 290 291 292 296 298 299 301 302 301 300 298 297 297 297 298 299 299 298 298 298 297 297 296 295 295 293 291 290 287
297 297 298 300 303 303 298 297 297 297 297 298 298 297 297 297 298 298 298 297 296 295 295 288 291 293 295 299 300 300 302 302 301 299 299 300 299 298 298 298 297 298 298 298 297 297 296 295 294 294 292 291 290 287
297 298 298 300 302 300 299 296 296 298 299 297 297 297 297 296 296 296 295 295 295 295 294 297 297 299 299 299 299 299 300 300 301 301 301 300 300 299 299 299 297 296 297 297 297 297 296 296 296 294 292 291 291 287
298 299 299 301 302 299 297 297 297 297 296 294 296 297 293 292 293 295 295 295 296 298 299 300 301 300 300 300 300 299 299 299 299 299 299 299 299 299 299 299 298 296 297 297 296 296 296 296 295 294 292 291 290 287
297 299 300 298 297 295 295 296 296 294 293 294 294 294 290 289 293 295 294 295 297 299 299 299 299 300 300 300 301 301 301 300 299 299 299 298 298 298 298 298 297 297 296 296 296 296 295 296 294 293 292 290 289 286
298 299 298 297 296 295 293 294 293 292 293 294 295 291 288 286 292 292 294 294 298 298 299 299 299 299 299 300 299 300 300 300 299 298 300 299 297 298 298 297 297 296 296 296 296 295 295 295 294 292 292 290 289 287
297 296 295 295 294 293 293 287 286 289 289 291 293 285 287 290 291 291 288 288 297 298 298 298 299 299 299 299 299 299 299 298 299 298 300 299 298 297 296 295 296 296 295 295 295 294 294 294 293 292 291 290 289 287
296 296 295 293 289 290 290 289 286 284 284 287 291 288 289 291 292 290 287 297 298 298 298 299 298 297 297 298 298 298 299 299 298 298 300 298 298 297 296 296 295 296 295 295 295 295 294 294 293 292 291 290 288 286
297 294 295 296 293 290 287 287 288 286 285 291 287 287 289 293 290 289 297 301 300 301 301 301 300 300 300 300 300 301 298 297 297 297 297 297 296 296 295 295 296 296 295 295 295 294 294 294 293 292 290 289 287 286
294 294 294 291 288 289 283 283 284 287 288 287 288 289 291 291 293 299 301 302 301 300 301 301 301 301 300 300 299 299 298 296 295 295 295 295 296 297 296 296 296 296 295 294 294 294 294 293 292 291 290 288 286 285
293 294 293 289 283 283 285 288 287 290 293 289 290 288 287 293 299 300 301 301 301 301 302 301 301 300 300 299 297 296 296 296 295 295 295 297 297 297 296 296 295 295 295 294 294 294 293 292 291 290 288 286 285 284
291 293 290 288 291 287 289 293 292 295 294 295 296 296 296 298 299 299 300 300 301 301 301 302 302 301 301 299 297 297 296 296 296 297 297 297 297 296 296 295 295 294 294 294 293 293 291 288 287 286 285 285 284 284
293 293 286 284 286 290 294 293 292 292 292 293 294 295 296 297 298 298 299 299 300 300 300 300 302 302 302 298 296 296 297 297 297 297 296 296 296 295 295 294 295 294 294 293 294 292 289 288 287 286 286 285 284 284
290 289 285 282 280 287 289 289 290 291 291 291 293 293 294 294 293 297 298 298 299 299 299 299 300 301 301 300 297 297 297 297 296 296 296 295 295 294 294 293 294 294 293 293 292 289 286 286 287 286 287 286 284 283
288 288 286 285 284 283 287 288 286 282 285 284 289 292 293 293 291 297 298 298 298 299 299 299 299 299 301 300 297 296 296 296 296 295 295 295 294 293 293 293 294 294 293 292 291 286 286 286 287 287 285 284 283 282

GFSWCAN_850_thetae_105.txt.gz
Theta_e
314 314 314 314 315 315 315 314 313 312 302 306 305 296 296 299 300 303 303 304 302 302 302 303 303 304 304 305 303 305 304 303 302 304 304 303 302 300 301 300 300 302 300 301 301 304 304 302 303 305 302 303 304 306
313 313 312 313 314 315 315 315 314 313 312 304 306 300 294 298 298 301 302 303 303 302 303 303 303 303 303 303 305 305 304 303 305 301 300 300 303 297 298 303 297 302 299 300 301 302 301 303 305 306 305 305 305 305
312 312 311 312 313 314 314 314 314 313 312 305 306 305 295 296 298 301 302 302 303 303 303 302 303 304 303 302 303 304 304 306 305 305 302 299 303 299 303 298 299 299 298 299 301 301 300 302 303 303 303 303 304 304
310 310 310 310 311 314 314 314 314 314 312 309 304 306 301 295 298 298 301 301 302 302 299 302 302 302 302 302 302 303 304 304 304 304 303 299 302 302 300 300 298 301 298 298 298 300 302 304 303 304 304 304 304 304
308 308 308 309 310 312 313 313 313 313 313 308 305 305 305 295 297 298 299 301 300 301 299 301 302 301 301 301 301 301 302 302 302 302 297 300 300 298 297 296 297 300 300 300 303 303 302 302 303 303 303 304 304 303
307 305 306 307 309 310 310 312 313 313 313 310 305 304 305 298 296 297 301 302 301 301 300 296 298 297 298 298 299 300 300 300 301 302 300 301 301 301 300 299 300 304 304 304 303 304 303 304 303 303 302 302 303 303
301 302 302 304 306 307 308 309 311 312 312 310 306 305 306 301 296 297 300 301 301 300 298 296 296 297 297 297 297 298 298 299 300 300 298 299 300 301 297 303 303 303 303 304 304 303 302 303 302 301 300 302 302 303
298 299 299 299 300 302 304 307 308 310 309 308 305 305 305 301 298 297 298 298 300 299 298 291 294 294 296 297 297 297 297 298 298 299 297 297 297 298 299 300 303 303 303 303 303 303 302 301 300 299 298 301 301 301
296 296 297 298 298 298 301 305 306 309 308 306 304 304 304 300 299 299 299 299 299 299 297 293 294 294 296 296 296 296 297 295 296 295 296 296 297 299 299 300 302 303 303 303 302 302 300 297 297 298 300 301 300 300
295 295 295 295 295 296 297 302 304 308 307 304 303 303 300 300 299 299 298 298 297 298 298 293 295 293 296 295 295 295 295 295 290 295 296 297 299 299 300 302 302 302 302 301 300 298 298 299 299 300 301 300 300 300
295 295 295 295 295 295 295 302 304 306 306 304 303 301 300 298 298 298 297 296 296 294 296 296 295 295 295 295 296 296 293 293 293 295 295 295 297 295 302 302 302 302 300 298 297 299 299 299 299 300 301 301 300 300
293 293 294 294 294 294 295 300 303 304 306 304 302 299 298 298 297 296 296 294 294 295 295 293 293 297 296 297 297 294 294 292 297 292 295 297 297 300 300 301 300 299 298 298 300 300 299 300 300 300 300 300 300 299
294 294 293 294 294 294 295 300 302 304 304 301 301 299 298 296 296 296 294 290 291 295 294 293 291 297 296 296 295 293 294 296 291 293 295 296 297 299 301 300 299 298 298 298 300 301 301 300 299 300 300 300 299 297
293 295 294 293 294 295 297 299 301 303 303 301 297 297 297 296 294 293 293 292 295 296 294 295 294 294 295 294 294 293 294 291 293 296 296 295 298 301 299 299 299 299 299 298 299 300 300 299 299 299 299 298 297 295
291 294 294 293 294 295 298 299 300 302 301 300 297 299 296 296 295 295 295 295 295 295 295 295 293 295 291 292 293 291 293 293 293 297 297 299 301 301 300 299 299 299 299 299 298 298 299 299 298 297 297 296 294 293
289 292 293 293 294 294 296 299 300 301 301 300 297 298 297 292 290 294 295 295 295 295 296 296 293 292 293 291 291 291 291 292 298 295 300 300 300 300 299 299 299 299 299 299 298 298 298 298 297 296 295 294 293 292
290 292 292 293 294 294 295 297 300 300 299 296 296 299 297 295 298 299 299 296 295 295 296 295 295 294 289 287 289 290 291 297 299 300 301 300 300 299 299 299 299 299 300 299 299 298 298 297 296 295 295 294 293 292
291 290 291 293 294 296 299 300 300 298 295 296 297 299 298 298 299 298 296 296 295 295 296 295 293 293 290 291 290 291 295 298 300 301 301 300 300 299 300 299 298 299 300 299 299 298 298 297 296 296 295 294 292 291
291 290 291 293 295 297 299 299 300 296 296 299 300 298 298 298 299 300 301 298 297 297 298 294 294 293 295 290 292 298 299 299 302 303 304 302 300 300 299 298 298 298 299 299 299 299 298 298 297 296 295 294 293 293
291 291 291 293 295 297 298 297 296 297 295 298 298 298 297 299 299 299 299 297 295 295 294 293 293 298 293 299 301 301 302 301 302 303 302 302 302 300 301 302 301 299 297 297 298 298 298 298 297 297 296 295 294 293
291 291 291 294 295 296 298 297 295 296 299 297 298 297 297 297 297 296 295 294 295 295 295 298 299 300 300 300 299 299 300 299 301 301 301 301 302 301 302 301 302 299 297 298 297 297 297 297 297 297 296 295 295 294
291 291 293 294 296 298 297 298 297 296 295 294 296 297 294 293 294 296 295 295 295 297 299 300 300 299 299 299 300 300 300 299 300 300 299 299 299 300 301 301 300 301 300 299 299 298 297 297 297 296 296 295 294 293
292 293 295 297 297 295 295 296 296 295 294 295 296 296 293 289 294 296 294 295 297 298 299 299 299 300 300 300 300 300 301 301 301 300 300 299 299 300 300 299 299 300 298 299 299 298 297 296 296 296 295 294 294 293
293 296 296 296 295 295 293 294 295 292 293 294 295 295 288 285 293 294 295 293 298 298 298 299 298 298 299 299 299 299 300 299 299 300 299 298 297 298 298 299 299 301 301 299 296 296 296 295 295 295 294 294 293 293
296 295 295 294 295 294 293 290 287 288 288 293 294 291 286 290 292 293 288 290 298 298 298 298 298 298 298 299 299 299 298 298 299 299 299 299 299 299 298 297 298 299 298 296 295 295 294 294 294 294 294 294 294 293
296 296 294 292 291 291 289 287 287 284 284 286 290 285 289 290 292 292 288 298 297 299 299 299 298 298 297 298 298 298 299 299 299 299 299 299 298 298 298 297 297 298 297 296 295 295 294 294 293 293 294 294 293 291
295 294 295 296 293 290 287 286 287 283 282 287 285 288 291 294 292 290 298 300 300 301 300 301 300 300 300 299 298 299 299 298 298 298 298 298 297 296 296 296 297 297 295 295 295 295 295 294 294 293 293 293 292 291
294 293 295 292 289 288 284 283 283 285 286 286 287 285 291 292 294 300 301 301 302 301 300 300 300 300 299 299 298 298 298 298 298 297 296 296 296 296 295 295 296 296 296 295 295 295 295 294 294 293 293 292 291 290
292 293 292 290 286 286 283 285 285 289 292 288 289 287 288 296 299 299 300 300 301 301 301 301 302 300 300 300 299 298 297 297 297 296 296 296 296 296 296 296 296 295 295 294 294 294 294 293 293 292 292 291 290 288
291 293 291 288 292 291 290 293 292 295 294 294 294 296 296 298 299 299 299 299 299 300 300 300 300 300 301 301 301 300 298 297 297 296 296 296 297 296 296 296 295 295 294 294 294 293 293 293 292 291 289 289 287 285
292 292 285 286 286 293 295 294 293 293 292 292 293 293 294 296 297 298 298 299 298 298 299 299 299 300 300 299 300 301 300 300 299 296 296 296 296 296 296 295 295 295 294 294 294 293 293 293 292 290 289 287 285 285
291 291 285 284 283 288 290 289 290 291 291 291 293 293 294 294 293 297 298 298 298 298 299 299 299 299 299 299 299 300 301 301 298 297 296 296 296 296 295 294 294 294 295 294 294 294 294 292 290 288 286 285 285 285
288 288 285 283 281 282 286 288 285 280 283 280 287 293 293 294 295 297 297 297 298 298 299 299 299 299 299 299 298 299 300 300 296 297 297 296 296 295 294 294 294 293 294 294 293 294 292 288 286 286 285 286 286 284

GFSWCAN_850_thetae_108.txt.gz
Theta_e
314 314 314 314 313 313 314 314 313 313 313 313 305 306 303 297 299 299 301 303 304 302 303 303 303 304 305 305 307 305 306 305 306 309 309 308 308 306 305 305 305 308 309 308 308 310 311 305 304 307 307 304 304 305
313 313 313 313 313 312 312 313 313 312 313 313 311 304 306 298 297 299 301 302 302 303 304 304 304 302 303 303 304 305 305 305 307 308 306 307 308 305 306 308 301 305 306 307 308 308 306 304 307 305 305 304 304 304
313 313 313 313 312 311 311 312 313 312 313 313 313 308 305 305 298 297 299 301 301 301 302 302 303 303 303 303 303 304 304 305 306 306 306 307 309 306 308 306 306 304 301 304 303 306 304 304 303 302 302 302 303 303
311 312 312 311 312 310 309 310 312 312 312 312 312 310 305 306 303 297 298 299 301 301 301 303 303 302 303 303 302 302 303 304 304 304 305 307 308 305 307 307 305 307 302 305 305 305 304 304 304 303 303 304 304 304
307 308 308 308 308 308 307 309 311 312 311 312 311 310 304 306 305 299 297 297 299 300 301 301 302 302 301 301 302 301 301 302 303 303 304 305 304 303 304 301 305 304 305 306 307 306 305 305 304 303 304 303 302 302
305 306 306 306 305 306 306 308 309 309 311 311 310 308 305 305 305 299 298 302 302 300 300 302 300 298 298 298 299 300 300 300 301 302 303 302 301 303 307 307 305 305 305 305 305 305 304 304 303 304 303 302 301 301
301 301 302 303 304 303 302 304 306 307 307 310 310 308 305 305 305 300 298 300 301 301 299 298 299 296 297 297 297 298 298 299 300 300 299 301 300 301 303 306 306 304 304 304 304 303 302 303 303 303 302 301 300 299
298 297 297 298 299 299 299 299 302 304 306 308 308 307 304 304 304 303 302 298 299 299 298 298 298 295 296 296 297 296 297 297 298 299 297 298 298 300 303 304 303 303 302 302 302 302 303 302 301 301 300 297 297 300
298 297 296 296 296 297 297 297 298 302 304 307 307 305 304 303 302 302 300 299 297 298 297 295 299 303 295 295 296 296 296 298 296 298 298 298 301 302 303 302 302 302 302 303 303 303 302 301 301 298 298 298 299 300
295 295 296 295 295 295 295 295 296 298 303 305 306 304 302 302 302 300 298 298 297 298 298 296 295 297 296 295 296 297 295 299 299 298 296 298 300 300 300 301 302 302 303 303 302 301 300 298 299 299 300 300 300 300
294 294 295 295 295 295 294 295 297 300 303 304 304 303 301 300 299 299 297 296 297 297 296 295 295 296 295 299 299 297 298 297 299 299 299 300 300 300 301 301 301 301 303 303 302 301 298 299 299 300 300 300 301 300
291 292 294 294 293 294 294 294 297 299 302 304 303 300 298 298 298 297 297 296 296 299 296 295 294 296 295 296 298 295 298 295 299 294 296 299 300 300 301 301 301 302 302 301 299 298 300 300 300 301 300 300 301 300
289 290 291 293 294 293 294 295 296 299 302 302 301 300 298 296 297 297 297 296 296 296 294 293 295 296 295 296 297 297 298 298 292 296 297 299 300 299 300 301 300 300 299 299 299 299 300 301 300 300 299 300 300 300
289 289 290 292 294 294 294 294 296 298 300 300 297 297 298 299 297 298 298 299 296 295 294 295 294 296 295 296 296 297 297 294 296 297 299 301 300 300 300 300 300 300 299 299 299 299 299 300 300 300 299 299 299 299
290 289 289 289 292 295 293 293 297 298 299 299 297 298 298 298 296 295 296 296 295 295 295 296 294 295 296 297 295 295 295 296 296 300 302 300 299 300 301 301 300 300 300 300 299 299 298 299 299 299 299 298 298 297
291 290 289 289 289 293 294 293 296 298 299 298 298 298 297 296 294 294 296 295 295 295 296 296 295 295 297 296 294 295 296 297 301 298 299 300 301 301 301 300 300 300 299 300 300 299 298 298 298 298 297 297 296 295
292 292 291 290 289 290 293 294 295 295 298 297 296 299 299 298 299 298 300 298 296 296 298 297 297 299 292 295 294 295 297 300 299 300 301 302 301 301 301 300 300 299 300 300 300 299 299 298 298 297 297 296 295 295
292 292 291 291 290 290 292 294 295 296 296 298 296 298 298 299 300 298 299 299 295 296 297 297 294 295 297 297 297 295 295 299 299 300 302 303 303 301 300 300 299 298 298 299 300 299 299 298 299 298 298 296 295 294
293 293 292 291 291 292 293 295 295 297 296 297 298 298 298 299 298 299 298 300 298 297 298 295 298 297 298 296 298 299 299 300 301 302 302 303 304 303 302 301 300 299 299 298 299 299 299 299 299 298 298 296 296 295
292 292 291 291 292 293 294 295 296 296 298 298 297 298 297 298 298 297 298 299 296 295 295 294 297 299 298 302 302 301 302 302 301 299 299 301 303 304 303 302 301 300 299 298 299 300 300 299 298 299 299 298 297 297
292 292 292 292 292 293 293 295 295 295 297 297 299 298 297 297 296 295 294 295 294 295 297 298 299 300 301 302 301 301 301 300 300 299 300 301 302 303 302 301 302 302 299 299 300 302 303 300 297 298 299 298 297 297
292 292 292 292 293 293 293 293 296 296 296 295 295 297 295 296 296 295 294 294 296 297 298 299 300 299 300 300 300 300 301 300 301 300 299 299 299 299 300 301 300 301 301 301 301 301 301 301 299 296 299 299 296 296
292 292 293 293 293 293 294 294 295 295 296 293 296 296 296 292 295 296 295 295 297 298 298 298 299 299 299 300 300 300 299 299 299 299 298 298 298 298 298 297 298 298 297 298 299 299 300 300 299 299 300 297 295 295
292 293 293 293 293 294 294 293 294 295 294 295 295 294 292 292 294 295 297 294 297 298 298 298 297 298 298 298 298 298 299 299 299 299 299 298 298 298 297 298 298 298 299 297 297 297 297 298 299 298 299 296 293 295
293 293 293 294 294 293 292 290 290 291 294 292 295 294 289 291 294 294 293 294 299 298 298 298 297 297 297 298 298 298 298 298 298 298 298 298 298 298 298 298 298 298 298 296 296 296 296 297 297 295 293 292 293 294
293 292 293 294 294 291 290 289 287 287 287 291 293 289 289 291 293 294 292 298 298 299 299 299 298 297 297 297 298 298 299 298 298 298 298 299 298 298 298 297 298 298 298 297 297 295 295 296 295 294 293 293 293 293
293 290 294 294 293 291 289 287 288 287 288 290 288 288 290 294 294 293 297 300 300 301 301 300 300 299 300 300 298 298 297 298 298 298 299 298 298 298 298 298 297 297 296 295 295 295 295 294 294 293 293 293 292 292
294 293 293 293 290 291 287 285 286 286 286 287 288 290 291 294 295 299 300 300 301 301 301 301 301 300 299 299 300 299 298 298 298 297 297 298 297 298 297 297 296 295 295 294 294 294 294 294 294 293 293 293 292 292
292 293 293 288 284 284 285 286 286 290 293 289 290 290 288 295 299 300 300 299 299 299 299 300 300 300 300 299 299 300 300 299 298 297 297 297 298 298 297 296 295 295 294 294 294 294 294 294 293 293 292 292 292 291
290 292 288 282 288 289 292 292 292 295 294 294 295 295 296 298 298 298 298 298 298 299 299 299 299 299 299 299 299 299 300 300 300 300 299 300 298 296 295 296 296 295 295 294 294 294 294 294 293 293 292 291 290 289
292 290 286 286 289 293 294 294 294 294 294 294 294 293 294 295 297 298 298 298 298 298 298 298 299 298 298 298 298 298 299 299 299 300 301 300 297 295 295 295 295 295 295 294 294 294 294 294 293 293 292 291 289 288
287 289 289 286 287 289 291 291 291 291 292 291 292 293 293 293 292 295 296 296 296 297 297 297 297 297 297 297 298 298 299 298 299 300 301 301 298 296 295 296 297 295 294 294 294 293 293 293 293 292 290 289 288 286
288 288 286 284 282 284 286 287 283 281 282 280 286 291 291 293 293 295 296 296 296 296 296 297 297 297 297 297 298 298 297 297 297 299 300 299 296 295 296 298 296 294 294 294 293 293 293 292 290 289 288 287 285 284

GFSWCAN_850_thetae_111.txt.gz
Theta_e
313 313 313 313 313 313 312 312 312 311 312 313 313 313 307 306 304 299 300 301 302 304 305 303 304 305 306 306 307 307 308 307 309 310 310 310 309 309 307 307 308 310 311 310 309 310 311 307 307 307 308 307 306 307
312 312 312 313 312 312 312 311 311 312 311 312 312 313 312 307 305 301 299 300 301 301 303 302 303 303 303 305 306 306 307 307 309 310 310 309 309 309 308 308 307 307 308 309 310 311 309 307 308 307 307 306 306 305
312 312 312 311 312 312 312 311 310 310 312 311 311 312 312 309 306 305 299 298 300 300 302 302 303 303 303 303 302 305 306 306 307 307 309 309 310 309 309 309 308 308 306 306 307 308 308 307 306 306 305 304 304 304
310 310 310 310 311 310 311 311 309 308 310 312 311 311 311 310 307 306 305 299 298 300 302 304 303 303 303 303 303 302 303 304 304 304 307 308 308 307 308 308 309 308 306 306 307 307 307 307 306 306 306 305 304 303
307 307 307 307 308 307 307 308 307 308 309 309 310 310 310 309 306 306 306 302 298 299 302 302 301 302 301 301 301 301 301 302 303 305 306 307 307 307 307 307 308 307 308 308 308 308 308 308 306 304 304 304 304 303
303 304 306 306 306 306 306 306 306 306 307 308 309 309 309 308 306 305 299 301 302 301 300 304 301 299 298 298 299 300 300 300 302 304 304 305 305 305 308 308 308 307 307 307 307 307 306 306 304 304 303 303 303 302
300 301 301 301 302 303 304 304 302 301 304 306 307 308 308 307 306 305 301 300 300 300 300 300 303 297 297 297 297 298 298 299 300 302 302 303 303 302 306 307 307 307 307 306 306 306 306 305 304 303 303 303 302 302
298 298 298 298 298 298 299 300 299 299 299 302 305 307 307 305 305 304 305 304 300 298 299 300 304 298 295 298 299 297 298 298 299 301 300 300 301 301 305 305 305 305 305 305 304 304 304 304 303 303 302 301 301 298
297 296 298 298 297 296 296 297 297 298 299 302 303 306 305 303 303 304 302 301 299 299 299 298 303 308 295 297 297 296 298 299 298 299 299 300 301 302 303 303 303 304 304 303 303 302 302 302 302 302 300 299 298 298
295 295 295 295 295 296 295 295 295 296 298 301 303 305 303 302 304 302 300 297 297 298 297 297 300 302 297 297 298 299 298 300 301 300 298 299 301 301 301 302 302 303 303 302 302 302 302 301 300 298 299 300 300 299
292 292 293 294 294 295 295 295 295 297 298 301 302 303 301 302 301 299 299 298 298 297 297 297 299 301 297 301 301 299 302 300 300 302 300 301 303 302 302 301 301 301 302 302 303 303 302 302 299 299 299 300 301 301
290 290 290 291 293 294 294 294 295 297 299 301 301 301 300 300 298 298 300 298 298 300 300 299 298 298 297 297 300 298 301 298 301 297 298 300 303 302 301 301 301 301 302 301 302 302 302 299 300 300 300 300 300 301
290 290 289 289 290 293 294 293 294 296 298 299 300 301 298 298 298 300 301 300 299 299 297 296 297 297 296 297 300 299 300 299 296 298 300 302 304 302 301 301 301 301 301 301 301 301 299 299 300 301 300 299 299 300
291 291 290 289 290 291 294 294 294 296 298 299 299 299 299 302 299 302 302 302 300 298 296 297 297 298 298 298 299 300 300 297 300 300 302 306 304 301 300 300 300 300 300 300 300 299 299 299 300 300 300 300 299 300
291 291 290 289 289 289 292 295 294 296 297 297 297 300 300 300 300 299 300 297 296 296 296 297 297 296 298 299 297 299 298 299 300 303 307 303 301 300 300 300 301 300 300 300 300 300 299 299 299 299 299 299 299 299
292 292 291 290 290 289 289 294 294 295 297 297 298 298 299 298 301 296 296 297 297 296 296 297 298 298 300 299 298 298 300 301 305 301 300 301 301 301 301 301 302 301 300 299 299 299 300 299 299 299 298 298 298 298
293 293 292 292 292 291 289 292 294 295 295 297 297 297 298 300 300 302 298 299 297 296 300 299 299 299 295 297 298 299 300 303 304 302 303 302 301 302 301 302 302 302 299 299 299 299 299 299 298 298 299 298 297 296
293 293 293 292 292 291 291 292 294 295 295 295 297 298 298 298 298 299 299 298 296 296 299 300 299 298 300 301 302 302 300 302 301 301 303 302 301 303 303 302 305 306 301 300 299 298 299 299 299 299 299 298 297 297
293 293 293 292 292 292 292 293 292 294 295 295 295 295 296 297 298 299 299 299 297 298 298 296 300 301 302 302 302 301 301 302 302 302 302 302 302 304 304 303 302 302 300 300 301 299 298 298 299 299 299 298 298 300
293 293 292 292 293 293 293 292 293 294 294 294 296 296 296 296 296 296 298 297 297 296 297 298 300 300 300 301 301 301 301 302 302 302 301 301 301 302 301 302 301 302 302 301 301 299 298 297 298 298 299 302 301 299
293 292 292 292 293 293 292 292 293 293 294 295 295 297 296 296 297 297 297 296 295 296 298 298 299 299 300 300 300 300 301 301 301 301 300 300 300 300 300 301 301 301 301 301 302 301 300 300 301 298 298 301 300 301
292 292 292 292 294 294 293 293 293 294 294 295 295 296 297 298 298 297 296 295 296 296 297 298 299 299 299 300 300 300 300 300 300 300 300 300 299 299 299 299 298 298 299 299 299 299 299 301 300 300 301 300 299 301
292 292 292 292 293 293 293 293 293 293 294 294 295 296 297 297 297 297 295 295 297 297 297 297 298 298 299 299 299 299 299 299 299 299 299 299 299 299 299 298 298 298 298 298 298 298 298 299 300 300 298 298 300 298
292 293 293 293 292 294 292 292 293 293 293 294 294 294 295 295 295 296 297 297 298 297 298 298 297 298 298 298 298 298 299 298 298 298 298 298 298 298 298 298 298 298 297 297 297 296 296 297 297 296 296 297 297 297
293 293 293 294 293 293 293 294 294 294 294 294 295 295 295 292 295 296 297 297 297 297 298 298 298 298 298 298 298 298 299 298 298 298 298 298 298 298 298 298 298 298 298 297 297 297 296 296 295 295 295 295 295 295
293 292 293 294 293 293 293 293 293 293 294 294 295 295 293 293 295 296 297 297 298 298 298 298 299 298 298 298 298 299 300 299 298 298 298 298 298 298 298 298 297 298 297 297 297 297 296 294 294 294 294 295 295 295
293 293 292 292 293 293 293 292 292 294 291 292 295 291 292 293 295 296 296 297 298 298 299 299 299 299 299 299 299 299 299 298 298 298 298 298 299 299 298 298 298 299 297 297 297 296 295 295 295 295 296 296 295 293
293 293 292 292 291 292 292 293 290 290 292 291 291 291 292 294 297 297 298 299 299 299 299 299 299 299 299 299 299 299 299 299 299 298 298 298 299 300 298 298 298 297 297 296 296 295 294 294 293 293 293 293 292 291
293 293 293 290 292 289 290 291 293 293 293 291 295 295 294 295 296 296 297 298 298 298 298 298 298 299 299 298 298 298 298 298 298 297 298 298 299 300 300 299 297 296 296 295 295 295 294 293 293 293 293 292 291 290
291 292 293 291 289 291 292 292 293 294 294 294 294 294 295 295 296 296 297 297 297 297 298 297 298 298 298 297 298 298 298 298 298 297 297 300 300 299 300 297 296 296 295 295 295 294 294 293 293 293 292 291 290 290
291 291 291 292 292 292 292 293 293 292 292 293 293 292 294 295 295 296 296 296 296 296 296 295 296 296 296 295 296 296 297 297 296 297 297 298 298 299 299 297 296 295 295 295 294 294 293 294 294 292 291 291 290 290
290 290 291 290 292 292 291 290 290 290 291 290 291 291 292 292 292 294 294 294 294 294 294 294 295 294 295 295 296 296 296 296 296 297 296 297 297 298 300 298 295 295 295 294 294 294 294 294 292 291 291 290 290 289
289 288 287 289 287 287 286 288 285 286 285 287 289 292 292 292 292 293 294 294 294 294 294 294 295 295 295 295 295 296 296 296 296 297 297 297 299 299 300 298 296 297 297 296 294 295 294 292 292 291 290 289 288 287

GFSWCAN_850_thetae_114.txt.gz
Theta_e
311 312 312 312 312 312 312 312 312 311 311 312 311 312 312 312 309 305 302 301 300 304 302 303 304 305 305 306 305 307 307 307 307 308 308 307 307 305 306 306 307 307 305 306 307 307 307 307 306 305 305 306 306 307
312 311 311 311 311 311 311 312 312 311 310 310 311 311 311 311 311 307 303 301 299 300 302 302 302 302 304 305 305 306 307 307 308 307 307 306 307 306 306 305 305 304 307 306 307 307 307 308 308 307 307 307 306 306
311 311 311 311 311 311 310 311 311 311 310 309 310 311 310 310 311 310 306 302 300 300 303 304 305 303 302 301 303 304 306 306 307 308 307 307 308 306 307 306 307 306 307 304 305 304 305 307 307 307 307 307 306 305
307 308 309 310 310 310 310 310 309 308 309 308 308 309 310 310 310 310 308 306 302 299 300 303 303 303 303 303 303 303 303 304 304 305 306 306 306 307 306 306 307 306 306 305 305 305 306 306 306 306 306 306 306 304
305 306 306 307 308 308 308 308 307 307 307 307 306 308 308 309 309 309 308 306 300 300 302 302 303 303 302 301 302 302 302 302 303 304 304 304 306 306 305 305 306 306 306 306 307 307 306 306 306 306 305 305 305 304
302 303 304 305 305 305 306 306 305 306 306 306 304 306 307 308 308 307 306 301 302 302 301 302 303 301 300 299 299 299 300 300 302 303 304 304 305 305 303 304 305 307 307 307 306 307 307 307 306 306 305 304 304 304
300 300 300 301 300 300 302 302 303 303 301 300 302 304 306 307 307 307 306 303 302 301 300 300 302 300 297 297 297 298 299 300 301 302 302 303 303 304 301 305 305 307 307 307 307 307 307 306 306 305 305 304 303 303
297 298 298 298 298 298 298 298 298 299 300 300 300 301 303 306 305 305 305 305 304 300 299 299 300 300 296 298 298 297 298 298 299 301 301 300 302 302 303 303 304 304 305 305 306 305 305 306 305 304 304 303 302 302
297 298 297 296 298 298 297 297 296 296 297 298 299 300 303 303 304 304 303 302 302 301 298 298 301 304 296 298 298 297 297 297 298 299 299 299 299 301 301 302 302 303 304 304 304 303 304 304 304 304 303 302 301 299
293 295 296 295 295 295 295 296 295 295 295 297 299 302 302 302 302 302 301 298 297 298 297 296 299 298 299 298 298 299 297 298 300 299 298 299 299 300 300 301 302 302 302 303 304 303 303 303 302 302 300 299 299 300
290 291 292 293 293 294 294 295 295 295 296 298 300 301 301 302 302 301 299 298 297 297 296 296 298 300 300 300 300 299 300 298 299 299 298 300 300 300 303 303 302 301 301 301 302 303 303 303 302 301 299 299 300 301
291 290 290 290 291 292 293 294 294 295 298 300 301 300 301 301 299 298 299 298 298 300 299 298 297 298 299 299 299 299 298 298 300 297 297 298 297 302 303 302 301 301 300 300 301 302 302 302 302 300 300 300 300 300
291 291 290 290 290 290 291 293 293 294 296 298 298 299 298 298 298 299 301 299 299 298 298 297 295 298 297 297 299 299 298 299 296 297 296 296 300 302 302 300 300 300 300 302 302 301 301 302 302 299 300 301 301 300
292 291 291 291 291 291 290 292 294 294 296 297 298 299 297 298 299 298 298 298 300 300 298 297 297 297 298 297 298 299 299 296 296 296 296 296 304 302 301 300 299 300 300 300 300 300 300 299 299 299 300 300 300 300
293 292 291 291 291 291 290 291 294 294 295 297 297 297 298 298 301 300 301 301 297 297 297 297 297 297 295 298 298 299 299 298 297 296 299 303 302 302 302 303 303 302 301 300 300 299 299 299 299 299 299 299 299 299
294 293 292 292 291 291 290 289 293 295 296 297 295 297 298 298 299 298 299 299 298 297 298 298 298 297 298 297 299 294 297 296 296 296 301 302 301 301 302 302 302 302 304 302 301 301 299 299 299 299 298 299 299 298
294 294 294 293 292 291 291 290 292 295 295 295 296 296 296 297 298 299 300 299 298 297 294 298 298 297 296 296 296 297 296 296 302 301 301 301 301 301 301 302 303 303 303 303 303 304 303 299 298 298 299 299 299 298
293 294 294 294 293 293 293 292 292 293 294 294 295 295 296 297 297 297 297 298 298 296 299 297 300 296 296 294 298 298 300 300 300 301 302 300 300 301 302 302 302 302 301 302 302 301 300 299 298 298 299 299 297 297
292 293 294 294 293 293 293 293 292 292 292 293 294 294 294 295 296 297 298 298 298 298 298 298 298 298 298 298 298 299 299 299 300 300 300 300 301 301 301 301 301 301 301 301 300 301 301 299 297 297 297 297 298 298
291 293 294 294 294 293 293 292 292 292 292 292 293 294 295 295 295 295 295 295 295 297 296 296 297 298 298 298 299 298 298 298 299 299 300 300 300 300 300 300 300 300 300 300 300 300 301 300 300 300 299 297 297 297
292 293 294 294 294 293 293 293 292 292 293 293 293 293 292 293 294 294 295 295 296 296 296 296 296 296 296 296 297 297 298 298 298 299 299 299 300 300 300 300 300 299 299 299 299 299 299 299 300 300 299 300 299 301
293 293 294 294 295 294 293 293 293 293 293 293 294 294 294 294 294 295 295 296 296 296 296 296 296 296 296 297 297 297 298 298 298 299 299 299 299 299 299 299 299 299 299 298 298 298 298 298 298 298 298 298 298 298
293 294 294 294 294 293 294 293 293 293 293 293 294 291 291 293 294 294 295 296 296 296 296 296 296 296 296 297 297 297 297 297 298 298 298 298 298 298 299 299 299 298 298 298 298 298 298 298 298 297 296 296 296 297
293 293 293 293 292 293 292 292 292 293 293 288 286 287 288 292 293 294 292 294 294 295 295 295 295 296 296 296 296 297 297 297 297 298 298 298 298 298 298 298 298 298 298 298 298 298 298 297 297 297 296 295 295 296
293 292 293 294 293 293 293 289 286 288 287 287 288 287 286 293 286 288 292 293 293 294 294 294 294 295 295 296 296 297 297 297 298 298 298 298 298 298 298 298 298 298 298 298 298 298 298 297 297 296 295 295 295 295
293 292 293 291 290 289 289 287 287 288 289 286 288 292 293 290 292 293 293 293 293 294 294 295 295 296 297 297 297 298 299 299 298 298 298 298 298 298 299 298 298 300 300 299 299 298 297 297 296 296 296 295 294 293
292 291 292 292 293 293 290 292 292 287 287 288 285 288 288 291 291 292 294 294 295 295 295 296 296 297 297 298 298 298 298 298 298 298 298 298 298 297 297 297 298 300 299 297 297 297 297 296 295 295 294 293 293 292
293 292 289 291 292 292 289 287 284 285 286 292 290 286 287 289 292 293 294 294 293 295 296 296 296 297 297 297 297 297 298 298 297 297 297 298 298 298 298 298 300 300 299 298 297 296 296 295 295 294 293 293 293 292
292 292 292 286 290 289 288 287 288 292 292 292 291 291 292 293 293 293 293 294 294 295 295 295 295 295 295 297 297 297 296 296 296 296 296 296 296 297 297 297 299 300 300 297 295 295 295 294 294 293 293 293 292 291
290 291 290 288 285 287 290 291 292 292 292 292 292 292 292 292 292 293 293 294 294 295 295 295 295 295 295 296 296 295 295 295 294 294 295 295 296 296 296 296 298 300 300 296 295 295 294 294 293 293 292 293 292 290
291 291 291 291 291 291 291 291 292 292 292 292 292 292 292 293 293 293 293 293 294 295 295 295 295 295 295 295 294 294 294 294 294 294 295 295 295 296 296 295 296 298 299 296 295 294 293 293 293 293 294 292 290 290
291 291 290 290 290 291 291 291 291 291 291 290 290 291 290 290 290 291 292 293 293 293 293 294 294 294 293 293 293 293 293 294 294 295 295 295 295 296 296 296 295 297 297 296 294 293 293 293 294 294 292 291 291 290
290 290 290 290 290 286 288 288 286 284 287 289 290 291 290 291 290 292 292 292 293 293 293 293 293 294 294 294 294 294 294 295 295 295 295 295 295 295 296 295 295 297 296 294 296 296 294 294 293 292 292 291 290 290

GFSWCAN_850_thetae_117.txt.gz
Theta_e
310 311 311 311 311 311 311 311 310 311 311 311 310 311 311 310 311 310 309 309 306 301 304 303 304 304 306 306 303 307 305 307 305 306 305 305 303 304 305 303 304 305 304 305 306 307 306 305 305 305 305 305 307 306
311 311 311 311 311 311 311 310 310 310 311 311 310 310 311 310 310 310 309 308 307 306 307 306 304 303 304 303 305 305 306 307 308 305 304 304 305 303 304 305 302 305 305 306 305 306 305 306 307 307 307 306 306 306
312 312 311 311 311 311 311 311 310 310 310 310 308 308 309 310 310 309 308 308 307 304 305 306 306 303 303 302 303 305 305 306 307 308 307 305 306 303 306 305 305 305 305 304 304 304 305 307 308 308 308 307 307 307
310 310 309 309 309 309 310 310 309 309 309 309 307 307 307 308 309 309 308 307 307 304 300 304 304 305 304 303 302 302 303 304 305 305 305 303 304 305 303 304 304 305 305 303 304 305 306 306 306 306 306 306 306 306
307 307 307 306 306 307 307 307 307 307 307 307 306 306 306 307 307 307 308 307 303 302 300 303 306 305 304 303 302 301 302 302 302 303 300 302 304 304 303 302 305 305 305 306 306 307 305 306 306 306 306 306 306 305
304 304 304 304 304 304 305 305 305 305 306 306 306 303 304 306 307 307 307 301 301 302 304 300 304 303 301 300 300 300 300 300 301 302 302 304 305 304 301 301 303 306 306 306 305 306 306 306 306 306 306 306 306 305
299 299 300 300 300 301 301 302 302 303 303 302 301 301 303 304 306 307 307 303 304 304 301 300 301 300 298 298 298 298 299 300 301 302 302 302 303 304 300 302 304 305 305 305 305 305 305 306 306 306 306 306 305 304
297 296 297 298 298 299 299 299 298 298 298 299 299 300 300 301 303 305 305 305 305 303 301 298 299 300 297 298 298 297 298 298 299 300 301 300 301 302 302 302 303 303 303 303 304 305 304 304 305 304 305 305 304 304
294 295 297 297 297 297 298 297 297 296 296 296 297 297 297 299 301 303 303 303 302 302 299 297 299 303 297 298 298 297 297 297 298 299 299 299 299 301 301 301 301 301 301 301 301 301 303 304 303 303 304 304 304 303
291 293 295 296 296 295 295 295 295 295 295 295 296 297 301 302 302 302 301 299 298 298 297 296 298 297 299 297 297 297 297 297 298 299 298 299 300 300 300 301 302 303 302 302 300 299 300 302 303 303 303 303 301 300
291 291 291 292 293 293 293 294 295 295 295 296 299 300 301 301 301 301 299 298 296 296 297 296 296 299 298 299 299 299 296 296 298 297 297 299 299 297 303 302 301 299 299 300 299 299 300 300 302 302 302 301 299 299
292 292 291 290 290 291 292 293 294 294 297 299 300 300 300 300 299 298 299 298 297 297 297 297 297 297 299 299 299 299 297 297 299 297 297 297 295 302 302 301 301 300 301 300 301 302 302 301 301 302 302 302 299 300
293 292 291 290 290 290 290 291 293 294 296 298 297 297 298 297 298 299 295 296 297 298 298 297 295 298 297 297 298 297 299 299 295 296 297 295 298 302 301 301 302 302 301 301 300 299 300 301 301 301 302 301 299 300
294 293 292 291 290 290 290 290 292 294 295 296 296 296 297 295 298 296 295 295 298 299 298 298 296 297 296 295 296 298 297 296 297 295 294 292 301 301 301 302 301 301 302 303 304 303 302 301 300 299 298 298 299 299
294 294 293 292 291 291 291 290 292 294 295 295 295 296 296 297 298 299 299 299 298 299 297 297 297 297 294 293 296 294 296 293 292 293 293 300 302 301 300 300 301 300 301 301 301 302 303 302 302 302 300 298 298 298
293 294 295 294 292 291 292 291 292 294 295 295 295 295 296 296 296 297 299 299 299 297 297 298 297 297 298 296 296 295 292 292 293 291 300 301 301 299 299 299 299 299 300 301 300 301 301 301 301 301 301 300 298 298
292 293 294 294 294 292 291 291 292 293 294 295 295 295 295 295 296 298 298 299 298 297 296 296 297 295 293 297 296 291 291 295 299 300 301 299 298 298 298 298 298 299 300 301 300 300 301 300 300 300 300 301 300 298
291 291 292 293 294 294 293 292 292 292 292 294 293 294 295 295 296 296 296 296 297 297 297 295 297 294 296 292 297 293 297 298 299 298 298 298 298 298 298 298 298 299 300 300 300 300 300 300 300 300 300 300 299 297
290 290 291 292 293 294 294 294 292 291 291 292 292 293 294 294 294 294 294 295 296 296 296 297 297 297 295 296 296 297 297 297 297 297 297 297 297 297 297 298 298 299 299 299 299 300 300 300 300 299 299 299 299 299
289 290 290 291 292 294 293 293 293 292 291 291 291 291 291 292 292 292 293 293 294 294 294 294 294 294 295 295 295 296 297 297 296 295 295 295 296 297 297 298 298 298 298 299 299 299 299 299 299 299 299 299 299 299
289 289 290 291 292 294 294 293 292 292 292 292 292 292 292 292 292 293 293 293 293 293 293 294 294 294 294 294 294 294 294 295 295 295 295 296 296 297 297 297 298 298 298 298 298 298 298 298 299 299 298 298 298 298
290 290 290 291 292 294 294 294 292 292 292 292 293 292 292 292 291 292 292 292 292 293 293 293 293 294 294 294 294 295 295 295 295 295 296 296 296 296 297 297 297 297 297 297 297 297 298 298 298 298 297 297 297 297
291 291 291 292 293 294 293 293 293 292 290 290 292 290 289 292 293 293 293 293 293 293 293 294 294 294 294 294 295 295 295 295 295 295 295 295 295 296 296 296 297 297 297 297 297 297 298 298 298 298 298 297 297 296
291 292 293 293 293 293 292 292 292 292 292 288 285 283 280 290 293 292 287 292 292 292 293 293 293 293 294 294 294 295 295 295 295 295 295 295 295 296 296 297 297 297 298 298 299 299 299 298 298 298 297 297 296 295
291 291 293 292 292 292 292 291 290 286 284 283 283 278 282 291 283 278 288 291 292 292 292 292 292 292 292 293 293 293 293 294 294 295 296 296 297 297 297 298 298 298 298 299 300 300 299 298 298 298 298 297 297 296
292 292 292 292 292 291 289 286 286 284 282 280 280 289 290 283 283 287 286 292 292 292 292 292 292 292 293 293 294 294 295 296 296 296 297 298 297 297 297 297 297 298 298 298 298 298 298 297 297 297 297 296 296 295
292 292 292 292 292 292 289 290 289 284 282 283 280 281 285 290 288 287 292 292 292 292 292 293 293 293 294 294 296 296 296 296 295 296 297 297 297 297 296 296 296 297 297 297 296 297 297 297 297 296 296 295 294 293
291 291 290 291 291 292 285 282 280 283 284 289 286 282 286 286 290 292 292 292 292 292 292 292 292 292 293 294 294 294 294 295 295 296 296 295 295 295 294 294 295 296 296 296 297 298 298 298 296 295 295 295 295 294
291 292 290 282 286 288 287 286 285 291 291 291 289 290 290 291 291 291 291 291 291 292 292 292 292 292 293 293 293 293 294 294 294 295 295 295 294 294 294 295 295 296 296 296 298 298 298 296 295 295 295 294 294 293
289 291 289 284 285 286 290 291 291 291 291 291 291 291 291 291 291 291 291 291 291 291 292 292 292 292 293 292 292 293 293 293 293 294 294 294 293 293 294 295 295 295 295 296 297 297 297 295 295 294 293 293 294 294
291 290 290 289 286 290 290 291 291 291 291 291 291 290 290 291 291 291 291 292 292 292 292 292 292 292 292 292 293 293 293 293 293 293 293 293 293 293 294 294 295 294 295 295 295 296 295 294 293 294 294 295 294 291
291 290 289 285 289 290 290 290 291 290 290 290 289 290 290 289 289 290 291 291 291 291 291 291 291 291 292 292 292 293 293 293 293 293 294 294 294 294 294 294 294 294 295 294 294 295 294 294 294 294 294 293 291 290
289 289 289 289 286 287 289 288 287 283 286 288 289 290 290 290 289 290 290 291 291 291 291 291 291 291 292 293 293 293 293 293 293 294 294 294 294 294 294 294 294 294 294 294 294 294 293 295 294 294 294 291 290 289